Date StartTime U_cm/s V_cm/s W_cm/s Ustd_cm/s Vstd_cm/s Wstd_cm/s Uvar_(cm/s)^2 Vvar_(cm/s)^2 Wvar_(cm/s)^2 KE_(m/s)^2 TurbulentKE_(m/s)^2 HorizWindSpeed_cm/s FrictionSpeec_cm/s DragCoef SpeedOfSound_m/s SonicTemperature_C Pressure_mb 
06/12/2014  00:00:00     -252.869      -29.479       -6.723      115.284       79.897       54.025    13290.451     6383.459     2918.699        4.372        1.130      254.582       65.697        0.067      344.685       21.675      858.173
06/12/2014  00:01:00     -220.681      -14.756      -20.659      111.291       96.888       55.333    12385.760     9387.202     3061.711        3.708        1.242      221.174       63.745        0.083      344.735       21.761      858.162
06/12/2014  00:02:00     -261.446      -24.221       -5.202      100.462       90.748       64.131    10092.689     8235.274     4112.723        4.570        1.122      262.566       56.338        0.046      344.663       21.639      858.143
06/12/2014  00:03:00     -257.225      -55.606      -21.704      125.164       86.697       60.158    15666.038     7516.448     3618.954        4.826        1.340      263.167       54.948        0.044      344.634       21.587      858.129
06/12/2014  00:04:00     -321.482       19.148      -28.659       89.919       81.740       51.349     8085.363     6681.463     2636.677        6.097        0.870      322.052       46.218        0.021      344.662       21.635      858.111
06/12/2014  00:05:00     -318.050      -40.060       -2.344      194.899      115.776       74.287    37985.695    13404.011     5518.523        7.983        2.845      320.563       85.635        0.071      344.699       21.698      858.107
06/12/2014  00:06:00     -364.282      -48.729      -13.301      150.929       97.397       65.016    22779.712     9486.230     4227.060        8.587        1.825      367.527       72.417        0.039      344.724       21.742      858.124
06/12/2014  00:07:00     -162.627        2.422        8.111      103.016       80.786       58.774    10612.231     6526.426     3454.344        2.355        1.030      162.645       42.459        0.068      344.703       21.707      858.093
06/12/2014  00:08:00     -238.541     -102.120       -7.685      129.398       90.557       60.376    16743.752     8200.499     3645.291        4.798        1.429      259.481       58.797        0.051      344.654       21.623      858.061
06/12/2014  00:09:00     -400.907      -60.462      -18.947      136.859      130.353       66.644    18730.348    16991.819     4441.377       10.244        2.008      405.441       63.929        0.025      344.682       21.671      858.040
06/12/2014  00:10:00     -360.943     -113.956      -19.980      158.444      127.139       66.004    25104.412    16164.313     4356.588        9.464        2.281      378.505       80.423        0.045      344.701       21.703      858.006
06/12/2014  00:11:00     -462.539      -85.790      -22.943      160.469      105.378       64.886    25750.393    11104.553     4210.147       13.144        2.053      470.428       69.214        0.022      344.763       21.808      857.995
06/12/2014  00:12:00     -463.918      -56.396      -25.287      176.504      111.226       69.635    31153.714    12371.227     4848.992       13.370        2.419      467.334       79.063        0.029      344.757       21.799      857.971
06/12/2014  00:13:00     -340.692      -56.789      -15.101      161.946      140.442       72.683    26226.599    19724.005     5282.884        8.537        2.562      345.392       76.673        0.049      344.718       21.731      857.983
06/12/2014  00:14:00     -294.749      -40.817       -7.039      125.200       99.431       65.175    15674.986     9886.564     4247.829        5.920        1.490      297.562       69.847        0.055      344.676       21.659      857.987
06/12/2014  00:15:00     -321.745      -29.802       -4.188      158.178      125.983       71.066    25020.130    15871.642     5050.382        7.517        2.297      323.122       73.399        0.052      344.727       21.747      857.959
06/12/2014  00:16:00     -337.257      -72.853      -11.698      127.737      100.405       60.144    16316.789    10081.256     3617.350        7.460        1.501      345.036       56.520        0.027      344.681       21.669      857.954
06/12/2014  00:17:00     -468.893      -73.720      -28.294      167.765      106.055       78.766    28144.939    11247.665     6204.064       13.584        2.280      474.653       76.309        0.026      344.746       21.779      857.954
06/12/2014  00:18:00     -202.673      -58.071        4.456      135.189      103.902       62.112    18276.083    10795.714     3857.852        3.869        1.646      210.828       67.250        0.102      344.656       21.627      857.942
06/12/2014  00:19:00     -321.041     -113.745       -8.457      120.634      100.931       61.569    14552.495    10187.156     3790.762        7.230        1.427      340.596       67.055        0.039      344.635       21.590      857.927
06/12/2014  00:20:00     -369.935      -36.879      -17.097      163.755      142.378       65.644    26815.782    20271.521     4309.073        9.494        2.570      371.769       70.872        0.036      344.645       21.607      857.877
06/12/2014  00:21:00     -271.811     -125.858        3.500      131.717      105.946       64.430    17349.303    11224.492     4151.173        6.122        1.636      299.536       64.729        0.047      344.576       21.489      857.840
06/12/2014  00:22:00     -410.108     -107.232      -18.006      141.247      115.398       58.569    19950.686    13316.659     3430.272       10.835        1.835      423.896       58.565        0.019      344.621       21.565      857.880
06/12/2014  00:23:00     -179.562      -48.237       -6.292      112.379       90.474       53.640    12629.132     8185.583     2877.277        2.915        1.185      185.929       53.187        0.082      344.561       21.463      857.916
06/12/2014  00:24:00     -202.416      -56.933        2.949      119.239       99.030       53.247    14217.835     9806.852     2835.261        3.554        1.343      210.271       56.942        0.073      344.607       21.544      857.915
06/12/2014  00:25:00     -252.321      -23.991        6.702      166.337      118.618       74.004    27667.867    14070.177     5476.665        5.574        2.361      253.459       86.706        0.117      344.599       21.530      857.904
06/12/2014  00:26:00     -400.480      -74.040      -27.023      130.954      120.526       64.496    17149.033    14526.497     4159.772       10.121        1.792      407.267       55.078        0.018      344.618       21.560      857.897
06/12/2014  00:27:00     -249.535      -46.323        4.336      140.619       90.048       72.267    19773.622     8108.684     5222.589        4.876        1.655      253.798       83.998        0.110      344.576       21.490      857.905
06/12/2014  00:28:00     -266.091      -64.760        1.457      139.856      113.055       67.965    19559.682    12781.406     4619.208        5.597        1.848      273.858       78.529        0.082      344.592       21.517      857.908
06/12/2014  00:29:00     -342.596     -135.113      -17.990      132.282      101.804       59.664    17498.655    10364.125     3559.802        8.368        1.571      368.276       52.896        0.021      344.602       21.534      857.919
06/12/2014  00:30:00     -179.010      -68.029       -4.950       92.352       91.714       40.318     8528.969     8411.427     1625.581        2.763        0.928      191.500       40.588        0.045      344.564       21.469      857.928
06/12/2014  00:31:00     -202.021      -34.539      -16.330       80.398       95.055       51.400     6463.781     9035.428     2641.932        3.020        0.907      204.953       44.782        0.048      344.550       21.447      857.939
06/12/2014  00:32:00     -176.107      -44.425        5.137      101.186       94.899       56.708    10238.530     9005.769     3215.754        2.773        1.123      181.624       53.870        0.088      344.534       21.420      857.944
06/12/2014  00:33:00      -84.289      -39.140       10.988       93.118       89.841       49.898     8670.872     8071.431     2489.804        1.399        0.962       92.933       47.578        0.262      344.513       21.383      857.947
06/12/2014  00:34:00     -238.480     -117.296       -6.211      118.744       76.555       48.826    14100.140     5860.663     2383.998        4.650        1.117      265.765       57.351        0.047      344.597       21.526      857.980
06/12/2014  00:35:00     -105.894      -66.967        6.931      102.375       95.070       52.502    10480.611     9038.249     2756.460        1.901        1.114      125.292       38.454        0.094      344.628       21.578      857.987
06/12/2014  00:36:00     -227.014      -87.362       -2.666       97.879       77.523       53.885     9580.342     6009.782     2903.624        3.883        0.925      243.244       55.046        0.051      344.596       21.521      858.004
06/12/2014  00:37:00     -175.397     -161.317       -1.525       69.962       72.006       38.451     4894.619     5184.796     1478.491        3.417        0.578      238.301       35.195        0.022      344.659       21.629      857.995
06/12/2014  00:38:00     -203.144      -96.113        1.736       94.475       66.689       45.901     8925.596     4447.378     2106.900        3.299        0.774      224.734       43.902        0.038      344.601       21.532      857.977
06/12/2014  00:39:00     -177.799     -124.886       -5.542      100.664      101.114       59.141    10133.292    10223.972     3497.709        3.554        1.193      217.276       59.003        0.074      344.610       21.547      857.978
06/12/2014  00:40:00     -143.438      -70.995       10.896      129.654       52.174       35.152    16810.054     2722.178     1235.631        2.325        1.038      160.047       49.059        0.094      344.567       21.474      857.979
06/12/2014  00:41:00     -168.141      -91.626       -3.765      117.655       87.474       48.157    13842.611     7651.672     2319.100        3.024        1.191      191.486       40.889        0.046      344.567       21.475      857.980
06/12/2014  00:42:00     -116.613      -70.844        3.219      102.488       97.398       65.049    10503.849     9486.308     4231.342        2.142        1.211      136.446       61.817        0.205      344.592       21.520      857.992
06/12/2014  00:43:00     -206.818     -140.345        6.956      114.284      117.507       58.925    13060.859    13807.894     3472.201        4.642        1.517      249.941       60.955        0.059      344.598       21.525      858.011
06/12/2014  00:44:00     -112.186      -68.621        3.698       97.758       69.367       42.996     9556.685     4811.812     1848.641        1.676        0.811      131.508       38.544        0.086      344.539       21.428      858.022
06/12/2014  00:45:00     -231.416     -134.188       -7.832       83.812       66.643       44.280     7024.369     4441.235     1960.723        4.252        0.671      267.506       39.350        0.022      344.567       21.473      858.016
06/12/2014  00:46:00      -20.625      -77.420       -5.952       71.567       74.971       33.550     5121.862     5620.691     1125.628        0.916        0.593       80.120       26.472        0.109      344.524       21.405      858.002
06/12/2014  00:47:00      -16.897      -18.455       14.707       62.156       35.159       25.379     3863.391     1236.183      644.117        0.329        0.287       25.022       19.623        0.615      344.477       21.324      857.977
06/12/2014  00:48:00     -148.572      -43.223       -7.328       66.011       40.412       23.550     4357.515     1633.154      554.621        1.527        0.327      154.731       22.694        0.022      344.545       21.439      857.984
06/12/2014  00:49:00      -28.739       -2.678       20.861       34.697       51.115       26.615     1203.905     2612.724      708.354        0.290        0.226       28.864       26.944        0.871      344.463       21.299      857.983
06/12/2014  00:50:00      -51.396      -39.573        4.155       33.956       55.963       22.052     1153.017     3131.834      486.308        0.450        0.239       64.865       25.112        0.150      344.475       21.320      857.994
06/12/2014  00:51:00      -38.570      -49.174        9.208       57.990       47.870       30.854     3362.843     2291.506      951.939        0.530        0.330       62.496       30.843        0.244      344.306       21.032      858.018
06/12/2014  00:52:00      -24.732      -67.027      -12.928       31.588       36.941       19.873      997.823     1364.621      394.946        0.401        0.138       71.444       14.876        0.043      344.223       20.889      858.016
06/12/2014  00:53:00      -31.560      -23.387       18.575       49.621       32.736       20.324     2462.287     1071.645      413.052        0.292        0.197       39.281       20.621        0.276      344.028       20.556      858.020
06/12/2014  00:54:00      -52.192     -122.537       -5.761       26.785       44.408       20.275      717.436     1972.109      411.086        1.044        0.155      133.189       16.213        0.015      344.108       20.694      858.023
06/12/2014  00:55:00      -86.423      -51.465        1.484       55.574       46.578       31.597     3088.501     2169.483      998.347        0.819        0.313      100.586       25.303        0.063      343.997       20.504      858.052
06/12/2014  00:56:00      -49.736      -35.229        7.267       52.942       52.778       27.050     2802.817     2785.544      731.687        0.504        0.316       60.949       29.106        0.228      343.956       20.435      858.073
06/12/2014  00:57:00      -54.707      -12.185        6.412       33.642       31.049       20.630     1131.812      964.012      425.615        0.285        0.126       56.048       16.027        0.082      343.951       20.425      858.082
06/12/2014  00:58:00      -35.359       11.851      -12.387       49.317       25.728       22.533     2432.155      661.936      507.733        0.257        0.180       37.292       16.165        0.188      344.037       20.572      858.080
06/12/2014  00:59:00      109.629       62.257       -1.414       48.180       37.612       25.418     2321.295     1414.644      646.072        1.014        0.219      126.073       13.459        0.011      343.841       20.238      858.090
06/12/2014  01:00:00      124.505       74.166       20.859       60.375       35.156       44.126     3645.108     1235.965     1947.138        1.413        0.341      144.920       32.815        0.051      343.734       20.054      858.102
06/12/2014  01:01:00      168.429       88.167       15.039       37.902       35.427       30.780     1436.568     1255.101      947.409        2.000        0.182      190.110       15.264        0.006      343.715       20.021      858.127
06/12/2014  01:02:00      109.153       67.944       18.547       43.958       42.692       32.645     1932.313     1822.641     1065.728        1.085        0.241      128.572       21.867        0.029      343.747       20.075      858.149
06/12/2014  01:03:00       97.163       50.121       21.639       31.892       28.671       25.071     1017.084      822.032      628.554        0.744        0.123      109.329       21.596        0.039      343.630       19.879      858.179
06/12/2014  01:04:00       97.211       53.228       21.140       40.526       25.322       25.747     1642.389      641.211      662.922        0.784        0.147      110.830       25.015        0.051      343.546       19.733      858.203
06/12/2014  01:05:00      146.284       66.493        9.470       46.137       36.609       26.442     2128.654     1340.196      699.178        1.504        0.208      160.687       23.688        0.022      343.726       20.040      858.205
06/12/2014  01:06:00      132.702       60.914       12.217       42.787       24.123       25.124     1830.716      581.920      631.233        1.226        0.152      146.014       21.030        0.021      343.616       19.854      858.200
06/12/2014  01:07:00       84.404       46.895        8.622       38.705       29.871       19.036     1498.052      892.253      362.356        0.607        0.138       96.557       10.746        0.012      343.533       19.711      858.196
06/12/2014  01:08:00      137.892       74.005       29.493       36.941       26.403       29.309     1364.612      697.100      858.996        1.414        0.146      156.495       17.148        0.012      343.561       19.758      858.196
06/12/2014  01:09:00      114.713       32.516        6.017       63.527       57.964       40.245     4035.690     3359.850     1619.621        1.163        0.451      119.232       22.151        0.035      343.695       19.987      858.182
06/12/2014  01:10:00      107.482       72.503       32.833       48.713       33.031       31.469     2372.973     1091.065      990.289        1.117        0.223      129.649       17.886        0.019      343.571       19.776      858.167
06/12/2014  01:11:00       93.961       53.736       12.207       39.359       30.397       24.508     1549.105      923.984      600.644        0.747        0.154      108.241       15.368        0.020      343.587       19.804      858.181
06/12/2014  01:12:00       56.032       28.327       10.410       39.105       46.259       26.566     1529.189     2139.883      705.756        0.421        0.219       62.785       16.956        0.073      343.714       20.019      858.211
06/12/2014  01:13:00       37.144       -0.581        7.737       18.314       17.209       16.943      335.401      296.145      287.055        0.118        0.046       37.149        5.677        0.023      343.709       20.013      858.228
06/12/2014  01:14:00       44.284       30.745       30.291       31.590       22.529       23.733      997.910      507.558      563.263        0.295        0.103       53.911       17.788        0.109      343.601       19.827      858.210
06/12/2014  01:15:00       35.259       30.385       26.186       30.346       16.529       20.217      920.858      273.204      408.730        0.223        0.080       46.545       18.568        0.159      343.776       20.126      858.190
06/12/2014  01:16:00        8.288       23.940       33.240       14.172       18.182       12.315      200.832      330.596      151.649        0.121        0.034       25.334       12.364        0.238      343.708       20.010      858.184
06/12/2014  01:17:00       43.919       28.323       49.874       36.952       24.496       20.180     1365.422      600.038      407.243        0.380        0.119       52.260       19.735        0.143      343.696       19.990      858.191
06/12/2014  01:18:00       52.969      -44.350        2.672       28.972       36.005       24.295      839.367     1296.374      590.238        0.375        0.136       69.084       23.562        0.116      343.759       20.095      858.197
06/12/2014  01:19:00        9.019      -11.667       30.571       18.059       30.402       14.970      326.141      924.267      224.110        0.131        0.074       14.747       17.051        1.337      343.640       19.894      858.195
06/12/2014  01:20:00        5.530        9.991        2.069       14.134       16.423       11.600      199.778      269.703      134.555        0.037        0.030       11.419       10.478        0.842      343.569       19.772      858.178
06/12/2014  01:21:00       -1.616       21.245        5.399       21.649       15.584       20.551      468.684      242.870      422.356        0.081        0.057       21.306       14.856        0.486      343.645       19.902      858.168
06/12/2014  01:22:00       22.238       51.952       -6.330       21.470       19.411       10.645      460.970      376.799      113.324        0.209        0.048       56.511        9.580        0.029      343.767       20.109      858.164
06/12/2014  01:23:00       69.393       43.544       15.682       25.180       14.995       17.281      634.032      224.854      298.625        0.406        0.058       81.924       11.900        0.021      343.960       20.441      858.151
06/12/2014  01:24:00       76.117       31.986       16.003        6.576        6.482        7.495       43.247       42.022       56.173        0.361        0.007       82.565        3.967        0.002      344.036       20.570      858.148
06/12/2014  01:25:00       24.371        9.497        9.418       24.573       16.090       10.525      603.831      258.873      110.769        0.087        0.049       26.156        4.252        0.026      343.830       20.219      858.153
06/12/2014  01:26:00       23.202      -26.185        2.785       21.612       20.130       11.969      467.076      405.232      143.266        0.112        0.051       34.985       12.493        0.128      344.007       20.519      858.155
06/12/2014  01:27:00       38.843       29.546       24.311       24.409       20.358       15.825      595.776      414.459      250.435        0.212        0.063       48.803       12.613        0.067      343.694       19.986      858.141
06/12/2014  01:28:00       73.932       73.074       49.181       44.164       23.608       29.352     1950.490      557.353      861.531        0.830        0.168      103.951       29.001        0.078      343.721       20.033      858.122
06/12/2014  01:29:00       20.290       83.688       94.124       38.000       40.738       22.478     1443.993     1659.570      505.248        0.994        0.180       86.112       22.744        0.070      343.941       20.408      858.113
06/12/2014  01:30:00      120.216       64.055       25.642       38.966       40.762       27.057     1518.321     1661.519      732.079        1.156        0.196      136.216       21.662        0.025      344.055       20.603      858.123
06/12/2014  01:31:00       68.832       44.084       45.583       39.019       32.914       38.438     1522.501     1083.327     1477.486        0.642        0.204       81.739       26.406        0.104      343.846       20.245      858.123
06/12/2014  01:32:00       -2.010       50.998       70.098       24.823       34.751       26.738      616.197     1207.648      714.905        0.503        0.127       51.038       23.995        0.221      343.931       20.391      858.124
06/12/2014  01:33:00      -14.229       -3.915       23.041       14.549       22.130       15.441      211.668      489.721      238.413        0.084        0.047       14.758       11.618        0.620      343.877       20.298      858.133
06/12/2014  01:34:00      -47.634      -22.367       13.588       18.534       26.788       15.575      343.501      717.586      242.569        0.213        0.065       52.624       11.742        0.050      343.716       20.023      858.138
06/12/2014  01:35:00      -35.775      -30.328        5.396       22.746       21.934       21.606      517.389      481.097      466.836        0.185        0.073       46.900       13.858        0.087      343.711       20.016      858.133
06/12/2014  01:36:00      -40.033      -17.494        5.792       18.756       18.944       15.161      351.770      358.869      229.844        0.144        0.047       43.689       10.892        0.062      343.650       19.910      858.117
06/12/2014  01:37:00       -1.651      -10.136       -1.241       10.000       11.760        9.694       99.993      138.290       93.978        0.022        0.017       10.270        3.907        0.145      343.549       19.740      858.107
06/12/2014  01:38:00      -41.798      -18.917       -3.554       17.335       11.787        9.546      300.489      138.944       91.132        0.132        0.027       45.879        7.246        0.025      343.657       19.921      858.095
06/12/2014  01:39:00      -31.548      -27.389        3.700       16.647       12.316        8.208      277.138      151.677       67.365        0.113        0.025       41.779        8.141        0.038      343.639       19.891      858.086
06/12/2014  01:40:00        5.111      -27.726       -2.860       10.601        6.754        7.984      112.373       45.618       63.739        0.051        0.011       28.194        6.005        0.045      343.679       19.957      858.075
06/12/2014  01:41:00        7.532      -14.591       -2.771        8.680        7.362        7.590       75.340       54.192       57.611        0.023        0.009       16.420        4.969        0.092      343.754       20.085      858.061
06/12/2014  01:42:00      -29.278      -13.294       -4.247       25.448        5.696        5.669      647.588       32.444       32.137        0.088        0.036       32.155        9.199        0.082      343.742       20.068      858.040
06/12/2014  01:43:00      -65.704      -17.336       -5.908       18.777       14.569        9.164      352.594      212.248       83.987        0.265        0.032       67.952        8.265        0.015      343.497       19.650      858.045
06/12/2014  01:44:00      -44.805      -38.665       -1.673       31.568       17.207       13.330      996.507      296.077      177.691        0.249        0.074       59.181        5.037        0.007      343.296       19.307      858.060
06/12/2014  01:45:00      -48.894      -40.644       -4.431       26.156       10.830        9.986      684.115      117.284       99.727        0.248        0.045       63.581        4.039        0.004      343.316       19.344      858.076
06/12/2014  01:46:00      -50.365      -40.474        7.202       35.111       24.648       15.554     1232.763      607.509      241.913        0.315        0.104       64.613       14.870        0.053      343.362       19.419      858.076
06/12/2014  01:47:00      -45.236      -45.342        9.237       33.970       30.761       20.456     1153.941      946.243      418.463        0.335        0.126       64.048       15.762        0.061      343.446       19.563      858.073
06/12/2014  01:48:00       -0.232      -43.518        0.823       25.713       18.288       13.502      661.170      334.435      182.297        0.154        0.059       43.518        6.532        0.023      343.566       19.767      858.080
06/12/2014  01:49:00      -41.449      -76.715        1.780       44.568       31.176       22.903     1986.328      971.951      524.553        0.554        0.174       87.197       21.586        0.061      343.625       19.867      858.097
06/12/2014  01:50:00        9.124      -24.811       12.876       26.753       22.420       20.829      715.745      502.671      433.846        0.126        0.083       26.435       14.305        0.293      343.420       19.518      858.106
06/12/2014  01:51:00      -13.319      -16.909        6.339       36.990       20.119       16.247     1368.247      404.756      263.981        0.127        0.102       21.525       13.993        0.423      343.526       19.698      858.111
06/12/2014  01:52:00      -40.605      -36.487        1.002       37.854       21.697       21.336     1432.906      470.762      455.208        0.267        0.118       54.590       15.506        0.081      343.522       19.694      858.105
06/12/2014  01:53:00      -62.082      -73.381        3.202       44.589       56.133       21.632     1988.180     3150.862      467.949        0.743        0.280       96.120       21.222        0.049      343.520       19.688      858.097
06/12/2014  01:54:00      -65.598      -61.996        1.947       33.535       26.309       16.675     1124.583      692.155      278.052        0.512        0.105       90.259       21.201        0.055      343.392       19.471      858.075
06/12/2014  01:55:00      -29.236      -83.562       -6.708       33.812       27.483       14.843     1143.283      755.298      220.307        0.500        0.106       88.529       11.190        0.016      343.515       19.681      858.041
06/12/2014  01:56:00      -15.189       -9.813       10.864       21.888       22.271       14.154      479.092      495.996      200.338        0.081        0.059       18.083       14.618        0.654      343.427       19.530      858.015
06/12/2014  01:57:00       11.175       18.029        3.130       12.410        6.460        9.572      154.003       41.730       91.627        0.037        0.014       21.212        8.244        0.151      343.394       19.476      858.003
06/12/2014  01:58:00      -19.652       17.430       -0.332       15.095        9.104        5.313      227.846       82.876       28.227        0.051        0.017       26.268        5.165        0.039      343.497       19.651      858.007
06/12/2014  01:59:00      -55.591       -3.850       -7.243       16.941        8.709        8.126      287.007       75.849       66.039        0.179        0.021       55.724        7.854        0.020      343.424       19.525      858.026
06/12/2014  02:00:00      -79.776      -19.598       -6.382       14.811       22.184        7.711      219.362      492.138       59.454        0.378        0.039       82.148        3.568        0.002      342.960       18.736      858.037
06/12/2014  02:01:00     -101.600      -26.280       -6.178       35.824       29.841       19.135     1283.386      890.499      366.151        0.680        0.127      104.944       18.940        0.033      342.763       18.401      858.038
06/12/2014  02:02:00      -77.525      -24.992       -3.910       25.663       18.203       13.805      658.599      331.356      190.581        0.392        0.059       81.454       10.100        0.015      342.805       18.472      858.026
06/12/2014  02:03:00      -51.469      -10.250       -0.521       17.600       20.477        8.238      309.751      419.324       67.860        0.178        0.040       52.480        6.850        0.017      342.872       18.587      858.003
06/12/2014  02:04:00      -85.567       -1.463       -6.495       19.512       14.022       10.454      380.725      196.606      109.295        0.403        0.034       85.580        7.596        0.008      342.895       18.624      857.974
06/12/2014  02:05:00      -87.675      -33.602       -1.253       35.425       20.785       16.871     1254.928      432.011      284.643        0.539        0.099       93.893       16.535        0.031      342.738       18.358      857.965
06/12/2014  02:06:00     -147.580      -69.003       -8.281       24.894       21.791       21.312      619.688      474.839      454.215        1.408        0.077      162.915       15.594        0.009      342.677       18.254      857.978
06/12/2014  02:07:00     -144.045      -43.278       -6.743       37.699       40.377       22.563     1421.198     1630.294      509.085        1.311        0.178      150.406       20.959        0.019      342.560       18.054      857.983
06/12/2014  02:08:00     -110.295       34.146        0.546       60.118       39.936       33.999     3614.229     1594.922     1155.908        0.985        0.318      115.460       28.050        0.059      342.413       17.805      857.962
06/12/2014  02:09:00     -114.061       25.337       -9.276       45.197       48.293       21.850     2042.739     2332.179      477.426        0.929        0.243      116.841       13.972        0.014      342.553       18.044      857.943
06/12/2014  02:10:00      -51.582      -35.778       -5.794       36.654       29.182       17.444     1343.506      851.600      304.287        0.324        0.125       62.775       12.215        0.038      342.537       18.017      857.944
06/12/2014  02:11:00      -65.475      -44.629       -7.776       62.962       30.705       23.075     3964.270      942.812      532.445        0.589        0.272       79.238       13.990        0.031      342.514       17.977      857.969
06/12/2014  02:12:00      -75.878      -29.762        2.822       42.383       34.861       18.303     1796.340     1215.300      335.004        0.500        0.167       81.506       22.796        0.078      342.437       17.846      857.990
06/12/2014  02:13:00      -20.895      -20.568        3.836       18.850        8.945       10.392      355.306       80.015      107.995        0.071        0.027       29.320        7.798        0.071      342.510       17.972      857.974
06/12/2014  02:14:00      -35.447      -22.566       -1.847       17.502       14.139       14.226      306.322      199.901      202.380        0.124        0.035       42.020       11.959        0.081      342.764       18.401      857.926
06/12/2014  02:15:00      -75.346       29.872       -5.607       30.305       19.955       13.736      918.415      398.212      188.679        0.405        0.075       81.051        8.754        0.012      342.579       18.087      857.876
06/12/2014  02:16:00     -113.020      -36.829       -9.330       37.231       44.104       15.071     1386.172     1945.181      227.132        0.889        0.178      118.869       18.410        0.024      342.561       18.057      857.863
06/12/2014  02:17:00      -77.794        4.976        6.710       47.043       44.594       23.063     2213.060     1988.617      531.897        0.543        0.237       77.953       14.591        0.035      342.448       17.865      857.861
06/12/2014  02:18:00      -86.766        3.634       -4.505       30.284       48.212       17.721      917.113     2324.414      314.041        0.556        0.178       86.842       14.861        0.029      342.439       17.848      857.859
06/12/2014  02:19:00       -1.324      -62.365       -6.219       33.787       28.109       23.624     1141.546      790.103      558.105        0.321        0.124       62.379       12.061        0.037      342.528       18.001      857.923
06/12/2014  02:20:00       13.146      -61.038        7.847       21.489       26.338       19.370      461.764      693.697      375.198        0.275        0.077       62.437       16.236        0.068      342.414       17.808      857.969
06/12/2014  02:21:00      -13.161       11.255        6.779       11.681       12.441       10.359      136.443      154.770      107.318        0.037        0.020       17.317        6.026        0.121      342.471       17.902      857.945
06/12/2014  02:22:00      -22.732       88.132       -7.818       15.548       38.564       18.338      241.738     1487.203      336.271        0.520        0.103       91.016       23.137        0.065      342.561       18.057      857.866
06/12/2014  02:23:00      -88.010       70.575      -17.050       22.478       22.319       14.431      505.260      498.122      208.253        0.711        0.061      112.812       11.794        0.011      342.488       17.933      857.823
06/12/2014  02:24:00     -118.976       54.982      -15.441       39.573       30.809       26.011     1566.039      949.168      676.590        1.030        0.160      131.066       22.125        0.028      342.285       17.588      857.837
06/12/2014  02:25:00     -129.179        4.665      -20.359       28.107       47.023       22.941      790.027     2211.133      526.269        1.032        0.176      129.264        9.770        0.006      342.281       17.580      857.858
06/12/2014  02:26:00     -112.675      -57.580      -16.478       30.918       29.657       20.989      955.937      879.556      440.525        0.928        0.114      126.535       14.692        0.013      342.219       17.475      857.886
06/12/2014  02:27:00     -110.408       -5.749       -4.998       29.594       20.416       16.360      875.815      416.814      267.660        0.690        0.078      110.557       14.833        0.018      342.073       17.229      857.879
06/12/2014  02:28:00     -130.450       20.152      -11.789       29.701       23.708       20.865      882.157      562.086      435.354        0.972        0.094      131.998       15.857        0.014      342.061       17.205      857.852
06/12/2014  02:29:00      -87.395      -18.686       -0.960       26.898       35.575       13.481      723.518     1265.605      181.726        0.508        0.109       89.370        9.864        0.012      342.079       17.237      857.832
06/12/2014  02:30:00     -115.235      -37.478       -8.002       30.100       41.359       17.382      905.988     1710.577      302.128        0.883        0.146      121.177       15.407        0.016      342.145       17.350      857.851
06/12/2014  02:31:00     -149.779      -26.837      -11.315       38.266       23.988       19.382     1464.274      575.446      375.648        1.285        0.121      152.164       17.224        0.013      342.072       17.227      857.859
06/12/2014  02:32:00      -84.573       -3.267       -5.173       29.409       23.853       18.074      864.887      568.945      326.682        0.447        0.088       84.636       18.884        0.050      342.063       17.210      857.829
06/12/2014  02:33:00     -119.341       39.835      -10.466       45.320       24.268       17.306     2053.893      588.918      299.492        0.944        0.147      125.813       13.738        0.012      342.135       17.332      857.769
06/12/2014  02:34:00     -100.856       24.040      -10.100       31.103       42.309       26.708      967.414     1790.062      713.314        0.716        0.174      103.682       19.670        0.036      342.227       17.488      857.744
06/12/2014  02:35:00     -142.765      -78.089      -12.313       34.073       23.142       21.869     1160.983      535.542      478.243        1.440        0.109      162.726       19.867        0.015      342.160       17.375      857.788
06/12/2014  02:36:00     -120.141        7.064       -9.811       45.974       26.122       18.527     2113.640      682.334      343.241        0.886        0.157      120.348       21.207        0.031      342.101       17.275      857.819
06/12/2014  02:37:00     -115.906       20.589       -4.862       30.307       23.503       18.547      918.516      552.407      344.007        0.785        0.091      117.720       14.739        0.016      342.048       17.184      857.791
06/12/2014  02:38:00      -99.496       45.080       -5.393       42.263       20.684       20.402     1786.129      427.830      416.252        0.729        0.132      109.232       17.048        0.024      342.056       17.199      857.736
06/12/2014  02:39:00      -73.852       41.160       -9.963       19.828       22.453       12.415      393.137      504.126      154.138        0.415        0.053       84.547        8.166        0.009      342.500       17.952      857.722
06/12/2014  02:40:00      -74.664       19.634       -9.662       28.549       28.835       20.977      815.030      831.449      440.036        0.407        0.104       77.203       11.913        0.024      342.375       17.741      857.705
06/12/2014  02:41:00      -95.774      -31.560      -16.333       20.280       31.517       14.678      411.275      993.353      215.435        0.603        0.081      100.840        6.005        0.004      342.391       17.769      857.686
06/12/2014  02:42:00      -63.014      -31.846       -2.272       36.950       29.327       20.705     1365.302      860.101      428.683        0.382        0.133       70.604       11.383        0.026      342.181       17.410      857.710
06/12/2014  02:43:00      -99.608      -36.132       -5.945       32.959       25.098       12.740     1086.278      629.928      162.298        0.657        0.094      105.959        7.640        0.005      342.178       17.405      857.726
06/12/2014  02:44:00      -59.413      -46.317        0.937       36.525       29.986       17.232     1334.092      899.161      296.943        0.410        0.127       75.333       18.581        0.061      342.245       17.518      857.718
06/12/2014  02:45:00      -55.337      -35.042       -6.312       27.826       15.210       10.603      774.308      231.353      112.416        0.272        0.056       65.499        8.486        0.017      342.332       17.666      857.712
06/12/2014  02:46:00      -72.116      -11.985       -9.655       14.929       18.644        8.916      222.862      347.587       79.488        0.304        0.032       73.105        8.910        0.015      342.355       17.705      857.674
06/12/2014  02:47:00      -38.528       -0.478       -7.204       16.077       13.624       10.671      258.462      185.619      113.876        0.105        0.028       38.530       10.673        0.077      342.299       17.611      857.636
06/12/2014  02:48:00      -42.341        3.617       -5.265       16.571       21.441       10.830      274.599      459.718      117.292        0.134        0.043       42.496        9.592        0.051      342.367       17.726      857.645
06/12/2014  02:49:00      -69.459      -45.710        2.376       41.555       25.135       18.532     1726.831      631.769      343.418        0.481        0.135       83.150       21.492        0.067      342.268       17.557      857.673
06/12/2014  02:50:00      -72.261      -10.252       -1.674       14.518       20.673       12.631      210.759      427.392      159.549        0.306        0.040       72.984        7.495        0.011      342.335       17.671      857.688
06/12/2014  02:51:00      -30.896      -60.774        0.222       48.370       25.050       17.916     2339.634      627.509      320.993        0.397        0.164       68.177       16.056        0.055      342.325       17.655      857.718
06/12/2014  02:52:00       13.494      -30.257        2.948       10.652       39.908       13.894      113.461     1592.617      193.038        0.150        0.095       33.130       17.336        0.274      342.643       18.196      857.694
06/12/2014  02:53:00       -6.574       25.123       41.013       15.446       18.670       14.611      238.593      348.551      213.468        0.158        0.040       25.969       11.246        0.188      342.440       17.851      857.631
06/12/2014  02:54:00      -47.517      -23.219        5.862       48.821       19.798       12.156     2383.460      391.962      147.767        0.288        0.146       52.886       16.345        0.096      342.577       18.085      857.655
06/12/2014  02:55:00      -45.984      -47.482        1.837       46.425       26.652       17.512     2155.277      710.314      306.659        0.377        0.159       66.099        9.931        0.023      342.547       18.034      857.692
06/12/2014  02:56:00      -52.770      -37.997        3.665       35.430       32.696       17.218     1255.291     1069.013      296.453        0.343        0.131       65.027       17.080        0.069      342.710       18.310      857.673
06/12/2014  02:57:00      -23.189       -9.675        0.013       15.790       24.404        9.090      249.326      595.536       82.637        0.078        0.046       25.127        8.172        0.106      342.751       18.379      857.611
06/12/2014  02:58:00       13.882      101.881      -15.980       29.334       26.138       15.807      860.491      683.179      249.866        0.631        0.090      102.823       18.867        0.034      342.652       18.211      857.518
06/12/2014  02:59:00      -50.203        5.405      -17.932       34.585       49.600       16.050     1196.111     2460.171      257.598        0.339        0.196       50.493       13.289        0.069      342.749       18.379      857.524
06/12/2014  03:00:00      -81.887      -17.913        0.324       24.268       19.917       13.599      588.917      396.679      184.939        0.410        0.059       83.823        8.347        0.010      342.566       18.064      857.576
06/12/2014  03:01:00      -12.548       -9.303        1.227       17.100       10.697       11.860      292.405      114.425      140.658        0.040        0.027       15.620        8.659        0.307      342.488       17.933      857.570
06/12/2014  03:02:00      -18.891      -23.017        8.582       30.606       17.767       13.766      936.707      315.661      189.494        0.120        0.072       29.776       14.391        0.234      342.615       18.148      857.585
06/12/2014  03:03:00      -17.282      -22.448       11.889       31.994       20.614       15.744     1023.641      424.918      247.873        0.132        0.085       28.330       15.373        0.294      342.594       18.113      857.612
06/12/2014  03:04:00       -6.229      -19.748        4.034       21.412       16.391        8.857      458.479      268.677       78.448        0.063        0.040       20.707       11.729        0.321      342.624       18.163      857.577
06/12/2014  03:05:00       19.236       12.200        3.439       11.303       14.796       12.158      127.753      218.909      147.823        0.051        0.025       22.779        8.239        0.131      342.546       18.031      857.540
06/12/2014  03:06:00      -65.205      -20.938       -7.872       54.877       24.553       10.019     3011.464      602.846      100.375        0.423        0.186       68.484       15.336        0.050      342.661       18.226      857.552
06/12/2014  03:07:00     -105.575      -69.757       -0.845       54.298       25.034       18.169     2948.305      626.718      330.121        0.996        0.195      126.539       12.193        0.009      342.581       18.089      857.582
06/12/2014  03:08:00       -8.304      -56.769       14.085       28.263       38.542       17.523      798.790     1485.463      307.048        0.304        0.130       57.373        6.172        0.012      342.607       18.135      857.597
06/12/2014  03:09:00      -46.487      -27.027       -5.942       20.112       33.561       10.979      404.494     1126.314      120.528        0.229        0.083       53.773        8.208        0.023      342.624       18.165      857.568
06/12/2014  03:10:00      -53.109      -40.870       -2.748       35.514       32.155       20.715     1261.222     1033.974      429.113        0.361        0.136       67.015       10.553        0.025      342.652       18.210      857.550
06/12/2014  03:11:00      -27.779      -40.096        5.140       36.281       33.447       14.322     1316.298     1118.688      205.117        0.252        0.132       48.779       16.445        0.114      342.587       18.102      857.556
06/12/2014  03:12:00      -19.389       -2.599       -4.200       27.080       23.559       15.387      733.309      555.041      236.766        0.096        0.076       19.562       10.518        0.289      342.624       18.162      857.529
06/12/2014  03:13:00      -43.880        6.934        2.525       19.496       18.175       15.617      380.100      330.319      243.880        0.147        0.048       44.425        9.569        0.046      342.592       18.109      857.490
06/12/2014  03:14:00      -64.056      -12.469       -7.294       15.795       23.166       12.742      249.471      536.681      162.360        0.263        0.047       65.258        7.587        0.014      342.637       18.184      857.479
06/12/2014  03:15:00      -65.760       -2.646       -8.534       15.947       22.219        9.646      254.306      493.683       93.037        0.262        0.042       65.813        8.320        0.016      342.714       18.316      857.477
06/12/2014  03:16:00      -13.894      -48.881        7.974       32.412       27.674       21.170     1050.535      765.864      448.177        0.245        0.113       50.817       17.723        0.122      342.643       18.195      857.515
06/12/2014  03:17:00      -37.157      -21.832        1.837       18.179       15.182       11.830      330.471      230.506      139.956        0.128        0.035       43.096       10.909        0.064      342.618       18.153      857.496
06/12/2014  03:18:00      -44.166      -20.875        4.378       28.380       12.078        9.222      805.449      145.882       85.041        0.172        0.052       48.851        5.712        0.014      342.647       18.201      857.478
06/12/2014  03:19:00      -55.270      -31.596       -2.751       13.772       15.787       12.201      189.667      249.225      148.859        0.232        0.029       63.664        3.923        0.004      342.616       18.151      857.471
06/12/2014  03:20:00      -24.403      -36.350        4.881       34.134       19.407       15.421     1165.154      376.621      237.805        0.186        0.089       43.782       15.105        0.119      342.602       18.126      857.477
06/12/2014  03:21:00      -27.868      -46.113       -2.787       20.298       30.361       12.011      412.022      921.769      144.276        0.219        0.074       53.880        7.208        0.018      342.652       18.209      857.477
06/12/2014  03:22:00       -2.691      -19.705        4.673       15.888       11.501       10.255      252.441      132.282      105.160        0.045        0.024       19.888        9.381        0.222      342.640       18.191      857.458
06/12/2014  03:23:00      -43.536       -5.412       -0.891       14.696       13.220        7.610      215.985      174.768       57.908        0.119        0.022       43.871        8.507        0.038      342.788       18.442      857.414
06/12/2014  03:24:00      -64.074       -0.579       -4.597       10.100        9.988        7.953      102.011       99.768       63.247        0.220        0.013       64.077        7.102        0.012      342.717       18.321      857.396
06/12/2014  03:25:00      -23.905      -23.977       -2.650       17.465       12.740        8.243      305.029      162.299       67.945        0.084        0.027       33.857        6.929        0.042      342.619       18.154      857.414
06/12/2014  03:26:00      -22.806      -33.431      -12.708       19.740       20.340        9.486      389.669      413.717       89.978        0.135        0.045       40.469        7.482        0.034      342.515       17.979      857.443
06/12/2014  03:27:00      -12.548        8.070        3.114       20.042       13.843       14.370      401.691      191.642      206.485        0.052        0.040       14.919       12.257        0.675      342.453       17.873      857.426
06/12/2014  03:28:00        7.849        4.348        9.635       15.999        6.424        7.162      255.983       41.262       51.301        0.026        0.017        8.973        4.845        0.292      342.455       17.874      857.408
06/12/2014  03:29:00       13.598        3.602        5.067       18.422        8.576       10.281      339.365       73.544      105.700        0.037        0.026       14.067        4.810        0.117      342.541       18.023      857.422
06/12/2014  03:30:00        9.517       33.393       27.736       23.579       18.898       19.817      555.985      357.118      392.698        0.164        0.065       34.723       17.501        0.254      342.361       17.717      857.434
06/12/2014  03:31:00       45.051       57.055       47.891       22.930       18.544       18.336      525.782      343.877      336.205        0.439        0.060       72.697       14.117        0.038      342.493       17.941      857.426
06/12/2014  03:32:00       31.078       26.921       22.777       15.611       12.534       13.502      243.697      157.098      182.306        0.140        0.029       41.117        9.876        0.058      342.558       18.051      857.424
06/12/2014  03:33:00       -0.207        6.523        6.875       13.475       27.596        7.029      181.568      761.520       49.413        0.054        0.050        6.526        8.643        1.754      342.510       17.971      857.430
06/12/2014  03:34:00      -18.795      -24.690        0.227        9.579       10.880        7.671       91.759      118.382       58.843        0.062        0.013       31.030        5.690        0.034      342.649       18.205      857.427
06/12/2014  03:35:00       -3.391      -54.098       -9.467       18.302       32.650       16.570      334.981     1066.034      274.569        0.235        0.084       54.204        7.601        0.020      342.796       18.456      857.417
06/12/2014  03:36:00      -35.606      -38.961       -1.040       21.064       26.940       14.195      443.697      725.744      201.500        0.208        0.069       52.780        8.568        0.026      342.695       18.285      857.398
06/12/2014  03:37:00      -21.182      -16.668        7.586       20.148       27.965       13.848      405.928      782.027      191.780        0.108        0.069       26.954        8.745        0.105      342.619       18.157      857.385
06/12/2014  03:38:00      -26.191        0.254       -2.569        7.440        8.203        4.719       55.361       67.289       22.273        0.042        0.007       26.193        3.824        0.021      342.489       17.934      857.373
06/12/2014  03:39:00      -37.732       -2.327       -3.107        5.808        8.089        5.982       33.735       65.436       35.790        0.079        0.007       37.804        1.963        0.003      342.500       17.952      857.368
06/12/2014  03:40:00      -21.040        5.242       -3.742       13.595        6.041        7.316      184.834       36.490       53.526        0.038        0.014       21.683        4.802        0.049      342.508       17.969      857.378
06/12/2014  03:41:00       24.646       24.378       14.464       12.625       14.810       15.308      159.402      219.326      234.344        0.101        0.031       34.666       14.349        0.171      342.565       18.064      857.385
06/12/2014  03:42:00       13.962       41.193       40.836       16.987       17.250       12.242      288.549      297.578      149.867        0.215        0.037       43.495       10.019        0.053      342.488       17.932      857.382
06/12/2014  03:43:00       31.913       38.476       11.682       27.433       23.309       32.867      752.545      543.310     1080.220        0.251        0.119       49.988       22.564        0.204      342.281       17.579      857.373
06/12/2014  03:44:00       22.799       17.975       -2.004       33.729       22.834       17.179     1137.676      521.371      295.130        0.140        0.098       29.033       14.902        0.263      342.019       17.135      857.351
06/12/2014  03:45:00       -0.976       77.105      -17.680       16.144       15.565        8.252      260.632      242.273       68.099        0.341        0.029       77.112        3.834        0.002      341.957       17.031      857.351
06/12/2014  03:46:00      -21.607       34.178       -2.389       16.930       35.113       15.934      286.629     1232.906      253.892        0.171        0.089       40.435       19.454        0.231      342.025       17.146      857.373
06/12/2014  03:47:00       41.279       30.194       -0.577       22.179       12.204       11.631      491.909      148.946      135.286        0.170        0.039       51.143        9.207        0.032      342.174       17.399      857.378
06/12/2014  03:48:00       84.992       56.768        8.038       28.634       16.257       20.542      819.932      264.292      421.966        0.601        0.075      102.207       19.565        0.037      342.260       17.545      857.373
06/12/2014  03:49:00       48.290       38.395       23.947       26.686       19.503       21.627      712.145      380.365      467.740        0.297        0.078       61.694       16.037        0.068      342.329       17.661      857.357
06/12/2014  03:50:00       15.936       26.260        0.490       17.901        7.059        6.672      320.448       49.827       44.510        0.068        0.021       30.717        9.062        0.087      342.405       17.793      857.353
06/12/2014  03:51:00       20.930       -5.617       -7.744       20.403       22.712       13.901      416.276      515.837      193.234        0.083        0.056       21.671       13.387        0.382      342.285       17.587      857.347
06/12/2014  03:52:00       14.171        3.584        7.638        9.954       12.189        7.702       99.077      148.577       59.327        0.029        0.015       14.617        2.442        0.028      342.333       17.670      857.324
06/12/2014  03:53:00       22.540       44.199       -2.669       10.070       15.749        9.273      101.396      248.023       85.983        0.145        0.022       49.615        9.415        0.036      342.420       17.818      857.308
06/12/2014  03:54:00        6.055       48.422       -7.912       10.539       19.956        7.530      111.075      398.230       56.702        0.150        0.028       48.799        8.057        0.027      342.439       17.850      857.304
06/12/2014  03:55:00        2.934       63.634       -7.794        8.244       14.212        4.104       67.958      201.991       16.844        0.220        0.014       63.701        2.963        0.002      342.650       18.208      857.316
06/12/2014  03:56:00      -20.854        2.391       -6.603       18.175       20.571        8.616      330.334      423.177       74.235        0.066        0.041       20.990        7.823        0.139      342.555       18.046      857.319
06/12/2014  03:57:00      -42.388       -9.556       -8.926       10.080        7.276        7.610      101.610       52.942       57.914        0.109        0.011       43.452        1.509        0.001      342.436       17.843      857.321
06/12/2014  03:58:00      -38.938      -13.390       -7.579       13.421        9.679        5.598      180.112       93.680       31.339        0.103        0.015       41.176        4.683        0.013      342.398       17.780      857.323
06/12/2014  03:59:00      -57.846      -21.457       -6.596       10.693        9.470        7.044      114.344       89.690       49.621        0.205        0.013       61.697        5.469        0.008      342.362       17.719      857.332
06/12/2014  04:00:00      -14.597      -18.108        1.677       28.256       16.940       13.824      798.378      286.964      191.111        0.091        0.064       23.259       13.635        0.344      342.335       17.674      857.336
06/12/2014  04:01:00       -2.022      -33.601       -9.658       15.540       17.829       11.085      241.487      317.872      122.885        0.095        0.034       33.662        8.736        0.067      342.406       17.794      857.332
06/12/2014  04:02:00       45.951      -44.662       -0.798       31.190       27.542       27.076      972.815      758.555      733.111        0.329        0.123       64.080       23.837        0.138      342.157       17.370      857.325
06/12/2014  04:03:00       34.998      -14.887       13.796       33.296       35.559       25.150     1108.647     1264.414      632.512        0.232        0.150       38.033       22.382        0.346      341.984       17.077      857.312
06/12/2014  04:04:00       27.019       14.825       20.835       28.689       37.065       21.844      823.071     1373.808      477.141        0.203        0.134       30.819       15.333        0.248      342.080       17.240      857.286
06/12/2014  04:05:00       30.344       26.273        1.308       27.710       18.739       12.640      767.860      351.132      159.779        0.145        0.064       40.137        5.104        0.016      342.185       17.419      857.266
06/12/2014  04:06:00       31.986       16.579       -6.872       23.183       14.032       16.239      537.454      196.899      263.698        0.117        0.050       36.028       15.591        0.187      342.231       17.497      857.272
06/12/2014  04:07:00        6.636      -32.205       -8.998       21.655       27.527       13.145      468.947      757.719      172.781        0.128        0.070       32.882       10.037        0.093      342.162       17.379      857.296
06/12/2014  04:08:00        3.881      -48.626        0.477       12.508       15.290       15.059      156.455      233.797      226.777        0.150        0.031       48.780        4.001        0.007      342.378       17.746      857.309
06/12/2014  04:09:00      -22.172      -21.750       -4.294       28.647       18.256       12.820      820.674      333.288      164.349        0.115        0.066       31.059       11.327        0.133      342.439       17.850      857.308
06/12/2014  04:10:00      -97.470      -23.285      -13.236       14.007       12.847       10.447      196.196      165.055      109.149        0.534        0.024      100.212        8.908        0.008      342.195       17.436      857.303
06/12/2014  04:11:00      -79.719       -1.904      -10.937       36.904       23.214       18.282     1361.870      538.885      334.229        0.436        0.112       79.742       20.278        0.065      342.359       17.712      857.293
06/12/2014  04:12:00      -87.652      -11.596       -8.672       25.062       16.633       14.509      628.088      276.650      210.514        0.450        0.056       88.416        9.528        0.012      342.319       17.647      857.295
06/12/2014  04:13:00      -22.980      -28.376        3.563       25.008       16.735       13.638      625.377      280.054      186.002        0.122        0.055       36.514       12.476        0.117      342.237       17.506      857.295
06/12/2014  04:14:00        0.606       -5.340       15.276       13.727       17.235       11.815      188.422      297.057      139.604        0.044        0.031        5.374        7.333        1.862      342.138       17.338      857.290
06/12/2014  04:15:00        4.387       -3.544       -4.252       11.902       12.943        9.870      141.656      167.526       97.407        0.023        0.020        5.640        9.473        2.821      342.224       17.484      857.280
06/12/2014  04:16:00       24.760      -22.620        4.221       22.692       13.294       11.842      514.945      176.722      140.237        0.099        0.042       33.537        5.322        0.025      342.331       17.667      857.263
06/12/2014  04:17:00       37.270       -0.270       -0.815       15.142       25.053       22.197      229.278      627.651      492.692        0.137        0.067       37.271        9.823        0.069      342.295       17.603      857.249
06/12/2014  04:18:00       30.226        3.282        5.129       19.807       15.697       17.829      392.322      246.388      317.858        0.095        0.048       30.404       14.354        0.223      342.203       17.449      857.251
06/12/2014  04:19:00       36.862      -17.498       -6.048       17.149       32.206       22.667      294.097     1037.236      513.795        0.177        0.092       40.804       17.087        0.175      342.198       17.440      857.257
06/12/2014  04:20:00       22.284      -25.139       -1.566       15.230       11.808       16.088      231.959      139.434      258.837        0.088        0.032       33.594        8.852        0.069      342.131       17.327      857.271
06/12/2014  04:21:00        6.919      -20.207        9.833        9.373       13.923        9.968       87.859      193.855       99.362        0.047        0.019       21.359        8.436        0.156      342.099       17.272      857.289
06/12/2014  04:22:00      -43.300      -14.619        3.144       35.334       14.813       12.882     1248.516      219.437      165.947        0.187        0.082       45.701       12.028        0.069      342.013       17.127      857.306
06/12/2014  04:23:00      -78.287        6.851       -7.878       21.053       17.249       13.475      443.238      297.519      181.568        0.358        0.046       78.586       10.091        0.016      342.140       17.341      857.318
06/12/2014  04:24:00      -74.344        2.982      -12.749       25.186       17.183       15.362      634.342      295.257      235.979        0.343        0.058       74.404       14.249        0.037      342.135       17.332      857.304
06/12/2014  04:25:00      -13.823      -10.029       -4.249       13.818       16.587        9.428      190.931      275.143       88.891        0.043        0.028       17.078        6.222        0.133      342.028       17.152      857.299
06/12/2014  04:26:00       -9.608      -53.386       -3.582       30.351       25.386       18.803      921.181      644.455      353.551        0.244        0.096       54.244       13.326        0.060      342.097       17.270      857.308
06/12/2014  04:27:00       46.047      -60.538      -13.263       38.004       24.222       25.808     1444.330      586.698      666.049        0.433        0.135       76.060       12.571        0.027      341.957       17.031      857.312
06/12/2014  04:28:00       32.825      -37.172       -4.063       27.669       28.635       21.401      765.576      819.983      457.988        0.226        0.102       49.591       19.549        0.155      341.969       17.052      857.311
06/12/2014  04:29:00       13.776        0.019        7.455       27.324       15.604       17.484      746.622      243.483      305.698        0.077        0.065       13.776        8.109        0.346      341.937       16.996      857.318
06/12/2014  04:30:00       12.193      -10.438       14.206       22.135       32.650       20.778      489.942     1066.017      431.718        0.122        0.099       16.051       23.807        2.200      341.919       16.966      857.319
06/12/2014  04:31:00       29.793      -31.988        3.002       12.654       18.299       14.632      160.122      334.859      214.092        0.131        0.035       43.713        9.235        0.045      342.221       17.480      857.305
06/12/2014  04:32:00       11.993       -6.178      -12.362       24.429       22.050       16.459      596.757      486.211      270.905        0.084        0.068       13.490       10.329        0.586      342.047       17.183      857.288
06/12/2014  04:33:00       19.913       -4.635      -25.499       12.128       28.217       14.639      147.081      796.202      214.288        0.111        0.058       20.445       12.018        0.346      342.064       17.212      857.275
06/12/2014  04:34:00       20.099       10.209        3.988       12.002       12.935        9.994      144.041      167.322       99.886        0.047        0.021       22.544        6.584        0.085      342.288       17.594      857.282
06/12/2014  04:35:00       40.733       27.702        2.426       11.254       15.423       15.546      126.649      237.879      241.674        0.152        0.030       49.260        3.571        0.005      342.592       18.109      857.289
06/12/2014  04:36:00       32.694        3.713      -15.973       17.713       36.221       18.618      313.752     1311.972      346.614        0.165        0.099       32.905       10.819        0.108      342.271       17.562      857.298
06/12/2014  04:37:00       16.131       -5.571       -6.180       17.771       17.930       16.549      315.818      321.500      273.868        0.062        0.046       17.066       15.897        0.868      342.399       17.782      857.294
06/12/2014  04:38:00       -7.475       -5.639       -1.569       13.152       22.755       14.857      172.988      517.786      220.725        0.050        0.046        9.364        8.332        0.792      342.269       17.559      857.280
06/12/2014  04:39:00       -5.509       -9.101        2.768       15.325       15.238        9.443      234.845      232.202       89.172        0.034        0.028       10.638        8.186        0.592      342.317       17.642      857.252
06/12/2014  04:40:00      -29.022      -13.246       -9.396       17.500       10.731        7.516      306.252      115.144       56.493        0.079        0.024       31.902        6.353        0.040      342.187       17.419      857.214
06/12/2014  04:41:00       24.308       -9.917        5.665       19.690       17.595       15.477      387.695      309.585      239.530        0.083        0.047       26.253        5.953        0.051      342.063       17.212      857.189
06/12/2014  04:42:00      -32.168        4.099       -8.509       16.648       14.735       12.673      277.158      217.130      160.614        0.089        0.033       32.429       11.811        0.133      342.261       17.547      857.162
06/12/2014  04:43:00      -47.844       37.337      -13.711       11.902       10.622        6.256      141.667      112.827       39.141        0.208        0.015       60.689        5.508        0.008      342.238       17.509      857.143
06/12/2014  04:44:00      -39.494       20.000      -13.632       17.186       28.379       11.330      295.365      805.358      128.379        0.169        0.061       44.269        7.430        0.028      342.279       17.576      857.148
06/12/2014  04:45:00      -97.248      -48.939      -14.340       28.446       18.123       19.039      809.157      328.460      362.491        0.678        0.075      108.868       15.853        0.021      341.836       16.824      857.171
06/12/2014  04:46:00      -95.616      -41.531      -12.542       58.126       26.098       25.208     3378.609      681.127      635.450        0.786        0.235      104.247       26.717        0.066      341.754       16.686      857.210
06/12/2014  04:47:00      -56.925      -45.056        0.795       30.229       21.571       19.743      913.766      465.326      389.778        0.352        0.088       72.598       15.960        0.048      341.901       16.935      857.233
06/12/2014  04:48:00      -88.486      -13.714      -14.449       30.337       18.107       13.190      920.342      327.855      173.968        0.482        0.071       89.543       15.363        0.029      342.069       17.220      857.225
06/12/2014  04:49:00     -128.341      -34.634      -15.699       22.879       24.337       15.493      523.461      592.280      240.021        0.964        0.068      132.932        8.975        0.005      342.048       17.185      857.209
06/12/2014  04:50:00     -134.074      -10.877      -16.332       21.885       22.060       16.639      478.954      486.654      276.846        0.980        0.062      134.514       11.905        0.008      341.922       16.971      857.204
06/12/2014  04:51:00      -23.288       24.095       10.185       44.430       23.656       26.003     1973.990      559.607      676.171        0.222        0.160       33.510       20.826        0.386      341.874       16.890      857.190
06/12/2014  04:52:00       25.209       26.427       -4.867       21.164       15.372       11.693      447.925      236.285      136.736        0.109        0.041       36.522        6.496        0.032      342.073       17.227      857.164
06/12/2014  04:53:00       29.590       30.389       -8.232       15.369       15.702       22.175      236.191      246.544      491.739        0.142        0.049       42.415        7.718        0.033      342.111       17.292      857.141
06/12/2014  04:54:00      -16.978       63.921       -9.886       27.093       24.677        8.793      734.054      608.938       77.312        0.295        0.071       66.137       12.162        0.034      342.457       17.880      857.122
06/12/2014  04:55:00       -7.452       94.927      -13.557       12.972       17.187        7.292      168.282      295.397       53.170        0.488        0.026       95.219        6.657        0.005      342.867       18.579      857.123
06/12/2014  04:56:00       10.349       -6.968       14.310       15.458       34.503       16.730      238.936     1190.485      279.881        0.103        0.085       12.476        9.993        0.642      342.287       17.591      857.150
06/12/2014  04:57:00       -5.468      -12.430       12.654       38.035       28.305       24.085     1446.695      801.191      580.098        0.159        0.141       13.580       21.821        2.582      342.066       17.215      857.171
06/12/2014  04:58:00      -95.665      -41.664       -5.380       33.908       27.182       18.022     1149.731      738.850      324.775        0.656        0.111      104.344       11.227        0.012      342.132       17.327      857.141
06/12/2014  04:59:00     -101.839      -64.048       -7.571       49.956       23.606       15.502     2495.639      557.249      240.298        0.891        0.165      120.306       12.374        0.011      341.923       16.972      857.142
06/12/2014  05:00:00     -114.259      -80.397       -0.216       49.484       37.483       23.416     2448.632     1404.979      548.332        1.196        0.220      139.710       24.379        0.030      342.011       17.122      857.135
06/12/2014  05:01:00      -67.197      -20.755       -3.786       32.242       26.087       12.502     1039.563      680.540      156.292        0.342        0.094       70.330       10.570        0.023      342.032       17.158      857.100
06/12/2014  05:02:00      -25.262       11.165        3.242       23.572       17.813       14.305      555.634      317.299      204.641        0.093        0.054       27.620       15.783        0.327      342.000       17.103      857.064
06/12/2014  05:03:00      -59.047       -5.556       -4.226       16.776       23.051       12.270      281.421      531.353      150.550        0.225        0.048       59.308        7.287        0.015      342.338       17.677      857.072
06/12/2014  05:04:00     -115.699      -49.446       -8.726       31.172       24.522       15.536      971.702      601.351      241.374        0.886        0.091      125.822        8.303        0.004      342.095       17.264      857.105
06/12/2014  05:05:00      -97.636      -71.228       -9.381       45.438       40.963       23.427     2064.622     1677.949      548.822        0.949        0.215      120.856       22.052        0.033      341.931       16.987      857.117
06/12/2014  05:06:00      -65.302      -60.366       -8.635       33.542       29.679       26.392     1125.086      880.866      696.559        0.534        0.135       88.929       17.812        0.040      341.947       17.013      857.119
06/12/2014  05:07:00      -57.457      -22.291       -0.507       31.722       15.632       10.295     1006.256      244.345      105.989        0.258        0.068       61.630       11.833        0.037      341.971       17.056      857.115
06/12/2014  05:08:00      -35.394       15.374       -0.131        8.181       14.647        5.964       66.922      214.523       35.569        0.090        0.016       38.589        6.894        0.032      342.562       18.059      857.082
06/12/2014  05:09:00       -2.798       40.743       11.738       13.059       19.690        9.522      170.533      387.687       90.664        0.123        0.032       40.839       10.969        0.072      342.889       18.615      857.040
06/12/2014  05:10:00      -30.151        7.398       -2.516       25.979       32.240       11.956      674.888     1039.391      142.955        0.141        0.093       31.046       18.595        0.359      342.906       18.644      857.030
06/12/2014  05:11:00     -100.216      -31.171      -14.947       23.930       12.889       10.126      572.625      166.117      102.539        0.604        0.042      104.952        7.909        0.006      342.079       17.237      857.037
06/12/2014  05:12:00     -132.292      -24.997      -17.639       18.416       17.837       15.552      339.144      318.173      241.865        0.967        0.045      134.633        5.180        0.001      342.026       17.148      857.061
06/12/2014  05:13:00      -90.863      -44.122      -13.658       25.691       27.357       13.510      660.036      748.420      182.514        0.599        0.080      101.009        6.308        0.004      342.009       17.120      857.069
06/12/2014  05:14:00      -70.439       -4.718      -12.250       14.290       13.491        8.665      204.217      181.994       75.086        0.280        0.023       70.597        4.793        0.005      342.147       17.353      857.058
06/12/2014  05:15:00       -3.049       32.340        8.956       32.917       24.274       28.612     1083.531      589.225      818.650        0.181        0.125       32.483       29.846        0.844      342.949       18.717      857.036
06/12/2014  05:16:00       35.439       33.432       33.996       26.172       16.522       23.259      684.953      272.970      540.969        0.251        0.075       48.720        5.223        0.011      342.502       17.956      857.020
06/12/2014  05:17:00       41.516        8.472       19.779       24.934       16.930       19.363      621.708      286.630      374.908        0.173        0.064       42.371       13.696        0.104      342.738       18.359      857.015
06/12/2014  05:18:00       52.716       -8.575        7.061       19.483       17.057       23.110      379.594      290.940      534.056        0.205        0.060       53.409        9.743        0.033      342.234       17.501      857.028
06/12/2014  05:19:00       70.139       24.440       -2.371       15.894       30.423       23.276      252.627      925.565      541.769        0.362        0.086       74.275        6.253        0.007      342.717       18.322      857.014
06/12/2014  05:20:00       47.816       26.662       12.363       34.699       23.419       17.537     1204.010      548.431      307.561        0.260        0.103       54.747       17.027        0.097      342.286       17.588      856.974
06/12/2014  05:21:00      -35.861      -14.104      -13.195       34.109       24.993       12.288     1163.424      624.642      150.993        0.180        0.097       38.535       13.035        0.114      342.242       17.515      856.984
06/12/2014  05:22:00     -153.852      -48.994      -21.666       27.515       31.516       16.260      757.062      993.277      264.394        1.428        0.101      161.465       13.684        0.007      341.841       16.834      857.026
06/12/2014  05:23:00      -95.352      -89.783        7.112       89.375       48.482       43.665     7987.967     2350.521     1906.642        1.472        0.612      130.969       45.039        0.118      341.801       16.765      857.061
06/12/2014  05:24:00     -113.457     -120.368       -3.138       58.934       45.795       28.394     3473.271     2097.176      806.212        1.687        0.319      165.411       15.902        0.009      342.098       17.269      857.086
06/12/2014  05:25:00      -49.866      -21.826        9.047       45.844       34.178       25.008     2101.704     1168.154      625.385        0.347        0.195       54.433        9.887        0.033      342.111       17.293      857.107
06/12/2014  05:26:00      -68.469      -40.799        3.623       67.060       41.407       32.003     4497.092     1714.502     1024.169        0.680        0.362       79.703       33.396        0.176      342.141       17.342      857.135
06/12/2014  05:27:00     -121.644      -73.281       -8.432       53.809       36.633       29.992     2895.413     1341.997      899.502        1.269        0.257      142.012       29.758        0.044      342.219       17.476      857.127
06/12/2014  05:28:00     -122.956      -80.921        1.782       57.214       43.252       24.745     3273.449     1870.714      612.319        1.371        0.288      147.195       28.197        0.037      342.228       17.491      857.084
06/12/2014  05:29:00     -116.196      -20.129       -6.252       22.639       30.851       14.678      512.545      951.769      215.453        0.781        0.084      117.927        9.004        0.006      342.154       17.365      857.047
06/12/2014  05:30:00     -139.048      -14.842      -19.089       32.457       20.553       19.667     1053.480      422.444      386.790        1.089        0.093      139.838       16.525        0.014      342.157       17.370      857.038
06/12/2014  05:31:00     -170.484      -81.218       -2.103       37.159       40.507       22.820     1380.777     1640.797      520.733        1.960        0.177      188.842       20.993        0.012      342.003       17.108      857.064
06/12/2014  05:32:00     -136.552      -65.337        0.410       61.730       44.376       27.880     3810.618     1969.213      777.296        1.473        0.328      151.378       28.237        0.035      342.029       17.152      857.088
06/12/2014  05:33:00     -105.334      -43.692       -1.458       47.544       30.945       18.356     2260.445      957.610      336.925        0.828        0.178      114.037       17.658        0.024      342.022       17.142      857.082
06/12/2014  05:34:00      -94.666      -11.538       -7.098       17.892       13.089       11.665      320.117      171.321      136.071        0.489        0.031       95.366        7.477        0.006      342.084       17.246      857.053
06/12/2014  05:35:00      -72.255      -37.492       -2.745       16.600       29.100       13.039      275.571      846.784      170.027        0.396        0.065       81.403       10.638        0.017      342.120       17.308      857.051
06/12/2014  05:36:00     -101.058      -10.020       -8.924       24.710       19.269       14.037      610.580      371.313      197.025        0.579        0.059      101.553       15.068        0.022      342.173       17.397      857.048
06/12/2014  05:37:00     -107.177      -47.979       -9.852       22.483       22.115       12.833      505.494      489.091      164.679        0.752        0.058      117.426       10.335        0.008      342.097       17.268      857.057
06/12/2014  05:38:00     -129.079      -57.068       -2.726       24.037       29.946       18.734      577.778      896.752      350.968        1.088        0.091      141.132       13.201        0.009      341.984       17.077      857.075
06/12/2014  05:39:00      -80.939        1.478       -7.470       29.514       24.684       13.125      871.094      609.298      172.273        0.413        0.083       80.953       13.387        0.027      341.982       17.073      857.059
06/12/2014  05:40:00      -56.595      -16.581       -3.142       21.411       14.622       13.001      458.422      213.802      169.036        0.216        0.042       58.974        9.466        0.026      342.126       17.319      857.072
06/12/2014  05:41:00      -75.059      -14.187       -1.263       13.135       16.090       13.396      172.538      258.876      179.451        0.322        0.031       76.388        9.507        0.015      342.128       17.322      857.104
06/12/2014  05:42:00      -81.073       -4.553       -4.721       20.746       17.602       11.119      430.407      309.843      123.640        0.374        0.043       81.200       10.582        0.017      342.241       17.512      857.104
06/12/2014  05:43:00      -58.646       -1.049       -4.879       22.207       26.785       13.396      493.162      717.455      179.459        0.243        0.070       58.655       10.912        0.035      342.273       17.567      857.103
06/12/2014  05:44:00      -86.168      -29.699       -8.470       10.920       10.453        5.935      119.239      109.260       35.222        0.432        0.013       91.143        3.910        0.002      342.225       17.485      857.103
06/12/2014  05:45:00      -85.417      -11.041      -10.135       20.163       26.740       11.705      406.566      715.047      137.005        0.439        0.063       86.128        4.293        0.002      342.110       17.289      857.070
06/12/2014  05:46:00      -88.424       64.348      -19.216       36.927       42.154       18.397     1363.572     1776.934      338.445        0.790        0.174      109.360       17.715        0.026      342.117       17.303      857.034
06/12/2014  05:47:00      -58.765       18.205       -3.485       26.875       26.865       15.041      722.284      721.720      226.240        0.273        0.084       61.521        9.852        0.026      342.131       17.325      857.037
06/12/2014  05:48:00      -34.700      -21.346       -5.174       25.939       14.241       12.865      672.853      202.805      165.515        0.136        0.052       40.740       10.499        0.066      341.986       17.080      857.032
06/12/2014  05:49:00      -23.574      -24.883        1.086       15.970       14.742       14.737      255.048      217.335      217.170        0.093        0.034       34.277        9.187        0.072      342.034       17.162      857.030
06/12/2014  05:50:00      -47.546       21.781       -8.686       40.812       20.659       16.955     1665.637      426.795      287.457        0.259        0.119       52.297       22.351        0.183      342.308       17.626      857.028
06/12/2014  05:51:00       15.529        2.575       12.502       16.359       13.176       20.667      267.630      173.596      427.142        0.064        0.043       15.741        8.842        0.316      342.072       17.227      857.069
06/12/2014  05:52:00       -3.246      -35.562       -8.142       22.407       28.619       19.029      502.092      819.054      362.098        0.151        0.084       35.710       15.880        0.198      342.183       17.415      857.147
06/12/2014  05:53:00      -36.649      -30.455       12.124       52.845       24.076       25.463     2792.616      579.634      648.364        0.322        0.201       47.652       32.555        0.467      342.171       17.395      857.188
06/12/2014  05:54:00      -21.943       16.684        7.485       34.753       13.819       13.894     1207.774      190.958      193.053        0.120        0.080       27.565       19.351        0.493      342.180       17.408      857.138
06/12/2014  05:55:00       -1.162       31.723        4.344       14.798       22.544       13.959      218.979      508.238      194.866        0.097        0.046       31.745       12.421        0.153      342.438       17.847      857.081
06/12/2014  05:56:00      -18.887       51.734       -1.325       22.334       13.694       10.156      498.790      187.537      103.147        0.191        0.039       55.074        9.756        0.031      343.178       19.105      857.077
06/12/2014  05:57:00     -101.842       29.387       -9.219       42.794       45.408       13.300     1831.367     2061.914      176.890        0.769        0.204      105.997       12.340        0.014      342.421       17.820      857.114
06/12/2014  05:58:00     -219.104      -22.614      -24.144       51.098       57.747       26.492     2610.989     3334.685      701.805        2.787        0.332      220.267       18.952        0.007      341.895       16.920      857.154
06/12/2014  05:59:00     -105.641       30.443       -9.558       44.849       64.717       27.972     2011.462     4188.302      782.457        0.958        0.349      109.940       10.618        0.009      342.200       17.442      857.149
06/12/2014  06:00:00      -66.763       35.587       -7.725       29.246       27.653       16.154      855.319      764.669      260.968        0.383        0.094       75.655        8.807        0.014      342.798       18.461      857.135
06/12/2014  06:01:00     -124.538      -43.739      -17.531       25.813       24.111       17.863      666.309      581.338      319.097        0.965        0.078      131.995       11.980        0.008      342.467       17.896      857.158
06/12/2014  06:02:00      -95.855      -10.507      -10.652       31.363       46.000       17.853      983.609     2115.988      318.740        0.641        0.171       96.429        6.756        0.005      342.386       17.758      857.174
06/12/2014  06:03:00      -50.561       16.846       -5.673       30.449       26.029       22.771      927.136      677.518      518.511        0.250        0.106       53.293       14.105        0.070      342.517       17.982      857.151
06/12/2014  06:04:00       -1.880        9.075        8.071       23.784       18.088       21.011      565.691      327.165      441.454        0.074        0.067        9.268       14.723        2.524      342.470       17.903      857.118
06/12/2014  06:05:00       59.882       63.191       11.929       37.994       22.622       18.291     1443.510      511.755      334.569        0.501        0.114       87.057       20.940        0.058      342.681       18.262      857.059
06/12/2014  06:06:00       26.343       42.946       -5.460       35.758       35.939       22.546     1278.635     1291.577      508.323        0.282        0.154       50.382       23.118        0.211      342.546       18.030      856.980
06/12/2014  06:07:00        5.323       57.661      -18.757       37.286       42.421       17.068     1390.241     1799.521      291.302        0.359        0.174       57.906       17.675        0.093      342.648       18.205      856.999
06/12/2014  06:08:00     -108.825      -20.000      -16.656       29.165       40.037       14.439      850.583     1602.942      208.493        0.759        0.133      110.647        4.372        0.002      342.416       17.809      857.076
06/12/2014  06:09:00     -123.381      -62.168        2.533       41.848       39.644       21.233     1751.235     1571.624      450.829        1.143        0.189      138.158       21.086        0.023      342.316       17.640      857.148
06/12/2014  06:10:00      -72.147      -37.992        0.632       53.092       48.071       21.426     2818.713     2310.862      459.085        0.612        0.279       81.539       26.503        0.106      342.460       17.884      857.160
06/12/2014  06:11:00       35.465       -0.881        7.289       37.568       24.539       26.497     1411.324      602.150      702.079        0.201        0.136       35.476       23.777        0.449      342.262       17.548      857.109
06/12/2014  06:12:00       20.724       -1.060       28.776       44.801       30.019       22.922     2007.147      901.120      525.414        0.235        0.172       20.751       24.656        1.412      342.325       17.654      857.121
06/12/2014  06:13:00      -32.532       -7.218       14.495       58.403       12.979       15.600     3410.883      168.446      243.375        0.257        0.191       33.323       24.197        0.527      342.615       18.149      857.147
06/12/2014  06:14:00      -89.593        0.239      -10.006       39.189       34.208       21.869     1535.799     1170.191      478.267        0.566        0.159       89.593       22.299        0.062      342.633       18.180      857.150
06/12/2014  06:15:00     -173.599       10.577      -15.700       77.456       37.722       31.540     5999.368     1422.940      994.754        1.945        0.421      173.921       33.851        0.038      342.582       18.091      857.165
06/12/2014  06:16:00      -97.602      -15.657       -2.956       59.701       40.478       23.443     3564.252     1638.435      549.571        0.777        0.288       98.850       31.967        0.105      342.437       17.846      857.170
06/12/2014  06:17:00      -33.832       -0.520       11.254       27.242       26.835       18.811      742.101      720.140      353.856        0.154        0.091       33.836       14.342        0.180      342.336       17.675      857.160
06/12/2014  06:18:00       -7.544       21.774        9.481       49.481       37.944       15.085     2448.407     1439.729      227.543        0.237        0.206       23.044       18.718        0.660      342.353       17.703      857.116
06/12/2014  06:19:00      -37.838       76.210       -1.541       29.733       23.313       14.097      884.075      543.495      198.735        0.443        0.081       85.086       13.011        0.023      343.234       19.204      857.064
06/12/2014  06:20:00       27.155       63.714       -3.574       21.713       28.898       16.482      471.451      835.090      271.652        0.319        0.079       69.259       19.179        0.077      343.078       18.937      857.035
06/12/2014  06:21:00       82.681       63.000        4.868       37.665       28.758       25.035     1418.654      827.004      626.763        0.685        0.144      103.948       13.675        0.017      343.034       18.863      857.005
06/12/2014  06:22:00      106.504       59.377        6.443       39.132       31.389       23.972     1531.294      985.271      574.656        0.900        0.155      121.938       20.601        0.029      342.828       18.512      856.989
06/12/2014  06:23:00       99.224       52.924        3.645       41.011       31.445       25.760     1681.875      988.798      663.571        0.800        0.167      112.456       13.981        0.015      342.752       18.382      857.017
06/12/2014  06:24:00      -20.114      -19.498       -5.796       30.426       20.287        9.940      925.717      411.565       98.807        0.113        0.072       28.013        6.908        0.061      342.886       18.609      857.073
06/12/2014  06:25:00      -94.293      -28.911      -12.664       19.179       15.177       10.485      367.837      230.330      109.929        0.530        0.035       98.626        6.710        0.005      342.557       18.051      857.129
06/12/2014  06:26:00     -129.706      -71.328       -5.692       23.068       23.454       14.837      532.155      550.082      220.149        1.162        0.065      148.025       10.265        0.005      342.600       18.124      857.160
06/12/2014  06:27:00     -112.049      -42.911      -16.302       18.368       23.193       12.923      337.366      537.935      166.999        0.785        0.052      119.984        9.581        0.006      342.601       18.125      857.151
06/12/2014  06:28:00      -59.790       -8.874       -6.879       39.629       24.193       16.988     1570.449      585.316      288.595        0.307        0.122       60.445       21.662        0.128      342.822       18.501      857.121
06/12/2014  06:29:00       12.656        8.213        8.999       16.026        8.926       11.335      256.817       79.675      128.473        0.039        0.023       15.087        7.743        0.263      342.597       18.118      857.066
06/12/2014  06:30:00       63.985       18.121       -4.357       20.229       17.122       23.990      409.200      293.179      575.537        0.286        0.064       66.501       16.841        0.064      342.588       18.104      857.002
06/12/2014  06:31:00       81.817       55.876        5.970       27.408       28.728       28.686      751.224      825.311      822.904        0.613        0.120       99.077       18.644        0.035      342.484       17.924      856.953
06/12/2014  06:32:00       81.750       55.639       17.011       39.474       31.339       25.396     1558.173      982.158      644.937        0.663        0.159       98.888       19.535        0.039      342.607       18.136      856.936
06/12/2014  06:33:00      105.415       51.203       19.895       60.552       41.531       31.802     3666.585     1724.851     1011.353        1.027        0.320      117.193       22.163        0.036      342.716       18.320      856.989
06/12/2014  06:34:00       -2.669        2.598       23.328       29.778       33.464       20.837      886.705     1119.831      434.194        0.150        0.122        3.725       18.513       24.701      342.525       17.997      857.071
06/12/2014  06:35:00      -57.640      -42.644      -12.022       49.267       28.349       13.750     2427.258      803.676      189.049        0.435        0.171       71.699       13.058        0.033      342.602       18.125      857.124
06/12/2014  06:36:00     -185.464      -12.464      -23.022       49.957       27.138       23.495     2495.685      736.451      552.035        1.943        0.189      185.883       17.088        0.008      342.665       18.231      857.164
06/12/2014  06:37:00     -176.990       15.119      -14.481       68.949       62.462       39.747     4753.937     3901.528     1579.855        2.100        0.512      177.634       34.187        0.037      342.599       18.118      857.153
06/12/2014  06:38:00     -182.692       63.874      -21.052       71.486       41.253       35.379     5110.181     1701.837     1251.702        2.298        0.403      193.536       32.491        0.028      342.709       18.306      857.089
06/12/2014  06:39:00     -120.302       14.899       -9.835       77.429       43.961       32.885     5995.254     1932.564     1081.437        1.190        0.450      121.221       39.653        0.107      342.928       18.680      857.063
06/12/2014  06:40:00     -119.900       -4.960      -17.130       66.004       39.087       30.363     4356.499     1527.800      921.935        1.075        0.340      120.002       31.151        0.067      343.049       18.887      857.128
06/12/2014  06:41:00       18.950      -17.771       17.768       23.695       19.179       15.158      561.468      367.836      229.775        0.107        0.058       25.979        8.583        0.109      343.116       19.001      857.173
06/12/2014  06:42:00       12.381      -13.804        8.946       17.340       17.898       15.732      300.679      320.346      247.482        0.065        0.043       18.543       12.600        0.462      343.121       19.009      857.198
06/12/2014  06:43:00      -15.265      -11.189        6.915       23.968       16.925       15.342      574.456      286.458      235.375        0.075        0.055       18.927       15.650        0.684      343.159       19.074      857.221
06/12/2014  06:44:00       -0.056        2.063       18.494       10.991       16.924       12.192      120.801      286.429      148.647        0.045        0.028        2.063        4.765        5.334      343.273       19.269      857.211
06/12/2014  06:45:00       29.464       24.986        3.871       22.719       16.640       16.799      516.173      276.898      282.207        0.129        0.054       38.632        7.209        0.035      342.884       18.605      857.140
06/12/2014  06:46:00       42.390       34.779        4.571       49.401       32.120       19.951     2440.466     1031.723      398.035        0.345        0.194       54.831       15.413        0.079      343.137       19.038      857.088
06/12/2014  06:47:00        5.793       11.746        6.406       38.393       23.515       17.749     1474.038      552.968      315.018        0.128        0.117       13.096        5.670        0.187      343.446       19.563      857.101
06/12/2014  06:48:00      -95.616      -39.797       -6.678       50.316       38.223       17.340     2531.677     1461.004      300.677        0.753        0.215      103.568       19.179        0.034      343.200       19.144      857.165
06/12/2014  06:49:00     -138.383      -48.399      -14.975       29.294       29.699       14.852      858.118      882.057      220.576        1.184        0.098      146.603        8.531        0.003      343.118       19.005      857.193
06/12/2014  06:50:00     -123.667       19.471      -12.574       20.362       15.336       13.331      414.613      235.191      177.709        0.833        0.041      125.190       10.701        0.007      343.088       18.953      857.190
06/12/2014  06:51:00      -80.902       24.826      -11.938       17.612       15.533       10.432      310.177      241.269      108.817        0.398        0.033       84.625        5.548        0.004      343.129       19.023      857.195
06/12/2014  06:52:00      -11.645       35.573        6.176       23.239       14.123       17.073      540.035      199.467      291.493        0.123        0.052       37.430       16.859        0.203      343.547       19.736      857.211
06/12/2014  06:53:00       28.857       17.934        7.160       26.196       25.335       16.271      686.241      641.881      264.757        0.140        0.080       33.976       10.434        0.094      343.817       20.196      857.231
06/12/2014  06:54:00       19.706       35.649        4.555       21.486       26.893       15.724      461.665      723.226      247.253        0.156        0.072       40.733       14.577        0.128      343.883       20.309      857.222
06/12/2014  06:55:00      -43.920       23.707       -3.020       24.629       40.189        9.523      606.588     1615.191       90.691        0.241        0.116       49.910        7.718        0.024      343.632       19.881      857.245
06/12/2014  06:56:00     -117.223      -28.722       -5.853       23.031       20.469       16.235      530.445      418.983      263.587        0.791        0.061      120.691       12.988        0.012      343.267       19.259      857.274
06/12/2014  06:57:00      -53.438       26.520        3.675       28.684       23.478       23.202      822.756      551.218      538.322        0.274        0.096       59.656       13.753        0.053      343.531       19.708      857.262
06/12/2014  06:58:00      -58.273        8.623       -3.003       22.049       32.887       16.829      486.152     1081.568      283.204        0.266        0.093       58.907       14.348        0.059      343.738       20.061      857.245
06/12/2014  06:59:00      -60.400      -15.743        9.466       38.475       37.475       22.768     1480.290     1404.404      518.370        0.369        0.170       62.418       11.835        0.036      343.642       19.897      857.247
06/12/2014  07:00:00      -95.483      -11.077       -6.998       39.924       30.379       20.151     1593.939      922.909      406.078        0.611        0.146       96.123       19.290        0.040      343.598       19.822      857.218
06/12/2014  07:01:00     -127.905        7.423       -7.384       40.071       40.908       18.980     1605.675     1673.439      360.245        1.005        0.182      128.120       21.067        0.027      343.661       19.928      857.208
06/12/2014  07:02:00      -89.603       19.322       -8.920       28.145       29.042       18.417      792.124      843.412      339.201        0.523        0.099       91.662       12.312        0.018      343.937       20.401      857.221
06/12/2014  07:03:00      -56.817       57.947       -7.641       25.492       29.095       21.326      649.838      846.515      454.803        0.430        0.098       81.155       13.190        0.026      344.097       20.674      857.255
06/12/2014  07:04:00      -34.546       72.669       -1.205       36.447       38.279       24.468     1328.348     1465.244      598.662        0.493        0.170       80.463       25.231        0.098      344.419       21.223      857.297
06/12/2014  07:05:00       22.280       14.070       11.391       28.113       25.990       17.485      790.360      675.473      305.730        0.130        0.089       26.351       15.384        0.341      344.311       21.041      857.316
06/12/2014  07:06:00        3.511       25.214       21.618       23.007       24.246       27.698      529.302      587.846      767.166        0.150        0.094       25.457       16.686        0.430      344.078       20.642      857.323
06/12/2014  07:07:00       19.010       50.708       -1.226       26.159       24.694       19.158      684.317      609.798      367.018        0.230        0.083       54.155       19.381        0.128      344.529       21.413      857.332
06/12/2014  07:08:00       14.334      -24.894        8.685       17.916       23.856       17.112      320.971      569.125      292.810        0.104        0.059       28.726       12.488        0.189      344.252       20.940      857.373
06/12/2014  07:09:00        0.985        9.618       24.113       11.772       34.579       18.045      138.573     1195.700      325.612        0.117        0.083        9.668       15.913        2.709      344.204       20.856      857.343
06/12/2014  07:10:00       20.701       62.805       10.800       33.270       26.381       23.197     1106.910      695.943      538.106        0.341        0.117       66.129       20.278        0.094      344.132       20.734      857.252
06/12/2014  07:11:00      -49.778      -21.187       -1.597       52.490       50.807       31.535     2755.153     2581.339      994.443        0.463        0.317       54.099       31.412        0.337      344.262       20.957      857.323
06/12/2014  07:12:00        2.341      -57.826       26.948       41.221       31.392       28.105     1699.148      985.476      789.913        0.377        0.174       57.873       28.017        0.234      344.390       21.174      857.433
06/12/2014  07:13:00      -15.530      -90.545        3.516       15.194       22.625       16.068      230.868      511.911      258.192        0.473        0.050       91.868       13.502        0.022      344.448       21.276      857.487
06/12/2014  07:14:00      -14.882      -25.385        9.169       27.409       43.459       23.344      751.245     1888.698      544.948        0.207        0.159       29.426       23.439        0.634      344.712       21.724      857.512
06/12/2014  07:15:00        0.430       16.473       33.394       28.964       24.444       26.097      838.894      597.518      681.039        0.175        0.106       16.479       15.429        0.877      344.652       21.622      857.445
06/12/2014  07:16:00       98.037       58.575       31.002       60.278       44.631       27.511     3633.378     1991.910      756.858        1.019        0.319      114.203       23.203        0.041      344.009       20.524      857.402
06/12/2014  07:17:00      179.352       84.559       10.652       40.211       44.171       28.041     1616.958     1951.078      786.325        2.189        0.218      198.286       23.361        0.014      344.495       21.352      857.358
06/12/2014  07:18:00      125.399       66.336       16.428       48.805       42.222       30.228     2381.904     1782.718      913.747        1.274        0.254      141.864       22.294        0.025      344.620       21.567      857.382
06/12/2014  07:19:00       86.358       61.247       35.550       25.506       27.074       26.509      650.577      733.001      702.751        0.728        0.104      105.872       10.232        0.009      344.430       21.243      857.405
06/12/2014  07:20:00       80.156       94.033        5.806       41.035       34.965       36.374     1683.891     1222.517     1323.083        0.976        0.211      123.561       23.286        0.036      344.610       21.551      857.373
06/12/2014  07:21:00      154.963      100.607       13.848       58.277       36.446       40.122     3396.165     1328.308     1609.752        2.033        0.317      184.757       24.572        0.018      344.634       21.592      857.346
06/12/2014  07:22:00      142.464       62.537        0.076       54.367       46.033       36.765     2955.742     2119.072     1351.647        1.532        0.321      155.585       23.699        0.023      344.567       21.477      857.396
06/12/2014  07:23:00       78.093       43.674       37.159       30.536       26.417       27.510      932.433      697.838      756.776        0.589        0.119       89.476        6.000        0.004      344.498       21.359      857.474
06/12/2014  07:24:00       15.373       37.196        5.729       19.131       16.347       18.706      365.976      267.224      349.922        0.132        0.049       40.247       12.143        0.091      344.685       21.678      857.523
06/12/2014  07:25:00       -2.630        2.425       -0.299       16.307       27.848       16.004      265.916      775.500      256.141        0.065        0.065        3.577       10.074        7.930      344.928       22.095      857.525
06/12/2014  07:26:00       -9.130      -24.531        4.471       19.762       14.108       17.995      390.533      199.034      323.817        0.081        0.046       26.175       13.730        0.275      344.672       21.658      857.571
06/12/2014  07:27:00        9.038       -1.578       26.993       11.637       17.122       18.337      135.429      293.150      336.240        0.079        0.038        9.174       12.057        1.727      345.235       22.622      857.636
06/12/2014  07:28:00        9.538       24.837       39.850       18.168       23.403       17.000      330.065      547.695      289.005        0.173        0.058       26.606       12.086        0.206      344.947       22.128      857.673
06/12/2014  07:29:00       26.612       -0.028       29.786       38.895       26.591       20.677     1512.849      707.070      427.524        0.212        0.132       26.612       22.568        0.719      344.499       21.361      857.697
06/12/2014  07:30:00       19.192       11.872       14.049       33.575       22.052       23.411     1127.263      486.272      548.094        0.143        0.108       22.568       20.323        0.811      344.527       21.409      857.726
06/12/2014  07:31:00       65.090       -4.984       29.866       33.628       22.342       25.465     1130.826      499.153      648.489        0.372        0.114       65.280       15.628        0.057      344.049       20.592      857.699
06/12/2014  07:32:00       55.555       42.373        1.472       31.333       34.984       23.827      981.788     1223.903      567.713        0.383        0.139       69.870       21.725        0.097      344.448       21.273      857.577
06/12/2014  07:33:00       10.982      108.305      -12.305       29.654       55.088       26.903      879.354     3034.727      723.745        0.832        0.232      108.861       25.781        0.056      344.965       22.158      857.471
06/12/2014  07:34:00      -34.056      118.281       -3.660       27.802       50.746       25.768      772.946     2575.193      664.008        0.959        0.201      123.086       27.205        0.049      345.076       22.350      857.474
06/12/2014  07:35:00      -31.420       35.469        6.382       25.101       51.098       21.885      630.044     2610.957      478.948        0.300        0.186       47.384       18.845        0.158      345.125       22.433      857.518
06/12/2014  07:36:00      -36.949      -18.719       11.248       31.547       22.388       18.952      995.244      501.244      359.170        0.185        0.093       41.420       21.898        0.280      345.073       22.344      857.556
06/12/2014  07:37:00       62.929       37.087       12.144       38.377       28.047       24.961     1472.822      786.610      623.040        0.418        0.144       73.045       22.132        0.092      345.218       22.592      857.507
06/12/2014  07:38:00        9.152      -39.745       18.363       34.843       34.661       23.809     1214.046     1201.373      566.865        0.249        0.149       40.785       21.873        0.288      345.088       22.368      857.597
06/12/2014  07:39:00      -32.886      -29.178       -0.647       22.346       29.041       17.532      499.323      843.359      307.358        0.179        0.083       43.964       18.074        0.169      345.050       22.305      857.687
06/12/2014  07:40:00      -13.656        0.980       22.989       31.670       29.196       33.819     1002.972      852.403     1143.695        0.186        0.150       13.691       28.900        4.456      345.167       22.506      857.634
06/12/2014  07:41:00        4.040       12.754        8.754       15.369       21.084       15.892      236.195      444.537      252.562        0.059        0.047       13.379       12.296        0.845      344.768       21.820      857.611
06/12/2014  07:42:00      -48.550      -11.950       -2.767       16.087       12.866        9.641      258.784      165.530       92.941        0.151        0.026       49.999        7.931        0.025      344.854       21.969      857.654
06/12/2014  07:43:00      -54.165      -10.021       -1.987       22.059       19.630       12.279      486.618      385.327      150.772        0.203        0.051       55.085       10.591        0.037      344.948       22.129      857.663
06/12/2014  07:44:00      -14.024        2.937       14.416       26.802       47.838       17.501      718.331     2288.468      306.278        0.186        0.166       14.329       16.791        1.373      345.461       23.009      857.626
06/12/2014  07:45:00       67.653       91.597       -2.355       50.962       54.282       36.188     2597.115     2946.585     1309.536        0.991        0.343      113.872       27.852        0.060      345.321       22.767      857.480
06/12/2014  07:46:00       80.601       56.292       18.999       48.431       34.191       38.148     2345.583     1169.024     1455.289        0.750        0.248       98.312       28.610        0.085      345.266       22.672      857.500
06/12/2014  07:47:00       84.976      112.114       85.314       71.943       47.852       54.124     5175.839     2289.781     2929.416        1.873        0.520      140.678       48.802        0.120      345.313       22.753      857.495
06/12/2014  07:48:00       84.780      116.337       91.595       81.498       69.394       67.369     6641.882     4815.551     4538.621        2.255        0.800      143.951       45.839        0.101      345.425       22.943      857.461
06/12/2014  07:49:00       21.680       17.409      113.081       54.350      105.573       60.651     2953.975    11145.610     3678.502        1.567        0.889       27.805       66.934        5.795      345.665       23.357      857.564
06/12/2014  07:50:00       70.881      -51.944       41.551       69.329       74.950       47.356     4806.561     5617.474     2242.623        1.106        0.633       87.876       53.470        0.370      345.749       23.503      857.615
06/12/2014  07:51:00       79.991       67.422       32.788       59.826       46.789       47.803     3579.143     2189.242     2285.124        1.003        0.403      104.615       37.436        0.128      345.412       22.923      857.534
06/12/2014  07:52:00       20.037        0.216       32.602       37.577       18.085       21.044     1412.017      327.082      442.859        0.182        0.109       20.038       12.190        0.370      345.827       23.638      857.563
06/12/2014  07:53:00     -147.932      -26.480      -15.730      109.297       77.693       33.170    11945.762     6036.259     1100.224        2.095        0.954      150.284       49.820        0.110      345.341       22.801      857.590
06/12/2014  07:54:00      -42.270     -110.151        1.107       89.844      107.693       49.942     8071.920    11597.808     2494.181        1.804        1.108      117.983       64.251        0.297      345.641       23.314      857.586
06/12/2014  07:55:00     -180.796      -35.081       29.937      154.391      148.520      105.144    23836.693    22058.165    11055.280        4.587        2.848      184.168      101.113        0.301      345.870       23.706      857.432
06/12/2014  07:56:00     -234.227     -162.323        7.426      184.621      180.663       79.555    34085.063    32639.152     6329.015        7.715        3.653      284.976       75.607        0.070      345.897       23.753      857.452
06/12/2014  07:57:00     -187.160     -255.250        4.361      150.752      213.718       76.674    22726.243    45675.406     5878.893        8.723        3.714      316.515       76.091        0.058      345.771       23.536      857.490
06/12/2014  07:58:00     -395.163     -269.142        4.036      240.876      200.873       96.298    58021.371    40350.024     9273.254       16.810        5.382      478.112      105.838        0.049      345.677       23.375      857.394
06/12/2014  07:59:00      -92.895      -62.488       18.363      154.708      115.163       65.799    23934.628    13262.433     4329.574        2.719        2.076      111.956       62.796        0.315      345.906       23.770      857.512
06/12/2014  08:00:00        2.589       15.385       56.148       29.957       55.039       40.352      897.410     3029.277     1628.249        0.447        0.278       15.602       34.100        4.777      346.197       24.272      857.501
06/12/2014  08:01:00       40.457       42.728       74.420       48.119       64.024       50.315     2315.392     4099.093     2531.623        0.897        0.447       58.843       49.273        0.701      345.992       23.919      857.495
06/12/2014  08:02:00        7.060      -65.837       18.720       32.226       55.636       44.275     1038.540     3095.375     1960.297        0.541        0.305       66.215       38.420        0.337      345.998       23.930      857.566
06/12/2014  08:03:00       76.537      -57.126       17.024       70.922      100.444       65.097     5029.955    10089.070     4237.599        1.438        0.968       95.505       70.455        0.544      346.186       24.251      857.580
06/12/2014  08:04:00      118.173       63.612       58.066       86.354       97.873       73.631     7457.051     9579.142     5421.525        2.192        1.123      134.207       71.547        0.284      345.968       23.877      857.503
06/12/2014  08:05:00      130.210       62.795       24.524       83.609       63.262       50.495     6990.423     4002.023     2549.762        1.752        0.677      144.561       25.322        0.031      345.905       23.770      857.394
06/12/2014  08:06:00        1.392       25.074       -1.486       98.456       43.735       27.982     9693.650     1912.734      783.005        0.651        0.619       25.113       31.413        1.565      345.824       23.629      857.473
06/12/2014  08:07:00     -154.850        6.261      -12.971       47.309       51.914       27.982     2238.169     2695.052      782.971        1.495        0.286      154.977       16.993        0.012      345.809       23.605      857.553
06/12/2014  08:08:00     -231.207      -68.772       -2.036      140.159      166.985       66.331    19644.500    27884.142     4399.826        5.505        2.596      241.219       23.375        0.009      345.855       23.682      857.544
06/12/2014  08:09:00     -169.387     -252.395        3.939      194.587      199.102       98.064    37864.087    39641.408     9616.572        8.975        4.356      303.966       90.624        0.089      346.022       23.967      857.499
06/12/2014  08:10:00     -174.685     -206.798        4.788      152.140      200.944       87.166    23146.563    40378.497     7597.941        7.220        3.556      270.703       85.330        0.099      346.004       23.936      857.505
06/12/2014  08:11:00      -48.995      -95.140       21.565      148.951      185.600       77.974    22186.429    34447.466     6079.911        3.730        3.136      107.015       94.167        0.774      346.143       24.177      857.386
06/12/2014  08:12:00     -122.515     -151.835       31.472      186.575      186.150       75.708    34810.398    34651.982     5731.704        5.711        3.760      195.100      105.743        0.294      346.186       24.250      857.335
06/12/2014  08:13:00      -29.032     -180.459        2.612      177.118      148.589       89.992    31370.612    22078.834     8098.569        4.747        3.077      182.780       82.125        0.202      346.273       24.398      857.426
06/12/2014  08:14:00      161.588     -209.017       38.621      130.495      195.512      110.752    17028.851    38225.093    12266.086        6.939        3.376      264.195      115.988        0.193      346.217       24.302      857.412
06/12/2014  08:15:00      106.645     -219.162        5.850      120.185      222.432       97.029    14444.391    49475.954     9414.531        6.637        3.667      243.732      109.323        0.201      346.174       24.230      857.490
06/12/2014  08:16:00      -41.853     -158.646      -19.188      222.921      142.806       89.777    49693.932    20393.663     8059.947        5.270        3.907      164.073       83.847        0.261      346.105       24.110      857.473
06/12/2014  08:17:00       61.535     -226.511      -10.943      222.605      118.615       61.945    49552.983    14069.586     3837.159        6.132        3.373      234.720       43.270        0.034      346.044       24.004      857.437
06/12/2014  08:18:00      180.322     -173.862        1.967       85.587       98.318       68.446     7325.201     9666.374     4684.856        4.221        1.084      250.488       52.794        0.044      345.921       23.795      857.434
06/12/2014  08:19:00      -73.134     -101.705       -0.012      100.197       66.178       31.903    10039.537     4379.468     1017.822        1.556        0.772      125.270       36.820        0.086      345.927       23.808      857.535
06/12/2014  08:20:00     -224.201     -178.026      -10.590      151.691       84.053       56.349    23010.130     7064.907     3175.246        5.765        1.663      286.285       64.400        0.051      345.886       23.735      857.650
06/12/2014  08:21:00      -80.613       -1.954       16.102      108.631       89.610       59.612    11800.679     8030.029     3553.556        1.507        1.169       80.636       53.001        0.432      346.284       24.419      857.613
06/12/2014  08:22:00       -4.786       28.945        8.853       47.880       61.975       61.455     2292.541     3840.876     3776.692        0.542        0.496       29.338       36.341        1.534      346.377       24.580      857.501
06/12/2014  08:23:00     -158.087      -24.822       -1.532      150.023      103.823       64.624    22506.755    10779.113     4176.287        3.153        1.873      160.024       68.830        0.185      346.015       23.956      857.384
06/12/2014  08:24:00     -418.091      -95.616        1.492      270.943      176.540       90.641    73410.354    31166.356     8215.864       14.835        5.640      428.885      112.544        0.069      345.939       23.826      857.272
06/12/2014  08:25:00     -378.166     -267.451      -10.836      181.283      201.313       89.657    32863.403    40526.945     8038.460       14.803        4.071      463.184       85.848        0.034      345.951       23.846      857.259
06/12/2014  08:26:00     -119.552     -155.341        1.666      118.485      137.874       63.850    14038.759    19009.216     4076.860        3.777        1.856      196.020       36.851        0.035      346.130       24.153      857.365
06/12/2014  08:27:00     -185.348     -194.301       -1.663      135.648      131.229       61.561    18400.265    17221.085     3789.731        5.575        1.971      268.527       58.861        0.048      346.068       24.046      857.333
06/12/2014  08:28:00       33.150      -63.105       41.278       86.020      109.882       60.701     7399.420    12073.957     3684.621        1.497        1.158       71.283       60.730        0.726      346.448       24.702      857.317
06/12/2014  08:29:00       16.775      -33.770       40.125       43.386       59.532       45.733     1882.337     3544.000     2091.538        0.527        0.376       37.706       35.466        0.885      346.646       25.043      857.273
06/12/2014  08:30:00        5.757       43.642      128.980       68.058      132.434       71.707     4631.877    17538.728     5141.856        2.294        1.366       44.020       68.678        2.434      346.523       24.830      857.228
06/12/2014  08:31:00     -262.239     -183.530      -15.315      166.719      199.433       86.431    27795.227    39773.358     7470.394        8.885        3.752      320.083       93.558        0.085      346.118       24.132      857.208
06/12/2014  08:32:00      -58.823     -142.949        0.782      129.336      140.705       58.321    16727.754    19797.789     3401.343        3.190        1.996      154.579       52.726        0.116      346.229       24.323      857.245
06/12/2014  08:33:00     -126.447     -143.320       -6.958       97.770       65.226       47.313     9558.898     4254.460     2238.534        2.631        0.803      191.127       42.623        0.050      346.196       24.267      857.255
06/12/2014  08:34:00     -235.213     -183.582      -18.420       89.771      107.429       51.708     8058.784    11540.898     2673.739        5.582        1.114      298.375       38.421        0.017      346.145       24.177      857.244
06/12/2014  08:35:00      -81.933      -78.043       41.496      140.238      106.548       68.622    19666.605    11352.413     4709.038        2.512        1.786      113.154       73.984        0.428      346.467       24.734      857.284
06/12/2014  08:36:00     -140.322     -158.882       -1.238       90.440      120.872       45.722     8179.361    14610.119     2090.533        3.490        1.244      211.976       48.291        0.052      346.262       24.379      857.303
06/12/2014  08:37:00     -183.443     -185.186       -6.466      116.743      189.806       67.989    13628.880    36026.480     4622.562        6.112        2.714      260.663       70.252        0.073      346.077       24.062      857.242
06/12/2014  08:38:00     -140.425      -83.902        3.185       94.014       74.380       44.810     8838.538     5532.434     2007.965        2.157        0.819      163.581       44.105        0.073      346.157       24.199      857.264
06/12/2014  08:39:00     -157.640     -177.151        5.377       81.427      149.019       51.046     6630.340    22206.684     2605.735        4.385        1.572      237.135       61.202        0.067      346.140       24.171      857.302
06/12/2014  08:40:00     -155.225     -141.441        1.880      136.996       86.931       57.170    18767.854     7557.014     3268.424        3.684        1.480      210.001       59.751        0.081      346.193       24.261      857.262
06/12/2014  08:41:00     -215.470     -107.611        1.072      143.978      128.133       51.496    20729.714    16418.003     2651.797        4.890        1.990      240.847       50.412        0.044      346.219       24.305      857.237
06/12/2014  08:42:00     -283.011      -53.383       -0.717      119.747       99.774       63.549    14339.235     9954.752     4038.433        5.563        1.417      288.002       64.329        0.050      346.091       24.086      857.244
06/12/2014  08:43:00     -136.414      -41.893       -6.538       74.218       57.962       41.744     5508.368     3359.629     1742.555        1.551        0.531      142.702       31.550        0.049      346.158       24.204      857.253
06/12/2014  08:44:00     -232.379     -136.998       -5.855      102.476       74.880       52.222    10501.275     5607.062     2727.087        4.582        0.942      269.756       58.610        0.047      346.129       24.150      857.279
06/12/2014  08:45:00     -151.355      -38.749        4.388       94.587       57.354       39.780     8946.616     3289.477     1582.410        1.912        0.691      156.236       49.700        0.101      346.162       24.209      857.272
06/12/2014  08:46:00      -66.915      -53.025        6.173       47.303       76.045       33.112     2237.609     5782.869     1096.374        0.822        0.456       85.377       31.885        0.139      346.177       24.237      857.266
06/12/2014  08:47:00      -26.293      -67.269        3.734       43.690       61.542       28.446     1908.801     3787.423      809.148        0.587        0.325       72.225       20.134        0.078      346.264       24.385      857.228
06/12/2014  08:48:00      -12.031      -56.816        3.777       29.729       38.291       25.925      883.787     1466.177      672.099        0.320        0.151       58.076        8.851        0.023      346.280       24.414      857.201
06/12/2014  08:49:00       10.098       47.745       60.918       54.439       70.209       57.510     2963.658     4929.328     3307.423        0.864        0.560       48.801       46.675        0.915      346.444       24.697      857.218
06/12/2014  08:50:00      -20.453       90.692      -13.297       65.133      115.993       58.068     4242.331    13454.313     3371.898        1.494        1.053       92.970       45.133        0.236      346.211       24.295      857.226
06/12/2014  08:51:00     -125.687       10.531        4.875      102.017       84.849       50.414    10407.442     7199.304     2541.529        1.804        1.007      126.127       40.801        0.105      346.447       24.700      857.243
06/12/2014  08:52:00      -60.659       62.804       26.434       85.240       63.688       41.916     7265.785     4056.181     1756.964        1.070        0.654       87.315       46.738        0.287      346.735       25.195      857.231
06/12/2014  08:53:00     -127.584      -80.332       -3.814       91.541       81.214       45.373     8379.807     6595.708     2058.667        1.989        0.852      150.768       39.459        0.068      346.449       24.701      857.233
06/12/2014  08:54:00     -182.459     -133.081        0.206       92.562       78.729       48.929     8567.704     6198.294     2394.021        3.408        0.858      225.836       43.677        0.037      346.318       24.475      857.257
06/12/2014  08:55:00     -192.343      -31.645        8.118      120.813      105.657       62.223    14595.777    11163.361     3871.654        3.384        1.482      194.929       55.188        0.080      346.284       24.419      857.292
06/12/2014  08:56:00     -335.936      -85.811      -21.537       91.190       96.011       48.736     8315.658     9218.071     2375.175        7.029        0.995      346.723       48.715        0.020      346.149       24.185      857.302
06/12/2014  08:57:00     -222.765     -137.803      -12.535       98.332      116.745       55.811     9669.136    13629.490     3114.837        4.759        1.321      261.942       51.777        0.039      346.170       24.222      857.257
06/12/2014  08:58:00     -100.764      -13.307        7.318      100.436       76.607       44.980    10087.387     5868.565     2023.163        1.418        0.899      101.639       58.157        0.327      346.562       24.897      857.267
06/12/2014  08:59:00      -78.567       16.205       17.501      105.561       44.795       41.874    11143.177     2006.618     1753.417        1.082        0.745       80.221       45.632        0.324      346.523       24.830      857.287
06/12/2014  09:00:00     -244.148       27.428      -13.091      103.617       72.786       43.692    10736.582     5297.800     1908.974        3.923        0.897      245.683       40.535        0.027      346.226       24.319      857.290
06/12/2014  09:01:00     -110.562      -50.691       14.170      103.383       40.210       29.892    10688.023     1616.821      893.509        1.409        0.660      121.628       37.454        0.095      346.536       24.856      857.279
06/12/2014  09:02:00      -37.347       50.872        3.408       72.312       47.437       36.477     5228.963     2250.307     1330.603        0.640        0.440       63.109       39.475        0.391      346.314       24.473      857.255
06/12/2014  09:03:00     -145.286      -40.882      -20.775      123.962      107.144       42.141    15366.688    11479.802     1775.836        2.591        1.431      150.929       41.820        0.077      346.598       24.959      857.249
06/12/2014  09:04:00     -206.541      -89.385      -10.802      122.211      101.705       61.107    14935.605    10343.929     3734.060        3.988        1.451      225.053       56.872        0.064      346.406       24.628      857.230
06/12/2014  09:05:00     -163.248     -109.831        2.144      113.263       93.517       59.693    12828.410     8745.519     3563.213        3.192        1.257      196.756       57.003        0.084      346.329       24.496      857.129
06/12/2014  09:06:00      -38.772       21.218        2.961       88.672       59.815       40.056     7862.669     3577.855     1604.514        0.750        0.652       44.198       23.372        0.280      346.658       25.064      857.071
06/12/2014  09:07:00     -118.497      -74.492       -8.595      120.887       49.734       35.742    14613.648     2473.474     1277.495        1.901        0.918      139.967       47.045        0.113      346.601       24.963      857.116
06/12/2014  09:08:00       31.436      -77.990       -6.442       82.843       91.251       59.541     6862.988     8326.790     3545.092        1.292        0.937       84.087       67.562        0.646      346.489       24.774      857.195
06/12/2014  09:09:00      108.662      -39.344       67.738      109.984      186.721      159.442    12096.481    34864.636    25421.897        4.515        3.619      115.566      157.338        1.854      346.617       24.991      857.171
06/12/2014  09:10:00      -44.023       -0.966       94.846       91.233      157.100       94.984     8323.422    24680.321     9021.889        2.647        2.101       44.034      102.465        5.415      346.569       24.910      857.070
06/12/2014  09:11:00      -20.343     -208.644        4.083      140.929       88.346       56.573    19860.922     7804.979     3200.554        3.741        1.543      209.634       47.972        0.052      346.637       25.025      857.106
06/12/2014  09:12:00     -149.036      -56.350        5.015      118.115      101.564       47.603    13951.060    10315.165     2266.058        2.597        1.327      159.333       48.325        0.092      346.897       25.473      857.112
06/12/2014  09:13:00      -99.121      -11.098        7.234       83.588       63.314       34.016     6986.915     4008.607     1157.088        1.107        0.608       99.741       26.199        0.069      346.762       25.243      857.096
06/12/2014  09:14:00     -177.023      -62.477       15.942      166.599       99.548       55.534    27755.392     9909.806     3084.071        3.811        2.037      187.725       74.852        0.159      346.805       25.316      857.107
06/12/2014  09:15:00      -91.472      -52.874        5.584      185.300       63.666       44.276    34336.269     4053.362     1960.378        2.576        2.018      105.654       63.381        0.360      346.726       25.179      857.109
06/12/2014  09:16:00       64.834     -105.818      -14.933       72.347       93.870       46.929     5234.018     8811.516     2202.378        1.593        0.812      124.100       48.433        0.152      346.885       25.453      857.122
06/12/2014  09:17:00       31.998     -116.525        3.287       93.644      130.971       60.222     8769.179    17153.378     3626.666        2.208        1.477      120.838       77.682        0.413      346.700       25.135      857.082
06/12/2014  09:18:00      -11.943      -97.871       18.583      101.338      103.590       58.334    10269.471    10730.908     3402.906        1.723        1.220       98.597       60.260        0.374      346.973       25.606      857.067
06/12/2014  09:19:00      -82.472     -129.906       11.861      165.660      110.521       80.486    27443.090    12214.981     6478.037        3.497        2.307      153.874       73.161        0.226      346.726       25.179      857.075
06/12/2014  09:20:00     -187.152     -192.189        5.733      163.983      110.550       76.429    26890.441    12221.387     5841.424        5.847        2.248      268.258       84.182        0.098      346.480       24.754      857.091
06/12/2014  09:21:00     -180.966      -95.093        8.961      107.531       89.895       48.306    11562.953     8081.041     2333.441        3.192        1.099      204.430       57.149        0.078      346.558       24.890      857.090
06/12/2014  09:22:00     -115.378      -48.703       10.603       78.211       60.207       47.840     6116.992     3624.889     2288.619        1.391        0.602      125.236       49.639        0.157      346.632       25.016      857.080
06/12/2014  09:23:00      -53.981      -46.289       25.918      110.886      106.183       67.358    12295.718    11274.899     4537.126        1.691        1.405       71.110       80.838        1.292      347.041       25.722      857.032
06/12/2014  09:24:00      -65.145       17.347        6.325       56.145       44.807       27.640     3152.288     2007.659      763.974        0.525        0.296       67.415       26.867        0.159      346.996       25.645      857.029
06/12/2014  09:25:00      -80.061      -34.776       19.378       94.730       57.210       41.521     8973.762     3272.965     1723.953        1.098        0.699       87.287       49.923        0.327      347.146       25.904      857.054
06/12/2014  09:26:00     -199.849      -56.256      -12.729       76.856       71.761       46.630     5906.870     5149.660     2174.315        2.825        0.662      207.616       43.922        0.045      346.990       25.633      857.074
06/12/2014  09:27:00     -207.304     -105.134       -7.254      109.942       80.164       42.748    12087.191     6426.314     1827.402        3.721        1.017      232.440       41.764        0.032      346.995       25.641      857.107
06/12/2014  09:28:00      -83.410     -119.246       -1.768       83.277      104.946       39.908     6935.030    11013.723     1592.642        2.036        0.977      145.522       37.836        0.068      347.048       25.734      857.087
06/12/2014  09:29:00     -222.073     -132.569        2.425      159.258      131.551       79.237    25363.096    17305.570     6278.464        5.791        2.447      258.633       81.313        0.099      346.882       25.445      857.082
06/12/2014  09:30:00     -139.622     -165.002       12.081      122.363      123.007       67.456    14972.772    15130.802     4550.312        4.075        1.733      216.148       68.570        0.101      346.945       25.556      857.105
06/12/2014  09:31:00     -302.456     -161.584       -1.397      133.836      103.008       65.613    17912.208    10610.685     4305.047        7.520        1.641      342.913       63.617        0.034      346.804       25.312      857.093
06/12/2014  09:32:00     -184.765     -276.118       -7.986      155.451      127.888       67.044    24165.082    16355.407     4494.878        7.772        2.251      332.233       44.419        0.018      346.503       24.793      857.089
06/12/2014  09:33:00     -256.766     -245.284      -14.719      181.981      154.362       72.570    33117.228    23827.698     5266.421        9.425        3.111      355.096       79.309        0.050      346.599       24.959      857.008
06/12/2014  09:34:00     -332.743     -372.617      -12.901      207.724      249.520       84.210    43149.266    62260.024     7091.281       18.109        5.625      499.561       87.976        0.031      346.545       24.867      856.944
06/12/2014  09:35:00     -360.726     -209.362      -18.791      257.626      169.699      102.756    66370.997    28797.708    10558.819       14.000        5.286      417.080      132.852        0.101      346.677       25.094      856.898
06/12/2014  09:36:00     -262.490     -339.115       -0.941      180.733      192.243       91.948    32664.426    36957.424     8454.409       13.097        3.904      428.835       81.483        0.036      346.678       25.096      856.949
06/12/2014  09:37:00     -291.696     -255.999      -11.885      136.588      123.064       74.174    18656.196    15144.719     5501.727        9.502        1.965      388.100       50.831        0.017      346.690       25.113      856.962
06/12/2014  09:38:00     -212.858     -104.828       -7.915      110.706       98.126       61.737    12255.820     9628.634     3811.489        4.102        1.285      237.271       47.447        0.040      346.846       25.384      856.986
06/12/2014  09:39:00     -207.953      -23.180       -7.728       96.402       91.549       48.850     9293.291     8381.276     2386.371        3.195        1.003      209.241       49.356        0.056      346.901       25.479      856.947
06/12/2014  09:40:00     -431.127     -304.363        5.186      259.159      176.125      116.074    67163.129    31020.127    13473.118       19.507        5.583      527.738      120.384        0.052      346.680       25.099      856.919
06/12/2014  09:41:00     -268.146     -264.405        2.354      222.142      149.952       82.923    49347.193    22485.658     6876.281       11.025        3.935      376.580       93.308        0.061      346.819       25.338      856.960
06/12/2014  09:42:00     -322.679     -211.120        5.916      134.233      111.086       67.816    18018.396    12340.152     4598.989        9.184        1.748      385.608       55.725        0.021      346.845       25.383      856.967
06/12/2014  09:43:00     -440.714     -248.270       -6.103      243.152      187.291      100.099    59122.940    35077.925    10019.823       18.004        5.211      505.832       94.730        0.035      346.825       25.347      856.931
06/12/2014  09:44:00     -182.410     -238.812       17.877      190.379      170.115       77.684    36244.056    28939.006     6034.759        8.091        3.561      300.507       83.564        0.077      346.667       25.077      856.918
06/12/2014  09:45:00     -217.969     -345.231       -8.464      114.583      152.608       66.058    13129.271    23289.244     4363.602       10.377        2.039      408.283       66.009        0.026      346.569       24.908      856.866
06/12/2014  09:46:00      -95.710     -219.221       18.094      161.452      172.180       76.341    26066.737    29646.068     5827.884        5.953        3.077      239.203       80.477        0.113      346.746       25.213      856.851
06/12/2014  09:47:00     -253.537     -187.817       12.118      187.328      152.672       81.265    35091.770    23308.815     6603.955        8.234        3.250      315.525       96.112        0.093      346.748       25.214      856.910
06/12/2014  09:48:00     -416.487     -223.018      -17.004      214.810      170.446      106.976    46143.492    29051.965    11443.953       15.505        4.332      472.439      122.883        0.068      346.793       25.291      856.845
06/12/2014  09:49:00     -242.590     -127.214       15.381      158.075      134.927       75.464    24987.775    18205.291     5694.874        6.207        2.444      273.922       84.214        0.095      346.986       25.628      856.831
06/12/2014  09:50:00     -249.899     -197.076        2.211      143.599      136.656       58.730    20620.789    18674.938     3449.246        7.201        2.137      318.258       67.836        0.045      346.964       25.588      856.856
06/12/2014  09:51:00     -203.083     -120.366       23.523      128.945      134.450       62.790    16626.851    18076.889     3942.567        4.746        1.932      236.073       67.682        0.082      346.996       25.642      856.866
06/12/2014  09:52:00     -184.448     -230.582       -9.980      126.246      137.269       70.662    15938.110    18842.674     4993.082        6.352        1.989      295.278       62.554        0.045      346.855       25.399      856.828
06/12/2014  09:53:00     -211.991     -135.427        1.952      120.478       91.998       59.409    14515.007     8463.706     3529.423        4.489        1.325      251.557       57.448        0.052      347.095       25.814      856.805
06/12/2014  09:54:00     -312.650     -186.527       -1.352      169.497      117.896       74.530    28729.125    13899.570     5554.726        9.035        2.409      364.063       76.792        0.044      346.943       25.549      856.833
06/12/2014  09:55:00     -513.857     -161.994      -23.182      225.326      212.036      105.526    50771.921    44959.459    11135.678       19.883        5.343      538.787      123.169        0.052      346.624       25.002      856.809
06/12/2014  09:56:00     -387.160      -48.375      -12.772      177.672      137.638       69.493    31567.423    18944.106     4829.289       10.386        2.767      390.170       81.730        0.044      346.698       25.128      856.790
06/12/2014  09:57:00     -320.886      -55.964      -18.006      212.944      130.998       86.432    45345.335    17160.596     7470.446        8.819        3.499      325.729      105.736        0.105      346.890       25.459      856.808
06/12/2014  09:58:00     -278.002     -203.695       -6.592      159.119      141.845       63.784    25318.866    20120.052     4068.412        8.415        2.475      344.640       75.180        0.048      346.823       25.344      856.814
06/12/2014  09:59:00     -138.863     -200.480        8.002      139.282      182.835       61.021    19399.393    33428.509     3723.527        5.803        2.828      243.875       65.244        0.072      347.015       25.676      856.799
06/12/2014  10:00:00     -354.205     -136.423       -7.875      214.429      144.909       88.456    45979.707    20998.701     7824.435       10.945        3.740      379.569      104.217        0.075      347.125       25.864      856.776
06/12/2014  10:01:00     -367.536     -148.425      -18.799      141.045      124.852       63.268    19893.785    15587.991     4002.846        9.847        1.974      396.374       66.101        0.028      346.998       25.646      856.763
06/12/2014  10:02:00     -265.427      -99.283        4.743      166.932      114.077       60.129    27866.216    13013.669     3615.486        6.240        2.225      283.388       63.315        0.050      347.169       25.941      856.779
06/12/2014  10:03:00     -192.483     -135.623       -2.721       99.110      100.317       52.570     9822.891    10063.469     2763.562        3.905        1.132      235.464       49.371        0.044      347.292       26.153      856.823
06/12/2014  10:04:00     -137.425     -107.565       -4.346      115.570       86.338       40.414    13356.533     7454.302     1633.287        2.646        1.122      174.516       35.215        0.041      347.419       26.373      856.830
06/12/2014  10:05:00     -155.870     -119.213       14.002      137.202       84.210       53.868    18824.344     7091.405     2901.770        3.375        1.441      196.232       51.868        0.070      347.591       26.669      856.800
06/12/2014  10:06:00      -51.454     -110.169       -9.442      133.177      128.579       90.170    17736.053    16532.465     8130.658        2.863        2.120      121.593       63.175        0.270      347.485       26.485      856.728
06/12/2014  10:07:00     -178.627     -168.695        5.444      186.441      105.070       73.071    34760.218    11039.732     5339.358        5.576        2.557      245.694       96.208        0.153      347.219       26.027      856.762
06/12/2014  10:08:00     -194.962      -59.091        9.894      157.884      131.280       80.521    24927.261    17234.473     6483.659        4.511        2.432      203.720       88.159        0.187      347.337       26.231      856.740
06/12/2014  10:09:00     -132.859     -146.985       40.320      213.062      148.782       84.656    45395.457    22135.981     7166.587        5.778        3.735      198.132       70.313        0.126      347.472       26.463      856.792
06/12/2014  10:10:00      -29.732     -125.430       15.443      126.882      189.034       57.720    16099.030    35733.952     3331.577        3.600        2.758      128.905       51.369        0.159      347.614       26.710      856.819
06/12/2014  10:11:00      -50.127     -171.953       -7.581      202.156      129.527       68.700    40866.874    16777.343     4719.753        4.724        3.118      179.110       55.985        0.098      347.192       25.981      856.750
06/12/2014  10:12:00      -95.544     -108.723       16.347      134.352       81.042       65.520    18050.564     6567.765     4292.836        2.506        1.446      144.739       64.266        0.197      347.473       26.466      856.786
06/12/2014  10:13:00     -277.146     -127.826       -6.962      228.388      155.500       81.145    52161.088    24180.352     6584.468        8.805        4.146      305.204      104.044        0.116      347.270       26.115      856.772
06/12/2014  10:14:00     -170.757     -181.986      -33.473      218.772      108.750       73.240    47861.358    11826.586     5364.144        6.421        3.253      249.554       60.328        0.058      347.146       25.901      856.818
06/12/2014  10:15:00      -89.403     -175.874      -12.563       63.135       83.785       46.118     3986.031     7019.954     2126.877        2.610        0.657      197.293       36.740        0.035      347.103       25.827      856.821
06/12/2014  10:16:00     -103.733      -96.355      -14.596       72.484      110.543       47.516     5253.933    12219.818     2257.815        1.999        0.987      141.580       40.862        0.083      347.218       26.026      856.795
06/12/2014  10:17:00     -141.819      -42.042       -1.678      106.264       78.729       40.750    11291.951     6198.311     1660.553        2.051        0.958      147.919       36.693        0.062      347.392       26.328      856.783
06/12/2014  10:18:00     -110.952     -103.249        9.359       96.612      115.120       47.339     9333.801    13252.665     2240.968        2.394        1.241      151.561       54.554        0.130      347.511       26.531      856.792
06/12/2014  10:19:00      -73.810     -181.393        0.581      168.899      132.334       77.284    28526.919    17512.227     5972.863        4.517        2.601      195.835       65.532        0.112      347.403       26.344      856.833
06/12/2014  10:20:00      -62.143     -414.593      -20.558      229.418      248.036      120.284    52632.684    61521.673    14468.320       15.237        6.431      419.225       84.797        0.041      347.327       26.212      856.752
06/12/2014  10:21:00     -274.555     -216.061        5.627      279.708      146.956      115.672    78236.619    21596.025    13380.097       11.763        5.661      349.374      130.224        0.139      347.335       26.227      856.722
06/12/2014  10:22:00      -85.043     -323.522        1.850      195.483      245.001       99.399    38213.793    60025.602     9880.088       10.999        5.406      334.513       72.644        0.047      347.205       26.001      856.894
06/12/2014  10:23:00      -85.164     -315.111       16.350      256.907      219.154       97.863    66001.240    48028.518     9577.111       11.519        6.180      326.417       92.691        0.081      346.972       25.600      856.880
06/12/2014  10:24:00      -48.792     -317.235       11.938      221.435      192.124       75.092    49033.311    36911.740     5638.820        9.735        4.579      320.965       72.104        0.050      346.898       25.474      856.822
06/12/2014  10:25:00     -260.068     -283.559       13.505      153.827      288.882       75.824    23662.699    83453.022     5749.254       13.052        5.643      384.761       92.488        0.058      346.988       25.629      856.810
06/12/2014  10:26:00     -232.019     -334.500      -11.833      198.172      178.166       97.675    39272.125    31743.238     9540.310       12.319        4.028      407.091       85.387        0.044      346.878       25.440      856.801
06/12/2014  10:27:00     -186.069     -378.857      -34.865      188.099      232.621      103.796    35381.369    54112.701    10773.507       13.980        5.013      422.083       73.480        0.030      346.958       25.575      856.870
06/12/2014  10:28:00      -59.954     -244.555      -23.466      157.801      183.453      122.305    24901.128    33655.129    14958.530        6.872        3.676      251.797       84.019        0.111      347.115       25.847      856.821
06/12/2014  10:29:00       48.259     -378.427      -25.242      191.860      222.084       99.569    36810.263    49321.202     9913.905       12.109        4.802      381.492       84.554        0.049      346.777       25.265      856.766
06/12/2014  10:30:00       22.384     -203.193       -2.822      156.107      183.250       79.470    24369.484    33580.639     6315.542        5.302        3.213      204.422       70.292        0.118      347.199       25.993      856.759
06/12/2014  10:31:00       -7.461     -287.348        3.088      119.153      136.750      104.234    14197.435    18700.635    10864.767        6.319        2.188      287.445       79.401        0.076      347.108       25.834      856.793
06/12/2014  10:32:00       11.437     -193.955       15.608      199.531      137.989       93.930    39812.441    19041.100     8822.842        5.282        3.384      194.291       83.934        0.187      347.366       26.280      856.847
06/12/2014  10:33:00     -330.842     -459.603      -10.658      216.439      270.593      120.065    46845.882    73220.522    14415.589       22.762        6.724      566.296      116.327        0.042      346.939       25.544      856.910
06/12/2014  10:34:00     -144.533     -164.090       23.714      186.836      152.139       86.023    34907.537    23146.276     7399.891        5.690        3.273      218.667       67.132        0.094      347.193       25.983      856.890
06/12/2014  10:35:00     -298.519     -168.221        1.555      215.878      126.805       75.928    46603.432    16079.561     5765.100        9.292        3.422      342.655       79.410        0.054      347.235       26.055      856.868
06/12/2014  10:36:00     -243.473     -172.970       -7.009      167.607      119.280       78.446    28092.262    14227.731     6153.780        6.885        2.424      298.659       83.377        0.078      347.279       26.130      856.854
06/12/2014  10:37:00     -239.515     -296.966      -17.345      125.467      163.322       68.221    15741.855    26674.183     4654.091        9.645        2.354      381.518       63.934        0.028      346.973       25.603      856.821
06/12/2014  10:38:00     -252.211     -187.137       25.536      186.766      129.019       78.516    34881.401    16646.002     6164.767        7.848        2.885      314.055       89.122        0.081      347.175       25.951      856.843
06/12/2014  10:39:00     -197.088     -117.716       12.019      172.028      149.662       70.819    29593.654    22398.760     5015.338        5.492        2.850      229.567       76.294        0.110      347.338       26.232      856.907
06/12/2014  10:40:00     -244.787     -421.596       -9.791      200.111      227.023       86.516    40044.338    51539.537     7484.957       16.839        4.953      487.508       74.240        0.023      347.065       25.761      856.900
06/12/2014  10:41:00     -173.392     -353.117        1.186      176.640      184.578       99.655    31201.523    34068.919     9931.024       11.496        3.760      393.391       89.497        0.052      347.076       25.779      856.857
06/12/2014  10:42:00     -245.325     -289.841       -5.747      229.189      178.496      103.732    52527.558    31860.740    10760.250       11.967        4.757      379.726      114.766        0.091      347.210       26.010      856.875
06/12/2014  10:43:00     -279.433     -463.123      -10.214      304.276      282.805      130.761    92584.173    79978.663    17098.343       24.113        9.483      540.893      108.277        0.040      347.010       25.666      856.851
06/12/2014  10:44:00     -299.616     -322.442       21.806      210.113      279.166       96.145    44147.604    77933.560     9243.951       16.274        6.566      440.157       89.198        0.041      347.128       25.870      856.818
06/12/2014  10:45:00     -364.090     -494.112      -24.933      211.653      265.410      118.965    44796.994    70442.732    14152.699       25.334        6.470      613.766      110.803        0.033      346.922       25.515      856.826
06/12/2014  10:46:00     -288.450     -395.397       -2.226      169.209      225.557       98.091    28631.579    50875.977     9621.772       16.432        4.456      489.431       91.156        0.035      346.821       25.341      856.867
06/12/2014  10:47:00     -254.978     -314.060      -15.394      173.238      206.138      103.668    30011.280    42492.690    10747.055       12.355        4.163      404.534       90.996        0.051      346.941       25.547      856.875
06/12/2014  10:48:00     -384.129     -226.824        0.411      265.350      155.608       89.893    70410.775    24213.724     8080.691       15.083        5.135      446.099      106.687        0.057      347.093       25.810      856.855
06/12/2014  10:49:00     -201.522     -302.968       10.380      172.106      156.513       72.278    29620.429    24496.298     5224.169        9.591        2.967      363.869       65.779        0.033      347.283       26.136      856.897
06/12/2014  10:50:00     -282.211      -95.603        8.717      167.729      167.842       78.014    28132.991    28171.011     6086.110        7.561        3.120      297.965       73.812        0.061      347.239       26.061      856.899
06/12/2014  10:51:00     -228.921     -191.034       -4.565      145.785      147.039       73.904    21253.370    21620.473     5461.735        6.862        2.417      298.159       66.637        0.050      347.355       26.263      856.879
06/12/2014  10:52:00     -101.286     -178.977       25.737      178.260      152.859       86.006    31776.465    23365.877     7397.038        5.273        3.127      205.650       62.126        0.091      347.445       26.417      856.900
06/12/2014  10:53:00       -8.904     -438.659      -17.406      189.895      167.690      100.844    36060.121    28119.930    10169.485       13.356        3.717      438.749       87.162        0.039      347.111       25.840      856.900
06/12/2014  10:54:00     -222.941     -388.155      -23.086      188.114      205.633       92.107    35386.803    42285.056     8483.672       14.351        4.308      447.623       76.803        0.029      346.964       25.586      856.908
06/12/2014  10:55:00     -201.315     -164.827        5.496      165.300      136.983       63.647    27324.093    18764.439     4050.924        5.892        2.507      260.184       59.175        0.052      347.180       25.958      856.816
06/12/2014  10:56:00     -132.341     -153.541        6.553      126.032      103.395       72.196    15883.954    10690.580     5212.305        3.645        1.589      202.704       66.221        0.107      347.414       26.363      856.888
06/12/2014  10:57:00     -335.484     -276.697        1.823      217.258      222.698       94.150    47200.857    49594.551     8864.272       14.737        5.283      434.869       87.663        0.041      347.461       26.444      856.897
06/12/2014  10:58:00     -385.732     -353.535        2.783      305.185      224.419      118.406    93137.822    50363.708    14019.932       21.562        7.876      523.236      143.850        0.076      347.411       26.357      856.893
06/12/2014  10:59:00     -271.438     -350.107      -15.926      150.556      223.120       90.628    22666.986    49782.494     8213.450       13.857        4.033      443.005       88.034        0.039      347.415       26.363      856.954
06/12/2014  11:00:00     -218.696     -300.449       12.820      159.930      194.558      100.620    25577.544    37852.667    10124.346       10.589        3.678      371.615      101.153        0.074      347.116       25.849      856.936
06/12/2014  11:01:00     -258.615     -120.410        5.903      141.907      194.389       72.260    20137.676    37786.995     5221.535        7.227        3.157      285.273       66.325        0.054      347.346       26.245      856.919
06/12/2014  11:02:00     -327.426     -182.152      -27.221      163.764      161.738       86.710    26818.766    26159.179     7518.629       10.080        3.025      374.683       81.451        0.047      347.541       26.581      856.949
06/12/2014  11:03:00     -615.031     -381.776      -49.075      244.184      219.648      105.978    59625.716    48245.381    11231.293       32.274        5.955      723.890      135.380        0.035      347.215       26.020      856.940
06/12/2014  11:04:00     -294.032     -231.306        0.167      194.582      176.742       85.148    37862.327    31237.785     7250.169       10.814        3.818      374.108       80.164        0.046      347.258       26.094      856.946
06/12/2014  11:05:00     -286.708     -136.783        2.592      206.121      161.802       71.985    42485.902    26179.796     5181.797        8.737        3.692      317.665       94.685        0.089      347.550       26.599      856.883
06/12/2014  11:06:00     -301.258     -198.219       10.892      157.940      130.365       78.755    24945.133    16995.090     6202.360        8.914        2.407      360.620       85.332        0.056      347.519       26.542      856.895
06/12/2014  11:07:00     -217.784      -85.427        3.149      127.487      141.703       65.690    16253.000    20079.810     4315.229        4.768        2.032      233.940       71.467        0.093      347.597       26.679      856.877
06/12/2014  11:08:00     -177.891      -67.446       13.778      157.243      119.789       60.033    24725.367    14349.410     3603.922        3.952        2.134      190.248       69.668        0.134      347.836       27.093      856.849
06/12/2014  11:09:00     -216.198     -228.137       16.389      169.893      184.923       80.556    28863.674    34196.446     6489.228        8.429        3.477      314.305       83.191        0.070      347.257       26.092      856.836
06/12/2014  11:10:00     -254.725     -228.441       -6.540      162.274      131.199       87.702    26332.836    17213.137     7691.649        8.417        2.562      342.155       58.778        0.030      347.396       26.332      856.838
06/12/2014  11:11:00     -120.180      -75.948       19.769      138.482      125.864       67.870    19177.263    15841.870     4606.280        3.011        1.981      142.166       78.141        0.302      347.746       26.935      856.906
06/12/2014  11:12:00     -329.643     -297.561       10.299      263.718      197.456       98.989    69547.339    38988.938     9798.833       15.780        5.917      444.080       92.529        0.043      347.599       26.682      856.958
06/12/2014  11:13:00     -185.135     -312.985        7.988      203.011      251.461      100.854    41213.296    63232.843    10171.616       12.343        5.731      363.641       99.818        0.075      347.209       26.011      856.921
06/12/2014  11:14:00     -261.673     -179.755        7.033      169.847      113.542       70.564    28847.891    12891.828     4979.316        7.377        2.336      317.466       63.522        0.040      347.352       26.255      856.945
06/12/2014  11:15:00     -262.915     -220.771       -6.833      289.156      184.378      100.478    83611.432    33995.373    10095.797       12.278        6.385      343.313      107.850        0.099      347.377       26.300      856.920
06/12/2014  11:16:00     -259.279     -335.369        3.810      278.026      256.634      108.348    77298.671    65860.923    11739.326       16.727        7.745      423.908      117.927        0.077      347.341       26.237      856.992
06/12/2014  11:17:00     -133.164     -142.895       18.370      168.009      187.898       85.365    28227.002    35305.503     7287.175        5.464        3.541      195.325       86.892        0.198      347.628       26.733      856.933
06/12/2014  11:18:00      -87.947     -470.285        2.199      298.969      250.870      126.161    89382.694    62935.698    15916.597       19.854        8.412      478.437      127.641        0.071      347.087       25.799      857.045
06/12/2014  11:19:00     -282.809     -246.939      -13.341      246.806      180.799      100.236    60913.301    32688.294    10047.230       12.237        5.182      375.446      109.085        0.084      347.098       25.818      856.899
06/12/2014  11:20:00     -333.988     -424.640        8.080      317.578      240.263      111.366   100856.089    57726.357    12402.396       23.142        8.549      540.247      111.104        0.042      347.167       25.937      856.970
06/12/2014  11:21:00     -162.023     -287.567       31.130      225.014      231.757       99.999    50631.151    53711.356     9999.836       11.211        5.717      330.070      109.725        0.111      347.377       26.299      856.964
06/12/2014  11:22:00     -300.060     -236.300       -1.489      199.047      188.798       83.526    39619.593    35644.587     6976.542       11.404        4.112      381.934       80.904        0.045      347.533       26.567      856.946
06/12/2014  11:23:00     -188.995     -118.697        3.170      178.675      190.819       75.183    31924.774    36411.708     5652.424        6.189        3.699      223.178       99.604        0.199      347.610       26.703      856.910
06/12/2014  11:24:00     -175.477     -126.597        0.814      114.745       88.200       62.013    13166.332     7779.182     3845.601        3.580        1.240      216.377       62.125        0.082      347.772       26.981      856.924
06/12/2014  11:25:00     -171.696     -266.244       -2.619      184.819      199.766       84.189    34158.125    39906.341     7087.751        9.075        4.058      316.805       82.895        0.068      347.730       26.907      856.968
06/12/2014  11:26:00     -345.258     -270.515      -10.804      252.265      216.877      113.934    63637.410    47035.455    12980.909       15.805        6.183      438.613       93.117        0.045      347.475       26.467      856.970
06/12/2014  11:27:00     -427.357     -297.425       -4.904      252.103      237.286      107.338    63555.863    56304.566    11521.457       20.122        6.569      520.668      113.423        0.047      347.361       26.273      856.950
06/12/2014  11:28:00     -400.544     -264.599       -2.280      265.282      202.406      112.329    70374.452    40968.038    12617.894       17.718        6.198      480.050      113.090        0.055      347.334       26.225      856.962
06/12/2014  11:29:00     -256.669     -401.907      -25.802      197.232      189.983      110.879    38900.598    36093.681    12294.135       15.766        4.364      476.873      103.146        0.047      347.377       26.297      856.961
06/12/2014  11:30:00     -238.469      -98.483        4.478      179.704      191.042       93.440    32293.352    36496.917     8731.032        7.204        3.876      258.004       88.242        0.117      347.532       26.568      856.893
06/12/2014  11:31:00     -169.964     -192.047        5.887      183.038      215.793       87.241    33502.897    46566.483     7611.063        7.672        4.384      256.456       94.254        0.135      347.695       26.849      856.892
06/12/2014  11:32:00      -98.116     -242.862       -0.061      157.235      202.288       67.306    24722.837    40920.291     4530.102        6.938        3.509      261.933       52.098        0.040      347.697       26.851      856.908
06/12/2014  11:33:00     -111.721     -369.976      -19.034      119.969      177.635       79.739    14392.572    31554.155     6358.324       10.101        2.615      386.476       35.756        0.009      347.411       26.356      856.996
06/12/2014  11:34:00     -160.570     -548.685       -2.556      219.046      309.825      125.388    47981.254    95991.763    15722.255       24.324        7.985      571.697      106.493        0.035      347.286       26.142      856.999
06/12/2014  11:35:00     -522.403     -535.818      -18.880      369.769      354.788      149.061   136729.065   125874.493    22219.301       42.253       14.241      748.335      186.269        0.062      347.086       25.798      856.927
06/12/2014  11:36:00     -331.395     -443.892      -47.359      201.645      255.222      103.692    40660.606    65138.085    10752.102       21.281        5.828      553.952       85.077        0.024      347.228       26.040      856.912
06/12/2014  11:37:00     -213.308     -242.813       31.449      273.410      213.448       92.562    74753.017    45559.973     8567.632       11.714        6.444      323.200      119.443        0.137      347.462       26.448      856.885
06/12/2014  11:38:00     -270.409     -305.147      -22.149      285.434      230.265      112.395    81472.598    53021.863    12632.575       15.690        7.356      407.721      117.266        0.083      347.308       26.179      856.903
06/12/2014  11:39:00     -345.437     -216.949       -7.525      193.774      150.404       89.374    37548.527    22621.389     7987.710       11.729        3.408      407.913       94.288        0.053      347.544       26.585      856.923
06/12/2014  11:40:00     -349.201     -396.196       -8.377      263.289      238.935      113.002    69321.197    57089.833    12769.504       20.905        6.959      528.122       98.625        0.035      347.329       26.216      856.955
06/12/2014  11:41:00     -391.598     -293.046      -13.490      207.156      226.763       96.387    42913.797    51421.379     9290.367       17.150        5.181      489.107       85.075        0.030      347.232       26.049      857.012
06/12/2014  11:42:00     -131.318     -303.411       -2.832      173.045      205.829       81.267    29944.404    42365.764     6604.319        9.410        3.946      330.609       67.003        0.041      347.411       26.357      856.989
06/12/2014  11:43:00     -204.667     -310.833      -11.146      206.077      161.663       86.592    42467.915    26134.889     7498.193       10.735        3.805      372.164       86.433        0.054      347.474       26.464      856.993
06/12/2014  11:44:00     -374.844     -399.631        6.480      300.309      289.184      109.689    90185.364    83627.542    12031.581       24.301        9.292      547.917      127.271        0.054      347.390       26.322      856.994
06/12/2014  11:45:00     -377.472     -419.626      -21.894      188.618      218.195      109.600    35576.677    47609.152    12012.210       20.711        4.760      564.421      109.594        0.038      347.191       25.979      856.976
06/12/2014  11:46:00     -182.460     -337.446       -7.867      165.650      236.737       76.822    27439.885    56044.498     5901.614       11.829        4.469      383.616       88.559        0.053      347.381       26.307      856.977
06/12/2014  11:47:00     -150.752     -441.596        7.011      163.944      227.154       77.360    26877.754    51599.027     5984.548       15.110        4.223      466.619       87.779        0.035      347.445       26.415      856.968
06/12/2014  11:48:00     -320.930     -128.725       -7.815      227.713      140.065       78.046    51853.240    19618.236     6091.224        9.858        3.878      345.783       85.488        0.061      347.608       26.696      856.947
06/12/2014  11:49:00     -581.796     -339.964      -20.249      249.493      198.795      112.010    62246.653    39519.342    12546.249       28.437        5.716      673.842      113.034        0.028      347.179       25.957      856.939
06/12/2014  11:50:00     -665.135     -293.316      -27.736      271.862      241.189      129.302    73909.046    58172.309    16719.078       33.897        7.440      726.938      139.550        0.037      347.269       26.113      856.832
06/12/2014  11:51:00     -398.205     -327.294      -25.036      222.308      222.065      102.392    49421.026    49313.028    10484.049       18.774        5.461      515.450       87.706        0.029      347.543       26.585      856.990
06/12/2014  11:52:00     -378.368     -396.389      -13.304      240.746      326.094      106.825    57958.716   106337.427    11411.683       23.805        8.785      547.984      118.366        0.047      347.406       26.350      857.009
06/12/2014  11:53:00     -314.329     -360.139      -20.196      250.548      273.291      108.575    62774.065    74688.162    11788.469       18.905        7.463      478.019       90.217        0.036      347.200       25.994      857.076
06/12/2014  11:54:00     -390.477     -370.879       -8.593      238.453      254.789       97.350    56859.649    64917.478     9476.951       21.065        6.563      538.538      125.880        0.055      347.202       25.997      857.031
06/12/2014  11:55:00     -250.602     -328.948        0.631      191.834      278.014      117.995    36800.237    77291.696    13922.854       14.949        6.401      413.531      110.802        0.072      347.285       26.140      857.005
06/12/2014  11:56:00     -269.396     -297.165       -5.234      223.337      188.089       85.499    49879.411    35377.317     7310.087       12.672        4.628      401.100       85.014        0.045      347.314       26.189      857.011
06/12/2014  11:57:00     -307.441     -351.508        2.900      185.185      199.283       93.650    34293.369    39713.771     8770.375       15.042        4.139      466.988       85.416        0.033      347.245       26.070      857.018
06/12/2014  11:58:00     -320.706     -224.430        8.542      232.441      174.896       89.783    54029.037    30588.561     8061.005       12.297        4.634      391.434       89.564        0.052      347.546       26.590      857.009
06/12/2014  11:59:00     -352.428     -312.651        8.192      222.895      221.879      103.507    49682.250    49230.185    10713.744       16.580        5.481      471.122      107.220        0.052      347.412       26.360      857.015
06/12/2014  12:00:00     -299.052     -430.393       -6.399      217.087      217.514      107.363    47126.727    47312.219    11526.773       19.032        5.298      524.090       93.383        0.032      347.344       26.242      857.027
06/12/2014  12:01:00     -311.341     -402.125      -15.713      174.169      218.636      102.385    30334.877    47801.502    10482.614       17.373        4.431      508.564      102.982        0.041      347.301       26.168      857.039
06/12/2014  12:02:00     -360.633     -177.546        2.405      213.999      160.302       87.538    45795.591    25696.583     7662.933       12.035        3.958      401.969      102.758        0.065      347.720       26.891      856.987
06/12/2014  12:03:00     -251.312     -127.775       27.599      235.195      181.571       89.747    55316.505    32968.006     8054.445        8.827        4.817      281.929       93.495        0.110      347.561       26.616      856.975
06/12/2014  12:04:00     -272.936     -234.610        0.370      194.710      145.196       92.695    37911.807    21081.875     8592.271        9.855        3.379      359.910       97.970        0.074      347.827       27.074      856.968
06/12/2014  12:05:00     -357.725     -257.192        3.614      239.832      184.134       90.022    57519.572    33905.512     8104.032       14.681        4.976      440.585       88.642        0.040      347.863       27.137      857.001
06/12/2014  12:06:00     -248.531     -170.354       20.916      193.466      171.976       87.854    37428.964    29575.829     7718.278        8.296        3.736      301.310       92.592        0.094      347.832       27.084      856.981
06/12/2014  12:07:00     -316.735     -265.826       -6.211      198.343      180.754      101.522    39339.800    32672.174    10306.665       12.665        4.116      413.502       94.358        0.052      347.781       26.997      856.931
06/12/2014  12:08:00     -474.558     -377.078      -20.226      243.337      193.597       99.015    59212.745    37479.840     9803.914       23.713        5.325      606.130      110.151        0.033      347.613       26.705      856.891
06/12/2014  12:09:00     -656.259     -378.856      -28.812      318.596      236.570      140.490   101503.301    55965.366    19737.395       37.609        8.860      757.765      159.108        0.044      347.136       25.884      856.885
06/12/2014  12:10:00     -454.965     -248.468       -7.365      265.110      229.708      108.110    70283.394    52765.616    11687.712       20.173        6.737      518.391      117.871        0.052      347.345       26.244      856.924
06/12/2014  12:11:00     -317.504     -249.851       -2.817      197.901      239.254       97.519    39164.797    57242.488     9509.864       13.456        5.296      404.023       75.858        0.035      347.579       26.646      856.967
06/12/2014  12:12:00     -338.371     -266.344        6.594      235.309      178.013       91.915    55370.269    31688.483     8448.427       14.047        4.775      430.621      114.506        0.071      347.652       26.773      856.956
06/12/2014  12:13:00     -233.909     -123.403       27.037      262.114      190.023      101.263    68703.733    36108.665    10254.211        9.285        5.753      264.465      119.692        0.205      347.704       26.863      856.904
06/12/2014  12:14:00     -491.695     -126.982      -18.982      237.362      165.172       97.673    56340.708    27281.797     9540.071       17.569        4.658      507.827      110.013        0.047      347.622       26.722      856.850
06/12/2014  12:15:00     -330.362      -68.925        7.508      255.961      198.010      102.104    65516.019    39208.082    10425.231       11.452        5.757      337.476       95.102        0.079      347.845       27.106      856.851
06/12/2014  12:16:00     -467.296     -243.519      -13.110      281.177      166.065      102.584    79060.659    27577.558    10523.431       19.748        5.858      526.941      107.563        0.042      347.724       26.898      856.860
06/12/2014  12:17:00     -600.342     -355.803        1.388      346.248      241.790      146.778   119887.891    58462.181    21543.915       34.341        9.995      697.858      162.684        0.054      347.393       26.327      856.877
06/12/2014  12:18:00     -492.382     -183.768       -0.593      293.109      256.929      123.931    85913.156    66012.336    15358.853       22.171        8.364      525.557      136.553        0.068      347.380       26.304      856.873
06/12/2014  12:19:00     -442.982     -206.443       -4.464      276.768      172.846      108.418    76600.774    29875.645    11754.493       17.853        5.912      488.724      123.584        0.064      347.407       26.350      856.928
06/12/2014  12:20:00     -236.070      -93.169       16.127      199.488      162.630       93.523    39795.336    26448.494     8746.463        6.981        3.750      253.791      100.641        0.157      347.528       26.560      856.926
06/12/2014  12:21:00     -419.573     -342.553        0.088      301.859      208.645      123.763    91118.738    43532.632    15317.285       22.165        7.498      541.650      133.573        0.061      347.352       26.256      856.926
06/12/2014  12:22:00     -561.884     -374.602       -6.218      271.125      265.141      136.776    73508.756    70299.642    18707.605       30.927        8.126      675.308      152.644        0.051      347.145       25.897      856.847
06/12/2014  12:23:00     -583.541     -284.377      -40.107      199.573      161.076       98.079    39829.307    25945.433     9619.407       24.918        3.770      649.146       90.979        0.020      347.296       26.158      856.865
06/12/2014  12:24:00     -505.868     -376.614      -16.485      300.248      252.726      127.582    90148.706    63870.247    16277.076       28.412        8.515      630.667      143.611        0.052      347.350       26.253      856.829
06/12/2014  12:25:00     -617.086     -400.360      -19.175      328.375      222.447      141.495   107829.915    49482.819    20020.846       35.936        8.867      735.583      162.993        0.049      347.308       26.180      856.740
06/12/2014  12:26:00     -488.789      -48.724       -2.062      291.467      176.894      107.619    84952.928    31291.577    11581.955       18.453        6.391      491.211      136.284        0.077      347.647       26.764      856.756
06/12/2014  12:27:00     -512.617     -147.830       -0.328      348.694      242.441      138.485   121587.716    58777.523    19177.981       24.205        9.977      533.507      152.226        0.081      347.550       26.597      856.777
06/12/2014  12:28:00     -362.168     -201.214        2.633      205.549      156.088       95.232    42250.561    24363.443     9069.173       12.366        3.784      414.310      106.304        0.066      347.600       26.684      856.841
06/12/2014  12:29:00     -337.212     -269.600        3.201      207.727      200.939       92.841    43150.551    40376.535     8619.428       13.926        4.607      431.736      108.784        0.063      347.496       26.503      856.877
06/12/2014  12:30:00     -425.198     -246.921      -24.251      230.407      232.578       98.025    53087.497    54092.666     9608.893       17.955        5.839      491.694      118.688        0.058      347.483       26.480      856.884
06/12/2014  12:31:00     -618.194     -475.773        1.834      408.880      226.738      148.547   167182.595    51410.021    22066.085       42.454       12.033      780.079      181.826        0.054      347.311       26.185      856.820
06/12/2014  12:32:00     -519.820     -482.949       -6.276      279.535      227.528      129.083    78139.791    51769.170    16662.446       32.500        7.329      709.544      138.097        0.038      347.212       26.013      856.814
06/12/2014  12:33:00     -534.332     -384.870      -11.339      256.619      186.501      116.066    65853.136    34782.711    13471.403       27.391        5.705      658.510      101.286        0.024      347.388       26.316      856.814
06/12/2014  12:34:00     -445.911     -287.379       -2.645      292.453      196.057       99.686    85528.840    38438.349     9937.233       20.764        6.695      530.493      125.440        0.056      347.640       26.751      856.854
06/12/2014  12:35:00     -501.696     -259.542       -8.797      294.020      188.114      112.223    86448.044    35386.878    12594.002       22.676        6.721      564.855      116.250        0.042      347.594       26.674      856.881
06/12/2014  12:36:00     -537.161     -432.635       -7.590      354.538      280.833      158.700   125697.243    78867.351    25185.835       35.272       11.488      689.721      199.287        0.083      347.387       26.317      856.847
06/12/2014  12:37:00     -604.711     -398.568       -0.306      312.699      242.054      136.242    97780.893    58590.167    18561.751       34.970        8.747      724.246      160.509        0.049      347.204       26.001      856.870
06/12/2014  12:38:00     -654.442     -255.962      -28.440      304.274      236.534      129.226    92582.441    55948.526    16699.265       32.989        8.262      702.717      128.879        0.034      347.241       26.063      856.825
06/12/2014  12:39:00     -422.398     -280.427        9.404      244.367      256.943      106.428    59715.194    66019.535    11326.847       19.708        6.853      507.010      110.782        0.048      347.521       26.548      856.829
06/12/2014  12:40:00     -538.914     -292.227      -25.803      306.927      281.578      142.835    94204.253    79285.987    20401.816       28.515        9.695      613.046      163.306        0.071      347.436       26.401      856.793
06/12/2014  12:41:00     -408.808     -387.050        7.382      319.362      289.623      142.581   101992.153    83881.759    20329.284       26.155       10.310      562.967      150.658        0.072      347.494       26.501      856.798
06/12/2014  12:42:00     -686.383     -304.761      -18.951      265.039      222.484      114.951    70245.749    49499.000    13213.718       34.863        6.648      751.001      112.458        0.022      347.473       26.464      856.831
06/12/2014  12:43:00     -530.185     -324.158        7.853      288.447      173.070      105.015    83201.400    29953.392    11028.070       25.518        6.209      621.429       99.095        0.025      347.392       26.325      856.892
06/12/2014  12:44:00     -554.400     -405.573      -15.323      283.177      208.405      119.561    80189.217    43432.653    14294.850       30.497        6.896      686.913      143.344        0.044      347.328       26.214      856.885
06/12/2014  12:45:00     -364.166     -220.201        8.048      256.081      222.974      105.331    65577.348    49717.261    11094.602       15.375        6.319      425.564      133.471        0.098      347.415       26.366      856.900
06/12/2014  12:46:00     -388.112     -360.591        1.092      298.321      266.243      108.692    88995.153    70885.099    11813.919       22.614        8.585      529.771      125.538        0.056      347.365       26.278      856.844
06/12/2014  12:47:00     -618.463     -374.435      -14.486      227.077      242.326      129.683    51563.749    58722.016    16817.687       32.498        6.355      722.979      130.400        0.033      347.373       26.292      856.869
06/12/2014  12:48:00     -475.810     -133.110       -8.254      288.035      167.479      111.848    82964.380    28049.180    12509.921       18.383        6.176      494.078      125.299        0.064      347.445       26.417      856.886
06/12/2014  12:49:00     -239.039     -152.409       12.912      230.700      203.519      116.619    53222.266    41419.883    13599.926        9.437        5.412      283.493      124.700        0.193      347.706       26.867      856.891
06/12/2014  12:50:00     -481.993     -330.281       -3.650      280.473      186.401      100.444    78665.249    34745.262    10089.093       23.243        6.175      584.297      116.792        0.040      347.499       26.509      856.885
06/12/2014  12:51:00     -303.077     -275.408       21.723      250.891      173.527       95.912    62946.090    30111.598     9199.029       13.520        5.113      409.519      114.039        0.078      347.632       26.739      856.858
06/12/2014  12:52:00     -558.292     -367.645        6.184      238.860      220.883      116.137    57054.170    48789.103    13487.856       28.309        5.967      668.471      121.457        0.033      347.369       26.284      856.869
06/12/2014  12:53:00     -293.296     -132.014        8.519      203.434      160.354       72.139    41385.335    25713.452     5204.072        8.790        3.615      321.637       73.816        0.053      347.477       26.470      856.847
06/12/2014  12:54:00     -348.590     -151.006       -0.666      277.056      204.457      112.036    76760.018    41802.804    12552.123       13.769        6.556      379.892      119.690        0.099      347.654       26.776      856.770
06/12/2014  12:55:00     -590.324     -394.490       -6.127      281.967      222.346      113.782    79505.563    49437.624    12946.300       32.299        7.094      710.003      109.386        0.024      347.631       26.737      856.834
06/12/2014  12:56:00     -441.563     -321.785       12.018      231.942      191.444      107.449    53796.936    36650.712    11545.375       20.031        5.100      546.373      129.578        0.056      347.496       26.504      856.857
06/12/2014  12:57:00     -600.929     -341.549      -40.957      340.401      247.334      151.658   115872.555    61174.043    23000.018       33.971       10.002      691.210      160.913        0.054      347.590       26.666      856.848
06/12/2014  12:58:00     -521.719     -183.460        1.948      329.232      301.700      151.082   108393.515    91022.953    22825.821       26.400       11.112      553.035      170.069        0.095      347.313       26.189      856.870
06/12/2014  12:59:00     -549.699     -359.261       -4.254      298.652      217.287      139.467    89193.052    47213.835    19450.921       29.353        7.793      656.687      156.686        0.057      347.223       26.032      856.895
06/12/2014  13:00:00     -513.967     -312.493        2.784      294.236      242.791      122.389    86574.830    58947.442    14979.127       26.113        8.025      601.510      149.408        0.062      347.260       26.097      856.938
06/12/2014  13:01:00     -419.620     -245.940       -2.634      230.292      160.725       92.787    53034.333    25832.451     8609.397       16.201        4.374      486.382       96.263        0.039      347.424       26.380      856.932
06/12/2014  13:02:00     -565.017     -332.427        1.950      284.465      216.014      125.233    80920.332    46662.082    15683.354       28.648        7.163      655.555      154.995        0.056      347.320       26.200      856.926
06/12/2014  13:03:00     -496.068     -334.675      -15.825      200.382      151.987       98.805    40152.850    23100.015     9762.422       21.566        3.651      598.408       96.022        0.026      347.036       25.711      856.930
06/12/2014  13:04:00     -421.128     -336.151      -14.342      231.740      203.929       97.534    53703.653    41587.215     9512.816       19.766        5.240      538.838       96.261        0.032      347.236       26.055      856.873
06/12/2014  13:05:00     -491.896     -304.277       -8.116      305.772      234.230      125.827    93496.364    54863.577    15832.468       24.937        8.210      578.400      143.977        0.062      347.425       26.382      856.830
06/12/2014  13:06:00     -559.623     -343.474      -13.816      294.179      215.863      116.494    86541.109    46596.907    13570.833       28.900        7.335      656.622      127.971        0.038      347.419       26.371      856.874
06/12/2014  13:07:00     -426.591     -212.544       -9.515      251.378      163.900       89.498    63190.947    26863.092     8009.850       16.264        4.903      476.608       96.181        0.041      347.324       26.207      856.903
06/12/2014  13:08:00     -294.975     -389.119        6.799      244.007      162.869       86.893    59539.561    26526.403     7550.358       16.602        4.681      488.287       98.752        0.041      347.424       26.379      856.864
06/12/2014  13:09:00     -470.071     -301.374       -6.382      195.983      220.470      105.635    38409.465    48607.161    11158.839       20.498        4.909      558.384       75.026        0.018      347.535       26.571      856.783
06/12/2014  13:10:00     -582.969     -296.540      -14.222      291.999      267.542      126.773    85263.535    71578.597    16071.384       30.042        8.646      654.056      144.419        0.049      347.544       26.587      856.782
06/12/2014  13:11:00     -816.799     -173.358      -39.665      305.661      326.470      128.261    93428.734   106582.438    16450.919       45.758       10.823      834.993      125.846        0.023      347.461       26.442      856.757
06/12/2014  13:12:00     -393.153     -171.407       -0.850      246.079      143.174       91.622    60554.933    20498.680     8394.551       13.668        4.472      428.894      104.707        0.060      347.716       26.883      856.844
06/12/2014  13:13:00     -473.666     -145.479      -21.830      262.541      141.912       99.230    68927.963    20138.901     9846.617       17.244        4.946      495.504      115.385        0.054      347.591       26.667      856.833
06/12/2014  13:14:00     -554.066     -310.727      -23.499      277.634      222.594      105.905    77080.654    49548.051    11215.929       27.094        6.892      635.248      130.467        0.042      347.517       26.539      856.847
06/12/2014  13:15:00     -476.156     -247.334       -2.041      241.069      177.899       93.277    58114.048    31647.984     8700.522       19.316        4.923      536.562       99.552        0.034      347.653       26.775      856.869
06/12/2014  13:16:00     -500.134     -286.341       -8.302      201.146      204.011       93.126    40459.748    41620.380     8672.545       21.146        4.538      576.303       88.772        0.024      347.380       26.305      856.841
06/12/2014  13:17:00     -583.896     -375.734      -21.220      290.270      225.556      132.131    84256.894    50875.436    17458.543       31.755        7.630      694.342      148.068        0.045      347.343       26.239      856.791
06/12/2014  13:18:00     -446.588     -221.895        1.465      344.804      221.279      120.396   118890.006    48964.277    14495.116       21.548        9.117      498.677      152.208        0.093      347.464       26.448      856.787
06/12/2014  13:19:00     -491.861     -244.394        0.646      244.665      170.437       97.113    59860.809    29048.635     9430.840       19.998        4.917      549.232      101.367        0.034      347.448       26.420      856.836
06/12/2014  13:20:00     -367.224     -285.822        8.845      360.313      244.135      113.910   129825.120    59601.843    12975.525       20.947       10.120      465.347      147.211        0.100      347.534       26.570      856.878
06/12/2014  13:21:00     -476.150     -313.618       22.385      292.417      200.860      122.441    85507.721    40344.556    14991.900       23.318        7.042      570.154      139.292        0.060      347.554       26.602      856.877
06/12/2014  13:22:00     -361.465     -236.707       -1.276      250.893      182.404       97.929    62947.332    33271.377     9590.150       14.623        5.290      432.073      121.564        0.079      347.626       26.727      856.883
06/12/2014  13:23:00     -412.481     -224.473        0.069      222.782      199.391      106.402    49631.932    39756.580    11321.399       16.060        5.035      469.605      115.370        0.060      347.477       26.472      856.870
06/12/2014  13:24:00     -219.465     -197.783       26.336      172.265      145.943       90.770    29675.362    21299.383     8239.152        7.358        2.961      295.437       98.923        0.112      347.606       26.694      856.878
06/12/2014  13:25:00     -187.925     -231.916        0.683      116.806      183.743       62.401    13643.624    33761.545     3893.931        7.019        2.565      298.497       48.325        0.026      347.628       26.732      856.825
06/12/2014  13:26:00     -263.358     -403.037      -20.444      186.426      275.609       96.647    34754.828    75960.183     9340.677       17.611        6.003      481.452       87.867        0.033      347.564       26.620      856.793
06/12/2014  13:27:00     -297.709     -235.668        6.873      284.575      204.879      100.906    80982.978    41975.356    10182.078       13.865        6.657      379.697      120.247        0.100      347.806       27.040      856.811
06/12/2014  13:28:00     -483.139     -350.657      -29.714      286.464      219.184      105.226    82061.679    48041.689    11072.473       24.919        7.059      596.979       78.271        0.017      347.291       26.150      856.819
06/12/2014  13:29:00     -549.530     -390.786      -11.032      241.025      160.882      109.203    58093.259    25882.890    11925.200       27.534        4.795      674.312      132.589        0.039      347.114       25.846      856.826
06/12/2014  13:30:00     -496.790     -292.277       -9.890      217.986      166.570       99.906    47518.105    27745.502     9981.127       20.877        4.262      576.390       99.257        0.030      347.338       26.232      856.794
06/12/2014  13:31:00     -532.980     -280.910      -27.064      257.192      212.322      101.686    66147.937    45080.599    10340.061       24.262        6.078      602.477      106.934        0.032      347.426       26.383      856.774
06/12/2014  13:32:00     -343.670     -123.225      -14.125      214.359      190.707      103.465    45949.747    36369.155    10704.941       11.324        4.651      365.094      109.019        0.089      347.472       26.462      856.769
06/12/2014  13:33:00     -408.303     -311.972       -0.557      214.736      273.782       97.534    46111.735    74956.811     9512.873       19.728        6.529      513.846      117.765        0.053      347.555       26.605      856.799
06/12/2014  13:34:00     -298.686     -483.668      -11.471      222.733      235.552      116.958    49610.165    55484.773    13679.246       22.100        5.939      568.461      100.855        0.031      347.385       26.313      856.899
06/12/2014  13:35:00     -360.176     -210.692      -10.724      222.532      157.135       99.767    49520.667    24691.383     9953.397       12.918        4.208      417.274      103.485        0.062      347.526       26.556      856.894
06/12/2014  13:36:00     -311.320     -272.991       -9.791      197.659      176.053       86.845    39069.171    30994.685     7542.045       12.456        3.880      414.058       88.981        0.046      347.150       25.906      856.858
06/12/2014  13:37:00     -365.422     -163.425       -1.251      185.255      145.663       72.689    34319.411    21217.819     5283.655       11.052        3.041      400.301       82.646        0.043      347.376       26.297      856.804
06/12/2014  13:38:00     -490.271     -209.407       -6.147      208.458      168.819       95.056    43454.674    28499.747     9035.701       18.261        4.050      533.120      104.397        0.038      347.273       26.120      856.781
06/12/2014  13:39:00     -373.222     -205.435      -17.232      187.656      159.685       75.047    35214.588    25499.264     5632.041       12.406        3.317      426.026       79.753        0.035      347.506       26.521      856.786
06/12/2014  13:40:00     -313.057     -173.459       18.638      268.133      201.600      108.208    71895.452    40642.508    11708.966       12.632        6.212      357.900      138.246        0.149      347.620       26.719      856.791
06/12/2014  13:41:00     -569.166     -304.298      -23.029      253.126      187.160       97.072    64072.967    35028.850     9422.952       26.278        5.426      645.405      102.294        0.025      347.411       26.357      856.772
06/12/2014  13:42:00     -568.428     -333.032       -0.302      295.994      181.607      117.582    87612.243    32981.118    13825.583       28.419        6.721      658.803      128.787        0.038      347.283       26.137      856.864
06/12/2014  13:43:00     -440.083     -227.683        0.905      220.090      147.496      104.715    48439.777    21755.215    10965.168       16.332        4.058      495.492      110.403        0.050      347.189       25.975      856.813
06/12/2014  13:44:00     -584.909      -63.016      -23.613      215.769      166.847       84.365    46556.242    27837.801     7117.511       21.406        4.076      588.293       91.083        0.024      347.198       25.990      856.708
06/12/2014  13:45:00     -378.872       -5.991        6.362      211.888      174.290       95.972    44896.622    30377.017     9210.705       11.404        4.224      378.920       99.703        0.069      347.738       26.921      856.605
06/12/2014  13:46:00     -668.812     -215.428      -38.096      414.176      275.888      137.010   171541.785    76113.941    18771.677       38.074       13.321      702.651      175.521        0.062      347.466       26.453      856.533
06/12/2014  13:47:00     -682.334     -137.391      -32.218      259.276      245.228      118.340    67224.009    60136.706    14004.459       31.340        7.068      696.029      123.730        0.032      347.343       26.241      856.620
06/12/2014  13:48:00     -351.283     -130.402      -12.302      277.310      200.502      100.269    76900.631    40201.173    10053.929       13.383        6.358      374.705      129.526        0.119      347.479       26.476      856.722
06/12/2014  13:49:00     -700.015     -272.149      -28.558      326.622      239.636      133.226   106682.107    57425.361    17749.141       37.334        9.093      751.056      124.816        0.028      347.321       26.201      856.723
06/12/2014  13:50:00     -498.991      -60.468      -13.490      231.249      182.683      103.417    53476.102    33373.164    10695.144       17.517        4.877      502.641      120.168        0.057      347.492       26.497      856.785
06/12/2014  13:51:00     -552.733     -203.510      -14.051      332.117      206.248      111.579   110301.464    42538.377    12449.957       25.618        8.264      589.007      126.783        0.046      347.554       26.604      856.759
06/12/2014  13:52:00     -287.333     -274.172       17.037      251.246      191.309      134.631    63124.797    36599.226    18125.558       13.791        5.892      397.153      140.894        0.126      347.706       26.865      856.797
06/12/2014  13:53:00     -312.848     -297.276       -2.011      246.016      195.670      104.793    60523.664    38286.614    10981.557       14.800        5.490      431.563      106.621        0.061      347.739       26.922      856.803
06/12/2014  13:54:00     -204.055     -184.893        0.530      137.371      164.708       86.070    18870.709    27128.700     7407.985        6.461        2.670      275.361       87.837        0.102      347.756       26.952      856.880
06/12/2014  13:55:00     -314.080     -164.624       14.086      175.868      159.901       93.481    30929.668    25568.314     8738.655        9.558        3.262      354.608      100.667        0.081      347.589       26.665      856.859
06/12/2014  13:56:00     -294.282     -421.595        4.416      236.884      265.645      118.784    56113.894    70567.247    14109.702       20.255        7.040      514.145      108.736        0.045      347.481       26.477      856.848
06/12/2014  13:57:00     -500.364     -282.856      -22.720      283.140      209.569      119.678    80168.491    43919.317    14322.856       23.462        6.921      574.779      135.377        0.055      347.474       26.466      856.846
06/12/2014  13:58:00     -554.024     -178.216      -29.751      323.730      184.659      106.457   104800.887    34099.027    11333.161       24.488        7.512      581.982      139.620        0.058      347.360       26.270      856.782
06/12/2014  13:59:00     -348.623      -84.923       -6.517      208.821      121.757       85.025    43606.009    14824.835     7229.273        9.721        3.283      358.818       95.744        0.071      347.715       26.882      856.764
06/12/2014  14:00:00     -280.389     -360.224       -0.154      228.478      207.594      105.756    52202.119    43095.131    11184.322       15.741        5.324      456.486       97.820        0.046      347.821       27.065      856.846
06/12/2014  14:01:00     -235.102     -356.706        9.784      183.534      231.948      109.174    33684.819    53799.746    11918.955       14.099        4.970      427.214      104.594        0.060      347.896       27.196      856.932
06/12/2014  14:02:00     -364.044     -282.858      -11.560      192.407      193.184      105.692    37020.518    37319.973    11170.903       14.907        4.276      461.017       90.476        0.039      347.762       26.962      856.955
06/12/2014  14:03:00     -544.070     -325.954       -5.355      261.983      183.563      105.463    68635.139    33695.277    11122.462       25.785        5.673      634.238      116.428        0.034      347.270       26.115      856.883
06/12/2014  14:04:00     -678.251     -306.671      -19.933      348.675      277.532      138.688   121574.308    77023.890    19234.494       38.611       10.892      744.360      165.355        0.049      347.247       26.073      856.789
06/12/2014  14:05:00     -627.591     -363.368      -12.971      339.638      255.000      139.996   115353.880    65024.848    19598.942       36.299        9.999      725.194      163.548        0.051      347.228       26.042      856.720
06/12/2014  14:06:00     -894.571     -436.585      -42.457      333.441      235.366      127.661   111183.208    55396.922    16297.223       58.773        9.144      995.421      153.299        0.024      347.335       26.227      856.777
06/12/2014  14:07:00     -461.941     -196.940        2.422      255.857      259.094      118.748    65462.815    67129.518    14101.155       19.941        7.335      502.170      128.990        0.066      347.699       26.855      856.863
06/12/2014  14:08:00     -316.752     -215.490      -34.835      162.445      169.516       76.109    26388.397    28735.753     5792.604       10.444        3.046      383.103       83.305        0.047      347.886       27.177      856.930
06/12/2014  14:09:00     -492.252     -218.698        6.778      388.686      252.900      116.355   151076.423    63958.445    13538.562       25.933       11.429      538.647      160.095        0.088      347.687       26.833      856.893
06/12/2014  14:10:00     -355.000     -197.370        3.776      275.082      216.316      109.283    75670.027    46792.653    11942.763       14.967        6.720      406.177      122.329        0.091      347.661       26.788      856.891
06/12/2014  14:11:00     -530.235     -221.465      -11.598      333.942      203.897      121.632   111517.265    41574.177    14794.388       24.907        8.394      574.627      154.147        0.072      347.518       26.542      856.827
06/12/2014  14:12:00     -305.449     -181.143       15.315      207.486      157.051       98.760    43050.527    24665.118     9753.595       10.189        3.873      355.123       89.244        0.063      347.720       26.890      856.860
06/12/2014  14:13:00     -406.037     -223.409       -1.853      254.396      172.214       97.806    64717.477    29657.794     9566.101       15.934        5.197      463.441      109.111        0.055      347.694       26.844      856.881
06/12/2014  14:14:00     -587.501     -416.521      -21.119      317.903      251.788      125.406   101062.385    63396.981    15726.762       34.960        9.009      720.172      135.480        0.035      347.254       26.086      856.870
06/12/2014  14:15:00     -522.405     -245.643       -6.931      318.919      278.680      140.745   101709.338    77662.583    19809.247       26.620        9.959      577.276      160.843        0.078      347.349       26.251      856.797
06/12/2014  14:16:00     -524.366     -371.946        6.712      399.595      284.050      153.640   159676.175    80684.227    23605.392       33.860       13.198      642.886      182.239        0.080      347.152       25.911      856.793
06/12/2014  14:17:00     -552.787     -429.600      -23.570      213.847      209.004      110.664    45730.480    43682.630    12246.514       29.615        5.083      700.093      110.130        0.025      347.113       25.843      856.813
06/12/2014  14:18:00     -467.260     -144.029      -20.646      292.144      192.394      115.759    85347.909    37015.631    13400.084       18.761        6.788      488.954      137.805        0.079      347.410       26.356      856.786
06/12/2014  14:19:00     -365.612     -158.301      -13.934      191.395      166.380       95.905    36632.132    27682.139     9197.831       11.620        3.676      398.411       93.199        0.055      347.663       26.793      856.814
06/12/2014  14:20:00     -570.885     -266.619      -41.703      322.607      212.726      120.952   104075.555    45252.463    14629.434       28.131        8.198      630.075      137.149        0.047      347.389       26.320      856.805
06/12/2014  14:21:00     -592.079     -302.406       -4.990      325.721      246.507      136.993   106094.212    60765.548    18767.118       31.379        9.281      664.836      154.701        0.054      347.254       26.085      856.786
06/12/2014  14:22:00     -586.081     -317.390      -10.677      297.083      245.961      110.550    88258.221    60496.869    12221.380       30.263        8.049      666.504      127.948        0.037      347.427       26.386      856.869
06/12/2014  14:23:00     -256.656     -189.170        9.670      204.454      227.026      110.456    41801.490    51540.830    12200.596       10.363        5.277      318.838      115.131        0.130      347.588       26.663      856.858
06/12/2014  14:24:00     -483.433     -315.795      -17.133      369.630      256.907      153.202   136626.538    66000.976    23470.965       27.987       11.305      577.438      167.514        0.084      347.393       26.327      856.812
06/12/2014  14:25:00     -700.596     -359.022      -24.779      285.874      311.987      142.782    81724.150    97336.166    20386.684       40.986        9.972      787.230      150.555        0.037      346.954       25.570      856.877
06/12/2014  14:26:00     -331.523     -224.505       -0.472      240.797      175.556      113.106    57983.270    30820.065    12793.002       13.093        5.080      400.388      127.861        0.102      347.117       25.850      856.841
06/12/2014  14:27:00     -473.321     -100.697      -17.025      328.114      197.729      110.693   107658.717    39096.834    12253.010       19.670        7.950      483.914      115.906        0.057      347.279       26.129      856.806
06/12/2014  14:28:00     -642.244     -124.377      -27.103      273.581      226.126      106.175    74846.725    51132.898    11273.090       28.294        6.863      654.176       90.453        0.019      347.332       26.220      856.820
06/12/2014  14:29:00     -278.663      -67.442       11.506      187.501      161.338       97.398    35156.649    26029.959     9486.282        7.649        3.534      286.708       95.430        0.111      347.646       26.762      856.812
06/12/2014  14:30:00     -492.764     -246.129       -0.232      254.619      192.322      107.160    64830.595    36987.626    11483.179       20.833        5.665      550.814      109.865        0.040      347.546       26.591      856.784
06/12/2014  14:31:00     -498.552     -377.380       -9.210      275.131      236.469      126.119    75696.795    55917.363    15905.922       26.926        7.376      625.275      142.656        0.052      347.379       26.303      856.725
06/12/2014  14:32:00     -469.474     -240.392       22.901      295.420      214.199      118.444    87272.952    45881.137    14028.930       21.292        7.359      527.441      153.451        0.085      347.596       26.677      856.742
06/12/2014  14:33:00     -495.979     -193.623        2.835      269.094      241.649      125.956    72411.724    58394.470    15864.868       21.505        7.334      532.433      134.830        0.064      347.380       26.304      856.791
06/12/2014  14:34:00     -654.913     -181.766      -43.293      344.327      285.066      130.460   118560.937    81262.454    17019.837       34.029       10.842      679.669      149.129        0.048      347.434       26.396      856.784
06/12/2014  14:35:00     -533.900     -174.789      -26.825      230.123      245.158      106.039    52956.707    60102.455    11244.359       22.029        6.215      561.783      106.644        0.036      347.558       26.610      856.793
06/12/2014  14:36:00     -592.147     -297.430      -31.979      321.685      229.254      119.155   103480.989    52557.556    14198.028       30.515        8.512      662.648      126.835        0.037      347.471       26.460      856.803
06/12/2014  14:37:00     -473.751     -191.289       -9.963      286.984      218.060      105.942    82359.575    47550.076    11223.807       20.110        7.057      510.912      114.098        0.050      347.377       26.298      856.773
06/12/2014  14:38:00     -457.084      -92.031       -6.183      295.909      263.058      118.147    87561.885    69199.720    13958.649       19.404        8.536      466.257      140.349        0.091      347.474       26.467      856.753
06/12/2014  14:39:00     -480.420     -196.835       19.557      323.692      293.776      136.552   104776.684    86304.289    18646.395       23.979       10.486      519.180      155.374        0.090      347.318       26.197      856.780
06/12/2014  14:40:00     -596.951     -241.882      -25.147      283.172      188.539      129.771    80186.099    35546.990    16840.590       27.400        6.629      644.094      150.563        0.055      347.153       25.914      856.830
06/12/2014  14:41:00     -441.858     -331.734      -27.324      225.578      191.164      112.833    50885.368    36543.767    12731.382       20.308        5.008      552.527      125.979        0.052      346.990       25.631      856.815
06/12/2014  14:42:00     -285.991     -147.986        3.436      259.140      170.414      112.522    67153.747    29040.932    12661.267       10.626        5.443      322.011      134.965        0.176      347.388       26.316      856.713
06/12/2014  14:43:00     -683.387     -373.689      -19.842      437.432      280.459      163.021   191347.172    78657.276    26575.766       45.176       14.829      778.885      195.910        0.063      347.246       26.073      856.766
06/12/2014  14:44:00     -696.134     -293.318      -24.796      322.738      226.551      116.848   104160.014    51325.295    13653.352       37.016        8.457      755.405      114.538        0.023      347.005       25.658      856.787
06/12/2014  14:45:00     -552.015     -276.397      -18.456      256.967      193.192      103.809    66031.866    37323.275    10776.316       24.777        5.707      617.346      119.420        0.037      347.126       25.866      856.842
06/12/2014  14:46:00     -478.847     -125.392      -13.972      263.215      233.399      108.721    69282.311    54475.220    11820.218       19.037        6.779      494.993      107.407        0.047      347.259       26.097      856.862
06/12/2014  14:47:00     -459.700     -295.487      -33.931      214.492      219.038       99.612    46006.644    47977.812     9922.637       20.183        5.195      546.476       95.154        0.030      346.985       25.624      856.852
06/12/2014  14:48:00     -524.231      -78.570      -50.537      160.779      183.412       74.952    25849.995    33640.068     5617.823       17.431        3.255      530.086       71.075        0.018      347.038       25.714      856.861
06/12/2014  14:49:00     -372.324     -183.397      -15.006      255.097      232.896      126.760    65074.520    54240.379    16068.059       15.391        6.769      415.042      154.141        0.138      347.273       26.120      856.853
06/12/2014  14:50:00     -459.094     -257.144      -28.524      268.757      198.150      107.928    72230.345    39263.376    11648.400       20.040        6.157      526.204      114.165        0.047      347.347       26.246      856.820
06/12/2014  14:51:00     -552.105     -379.461      -24.812      279.689      245.644      121.080    78225.874    60341.183    14660.457       30.130        7.661      669.933      143.306        0.046      347.143       25.895      856.857
06/12/2014  14:52:00     -539.707     -279.438      -27.071      234.842      193.902      114.490    55150.831    37597.836    13107.970       23.796        5.293      607.757      113.643        0.035      346.775       25.261      856.887
06/12/2014  14:53:00     -367.605     -100.278        2.133      224.881      213.578       99.897    50571.541    45615.508     9979.344       12.566        5.308      381.037      114.722        0.091      347.077       25.780      856.858
06/12/2014  14:54:00     -348.373     -215.753       13.619      244.760      229.280      122.132    59907.450    52569.160    14916.148       14.772        6.370      409.772      120.480        0.086      347.211       26.013      856.827
06/12/2014  14:55:00     -447.046     -214.533      -17.725      250.722      199.086      107.525    62861.609    39635.101    11561.627       18.010        5.703      495.858       99.604        0.040      347.296       26.159      856.857
06/12/2014  14:56:00     -354.954     -124.794        9.601      223.263      217.125      103.011    49846.299    47143.111    10611.234       12.461        5.380      376.253      112.369        0.089      347.406       26.350      856.874
06/12/2014  14:57:00     -438.506     -298.658       12.822      338.449      236.024      141.310   114547.464    55707.410    19968.397       23.590        9.511      530.551      168.305        0.101      347.108       25.833      856.857
06/12/2014  14:58:00     -432.980     -232.791       -2.296      292.050      211.982      120.806    85293.314    44936.482    14594.083       19.322        7.241      491.593      136.654        0.077      347.173       25.947      856.872
06/12/2014  14:59:00     -380.356      -71.809      -26.230      209.417      185.718      113.100    43855.411    34491.262    12791.563       12.081        4.557      387.075      103.971        0.072      347.367       26.281      856.829
06/12/2014  15:00:00     -731.463     -334.097      -28.342      338.344      248.741      119.766   114476.676    61871.964    14343.798       41.904        9.535      804.151      143.262        0.032      347.025       25.692      856.801
06/12/2014  15:01:00     -395.327      -86.393       -5.842      201.532      193.770       96.696    40615.037    37546.798     9350.178       12.563        4.376      404.657      105.495        0.068      347.389       26.320      856.835
06/12/2014  15:02:00     -376.008      -33.585       13.418      238.507      170.639      105.874    56885.728    29117.694    11209.222       11.993        4.861      377.505      112.951        0.090      347.538       26.577      856.850
06/12/2014  15:03:00     -548.874     -187.037      -28.632      247.579      234.196       92.307    61295.496    54847.884     8520.652       23.084        6.233      579.867      100.608        0.030      347.206       26.005      856.883
06/12/2014  15:04:00     -521.160     -183.703      -18.680      255.348      242.219      116.419    65202.352    58670.144    13553.432       22.154        6.871      552.589      115.115        0.043      347.153       25.913      856.862
06/12/2014  15:05:00     -592.969     -220.980      -35.659      188.879      192.431       95.738    35675.283    37029.798     9165.692       24.178        4.094      632.807       86.059        0.018      346.985       25.623      856.891
06/12/2014  15:06:00     -616.450      -89.701      -35.725      221.385      216.143       94.864    49011.461    46717.958     8999.114       24.701        5.236      622.943       89.892        0.021      347.100       25.822      856.869
06/12/2014  15:07:00     -375.563     -132.008        3.001      268.309      202.187      100.221    71989.664    40879.521    10044.223       14.067        6.146      398.087      122.981        0.095      347.437       26.401      856.858
06/12/2014  15:08:00     -366.599     -201.633        3.523      208.304      199.371      111.858    43390.686    39748.889    12512.242       13.534        4.783      418.390      109.335        0.068      347.321       26.203      856.874
06/12/2014  15:09:00     -376.348     -247.158       14.221      242.577      236.337       98.415    58843.735    55855.347     9685.462       16.363        6.219      450.249      108.270        0.058      347.072       25.773      856.890
06/12/2014  15:10:00     -508.924     -179.428      -23.105      201.225      199.836       89.234    40491.307    39934.436     7962.629       19.004        4.419      539.627       81.361        0.023      347.227       26.040      856.880
06/12/2014  15:11:00     -495.379     -244.336        5.692      311.644      155.597      101.334    97122.160    24210.543    10268.654       21.834        6.580      552.359      138.076        0.062      347.127       25.867      856.838
06/12/2014  15:12:00     -283.363     -199.170       13.691      246.057      206.869      107.605    60544.247    42794.950    11578.927       11.751        5.746      346.357      132.832        0.147      347.541       26.582      856.824
06/12/2014  15:13:00     -449.277     -206.022        3.019      257.100      145.653      101.479    66100.289    21214.839    10298.039       17.094        4.881      494.262      118.686        0.058      347.037       25.712      856.870
06/12/2014  15:14:00     -500.622     -270.051      -19.175      241.239      202.554      109.239    58196.204    41028.081    11933.171       21.751        5.558      568.814      118.650        0.044      347.197       25.988      856.868
06/12/2014  15:15:00     -349.236     -118.345       25.311      263.268      197.334      116.455    69310.224    38940.831    13561.673       12.919        6.091      368.743      139.770        0.144      347.466       26.453      856.888
06/12/2014  15:16:00     -510.410      -66.762       -7.438      216.654      155.354       85.881    46939.132    24134.989     7375.461       17.172        3.922      514.758       88.684        0.030      347.310       26.184      856.939
06/12/2014  15:17:00     -357.197     -125.272       -2.042      205.743      156.839       89.547    42330.129    24598.482     8018.698       10.910        3.747      378.527       99.844        0.070      347.481       26.478      856.903
06/12/2014  15:18:00     -498.835     -214.958      -33.518      266.513      183.154       93.274    71029.343    33545.266     8700.057       20.470        5.664      543.178      101.918        0.035      347.316       26.193      856.926
06/12/2014  15:19:00     -338.732     -154.221       -0.776      372.040      228.401      141.189   138413.757    52166.885    19934.306       17.448       10.526      372.187      159.644        0.184      347.244       26.069      856.913
06/12/2014  15:20:00     -350.109     -112.118       -0.776      337.319      189.580      120.310   113784.051    35940.693    14474.590       14.964        8.210      367.623      148.529        0.163      347.202       25.998      856.898
06/12/2014  15:21:00     -223.206        3.151        8.308      157.128      148.670       84.616    24689.359    22102.838     7159.881        5.192        2.698      223.228       67.248        0.091      347.507       26.522      856.839
06/12/2014  15:22:00     -522.528     -174.954      -13.717      258.489      158.895       93.312    66816.445    25247.642     8707.084       20.228        5.039      551.039      102.313        0.034      347.246       26.072      856.870
06/12/2014  15:23:00     -421.348     -243.912      -23.643      199.026      174.958       98.111    39611.503    30610.148     9625.789       15.870        3.992      486.855       97.015        0.040      347.481       26.479      856.904
06/12/2014  15:24:00     -456.877     -331.912       -9.871      218.405      196.541      109.424    47700.728    38628.330    11973.541       20.863        4.915      564.715      123.975        0.048      347.389       26.320      856.914
06/12/2014  15:25:00     -455.379     -230.074        3.788      263.867      191.085       98.863    69625.676    36513.547     9773.908       18.809        5.796      510.200      113.231        0.049      347.368       26.283      856.974
06/12/2014  15:26:00     -368.609     -318.932       -6.729      217.284      210.083      101.731    47212.272    44135.005    10349.150       16.965        5.085      487.433       86.589        0.032      346.899       25.476      857.009
06/12/2014  15:27:00     -331.541     -275.808       26.944      201.542      171.005      103.923    40619.291    29242.717    10799.892       13.367        4.033      431.264      108.229        0.063      346.973       25.603      856.955
06/12/2014  15:28:00     -412.689     -268.276      -19.624      243.127      194.387      104.095    59110.736    37786.490    10835.811       17.518        5.387      492.224      103.558        0.044      347.102       25.824      856.949
06/12/2014  15:29:00     -385.497     -217.080      -13.934      328.875      214.346      125.690   108158.533    45944.348    15797.861       18.288        8.495      442.416      147.633        0.111      347.006       25.659      856.913
06/12/2014  15:30:00     -533.361     -137.333       -5.280      251.277      221.709      108.874    63140.176    49154.861    11853.537       21.373        6.207      550.758      116.399        0.045      347.166       25.935      856.911
06/12/2014  15:31:00     -535.442     -218.380      -13.544      282.503      251.900      117.140    79807.862    63453.846    13721.814       24.575        7.849      578.263      134.289        0.054      346.969       25.596      856.899
06/12/2014  15:32:00     -415.633     -242.660        8.849      271.475      223.713      124.250    73698.411    50047.454    15438.172       18.542        6.959      481.284      133.478        0.077      346.962       25.583      856.804
06/12/2014  15:33:00     -426.859     -195.324      -15.792      275.669      235.049      120.977    75993.150    55248.055    14635.433       18.321        7.294      469.425      119.487        0.065      347.023       25.688      856.854
06/12/2014  15:34:00     -562.846     -151.265      -25.528      336.466      169.205       97.123   113209.644    28630.419     9432.911       24.577        7.564      582.817      124.706        0.046      347.227       26.041      856.841
06/12/2014  15:35:00     -368.827     -133.229        5.742      265.226      204.338      112.602    70344.580    41753.893    12679.174       13.927        6.239      392.152      137.853        0.124      347.301       26.169      856.863
06/12/2014  15:36:00     -520.127     -179.526      -27.808      264.328      240.814      116.840    69869.084    57991.622    13651.661       22.250        7.076      550.238      121.277        0.049      347.110       25.837      856.826
06/12/2014  15:37:00     -577.068     -173.512      -15.065      296.597      219.760      110.942    87969.645    48294.252    12308.232       25.593        7.429      602.589      135.099        0.050      347.089       25.802      856.810
06/12/2014  15:38:00     -586.022     -233.388      -31.225      312.866      254.372      119.702    97885.257    64705.041    14328.678       28.786        8.846      630.787      146.020        0.054      346.972       25.600      856.840
06/12/2014  15:39:00     -221.713     -117.234       25.512      221.257      154.002       99.486    48954.679    23716.741     9897.389        7.304        4.128      250.799      124.565        0.247      347.402       26.342      856.859
06/12/2014  15:40:00     -447.098     -150.331        0.838      227.872      214.094      102.631    51925.578    45836.357    10533.215       16.537        5.415      471.695       98.621        0.044      347.123       25.861      856.867
06/12/2014  15:41:00     -330.951     -181.900        0.738      232.030      182.901      106.871    53838.055    33452.606    11421.358       12.064        4.936      377.645      126.652        0.112      347.189       25.974      856.842
06/12/2014  15:42:00     -471.451     -259.757      -19.169      221.521      160.831       97.882    49071.379    25866.707     9580.963       18.730        4.226      538.275      104.247        0.038      347.032       25.703      856.841
06/12/2014  15:43:00     -534.209     -157.405      -22.938      184.495      179.196       95.135    34038.575    32111.305     9050.692       19.293        3.760      556.917      108.384        0.038      347.009       25.664      856.826
06/12/2014  15:44:00     -226.746     -110.234       13.915      171.191      136.743       87.013    29306.466    18698.649     7571.203        5.966        2.779      252.121       91.861        0.133      347.384       26.312      856.804
06/12/2014  15:45:00     -390.480     -195.458      -13.972      304.702      164.551       92.592    92843.561    27076.958     8573.327       15.966        6.425      436.668      125.492        0.083      347.397       26.332      856.796
06/12/2014  15:46:00     -579.786     -151.436        2.450      292.465      224.067      108.902    85535.536    50205.994    11859.580       25.332        7.380      599.236      128.493        0.046      346.983       25.619      856.764
06/12/2014  15:47:00     -595.424     -330.209      -10.406      346.821      291.671      130.906   120284.467    85071.894    17136.444       34.304       11.125      680.858      165.922        0.059      347.033       25.706      856.734
06/12/2014  15:48:00     -722.943     -243.811      -43.484      271.477      261.425      121.116    73699.921    68342.976    14669.140       37.032        7.836      762.948      116.025        0.023      346.960       25.581      856.747
06/12/2014  15:49:00     -490.914     -165.210      -13.422      278.549      233.973      117.991    77589.769    54743.457    13921.855       20.733        7.313      517.968      132.421        0.065      347.038       25.715      856.807
06/12/2014  15:50:00     -476.530     -253.630       -1.080      344.677      286.874      123.288   118802.142    82296.699    15199.920       25.381       10.815      539.824      158.535        0.086      347.060       25.752      856.832
06/12/2014  15:51:00     -397.760     -209.597       -8.449      271.473      161.810      102.543    73697.551    26182.395    10515.084       15.628        5.520      449.604      110.281        0.060      346.975       25.607      856.858
06/12/2014  15:52:00     -469.915     -316.800       -9.191      313.234      204.238       93.465    98115.793    41713.271     8735.753       23.489        7.428      566.730      130.573        0.053      347.049       25.733      856.878
06/12/2014  15:53:00     -491.554     -316.304        0.695      248.402      196.559      118.901    61703.389    38635.301    14137.543       22.805        5.724      584.529      131.030        0.050      347.072       25.773      856.895
06/12/2014  15:54:00     -337.025     -264.332       16.161      210.655      201.728       99.755    44375.587    40694.378     9951.006       13.935        4.751      428.319       97.027        0.051      346.940       25.546      856.911
06/12/2014  15:55:00     -430.311     -369.928        5.363      241.413      217.415      111.782    58280.427    47269.253    12495.116       22.002        5.902      567.463      114.047        0.040      346.753       25.224      856.853
06/12/2014  15:56:00     -560.985     -358.088      -21.391      218.515      174.347       86.282    47748.753    30396.803     7444.582       26.447        4.280      665.531       80.932        0.015      346.838       25.371      856.846
06/12/2014  15:57:00     -385.261     -275.442        8.688      227.111      169.346       90.043    51579.559    28678.235     8107.726       15.635        4.418      473.597      104.235        0.048      346.984       25.622      856.823
06/12/2014  15:58:00     -450.002     -235.938      -19.638      238.098      220.834      106.500    56690.520    48767.571    11342.328       18.765        5.840      508.103      118.997        0.055      347.009       25.664      856.806
06/12/2014  15:59:00     -652.523     -448.991      -25.909      461.607      238.899      147.938   213081.252    57072.676    21885.766       45.999       14.602      792.073      212.451        0.072      346.862       25.413      856.720
06/12/2014  16:00:00     -664.324     -419.505      -20.443      342.133      252.910      147.885   117054.795    63963.325    21869.911       41.027       10.144      785.691      174.966        0.050      346.922       25.515      856.722
06/12/2014  16:01:00     -524.664     -271.112        4.661      289.879      210.755      132.314    84030.094    44417.835    17506.972       24.735        7.298      590.571      155.722        0.070      346.897       25.471      856.820
06/12/2014  16:02:00     -456.542     -106.931      -27.220      303.649      246.438      119.369    92202.628    60731.468    14248.958       19.386        8.359      468.897      145.212        0.096      346.875       25.434      856.833
06/12/2014  16:03:00     -371.803     -226.003       20.534      296.664      190.522      119.699    88009.727    36298.505    14327.795       16.416        6.932      435.103      145.415        0.112      347.051       25.737      856.781
06/12/2014  16:04:00     -430.227     -249.024       -5.934      261.694      210.572      104.130    68483.967    44340.467    10843.001       18.538        6.183      497.100      117.430        0.056      347.130       25.872      856.787
06/12/2014  16:05:00     -454.135     -204.171        7.153      259.275      188.591      105.640    67223.374    35566.599    11159.882       18.094        5.697      497.920      114.946        0.053      346.908       25.491      856.765
06/12/2014  16:06:00     -600.018     -153.389      -24.217      361.123      252.385      128.934   130409.816    63698.024    16624.000       29.739       10.537      619.314      159.710        0.067      346.927       25.524      856.726
06/12/2014  16:07:00     -828.516     -365.719      -57.867      242.425      262.954      126.612    58769.768    69144.780    16030.528       48.371        7.197      905.643      125.074        0.019      346.572       24.911      856.761
06/12/2014  16:08:00     -685.470     -230.995      -26.596      290.166      275.309      135.647    84196.197    75794.926    18400.121       35.113        8.920      723.345      131.844        0.033      346.607       24.973      856.761
06/12/2014  16:09:00     -533.381     -230.417       -3.966      293.588      231.927      126.596    86193.886    53790.230    16026.529       24.678        7.801      581.022      140.922        0.059      346.703       25.138      856.779
06/12/2014  16:10:00     -625.431     -420.663      -20.749      322.930      236.247      137.261   104283.625    55812.503    18840.548       37.371        8.947      753.738      155.113        0.042      346.596       24.954      856.743
06/12/2014  16:11:00     -443.156     -235.941       -0.446      388.215      254.619      134.329   150710.523    64830.942    18044.197       24.277       11.679      502.051      173.794        0.120      346.763       25.241      856.673
06/12/2014  16:12:00     -533.099     -254.453        5.859      353.505      208.000      141.686   124965.539    43264.119    20074.940       26.860        9.415      590.712      160.057        0.073      346.778       25.267      856.733
06/12/2014  16:13:00     -469.120     -332.031      -14.011      319.649      216.649      121.508   102175.748    46936.939    14764.282       24.716        8.194      574.733      135.043        0.055      346.763       25.240      856.789
06/12/2014  16:14:00     -440.690     -335.298       -4.839      294.033      220.805      122.906    86455.424    48754.641    15105.824       22.846        7.516      553.744      141.130        0.065      346.872       25.429      856.781
06/12/2014  16:15:00     -490.090     -265.012       -9.190      245.860      255.839      125.476    60447.172    65453.699    15744.102       22.605        7.082      557.153      133.326        0.057      346.799       25.302      856.775
06/12/2014  16:16:00     -635.052     -280.709      -10.427      284.467      237.196      118.608    80921.502    56261.901    14067.800       31.669        7.563      694.326      108.228        0.024      346.756       25.227      856.785
06/12/2014  16:17:00     -770.615     -522.760        7.324      435.557      301.286      177.723   189709.983    90773.138    31585.319       58.956       15.603      931.196      210.987        0.051      346.561       24.895      856.644
06/12/2014  16:18:00     -556.762     -428.380       17.561      432.042      335.186      177.396   186660.412   112349.694    31469.271       41.207       16.524      702.491      212.352        0.091      346.598       24.956      856.650
06/12/2014  16:19:00     -473.643     -192.525        2.941      291.836      245.531      127.787    85168.062    60285.557    16329.636       21.157        8.089      511.276      139.315        0.074      346.777       25.266      856.711
06/12/2014  16:20:00     -611.985     -284.634      -16.042      311.782      287.675      121.370    97208.016    82757.052    14730.613       32.521        9.735      674.939      150.566        0.050      346.745       25.209      856.728
06/12/2014  16:21:00     -586.399     -233.864      -29.308      379.248      262.420      146.258   143829.226    68864.103    21391.435       31.670       11.704      631.313      179.847        0.081      346.739       25.201      856.699
06/12/2014  16:22:00     -692.477     -132.562      -31.448      325.244      238.344      141.720   105783.446    56807.785    20084.615       34.034        9.134      705.051      163.859        0.054      346.591       24.944      856.713
06/12/2014  16:23:00     -519.672     -199.976       -0.335      368.729      266.229      144.200   135960.746    70877.988    20793.578       26.880       11.382      556.821      178.779        0.103      346.778       25.266      856.696
06/12/2014  16:24:00     -689.158     -260.038       -4.485      358.394      230.408      147.456   128446.271    53088.061    21743.207       37.289       10.164      736.586      178.169        0.059      346.683       25.103      856.750
06/12/2014  16:25:00     -485.224     -397.576      -14.269      282.778      291.982      139.462    79963.507    85253.520    19449.687       28.915        9.233      627.302      155.590        0.062      346.634       25.020      856.778
06/12/2014  16:26:00     -480.029     -139.123      -18.427      289.242      231.502      116.060    83660.755    53593.356    13469.869       20.039        7.536      499.783      124.469        0.062      346.771       25.255      856.748
06/12/2014  16:27:00     -465.776     -134.739       -5.142      243.883      228.152      110.513    59479.040    52053.436    12213.039       17.941        6.187      484.873      111.241        0.053      346.875       25.434      856.738
06/12/2014  16:28:00     -509.893     -275.964       -7.424      309.043      218.516      131.046    95507.792    47749.184    17173.105       24.828        8.022      579.782      139.942        0.058      346.727       25.181      856.699
06/12/2014  16:29:00     -576.435     -189.141       -9.793      272.716      202.730      128.914    74374.190    41099.483    16618.933       25.009        6.605      606.673      141.667        0.055      346.796       25.300      856.693
06/12/2014  16:30:00     -561.310     -330.590      -30.703      258.163      185.083      102.518    66648.062    34255.561    10510.024       26.834        5.571      651.428      110.180        0.029      346.877       25.435      856.752
06/12/2014  16:31:00     -740.661     -443.264      -13.016      292.975      246.034      119.852    85834.598    60532.747    14364.437       45.295        8.037      863.170      126.350        0.021      346.698       25.130      856.799
06/12/2014  16:32:00     -523.739     -295.383       -4.624      256.040      223.740      105.595    65556.569    50059.497    11150.408       24.415        6.338      601.294      115.239        0.037      346.586       24.936      856.745
06/12/2014  16:33:00     -539.973     -243.489       -4.001      321.159      297.559      128.768   103142.977    88541.095    16581.281       27.953       10.413      592.332      121.293        0.042      346.728       25.180      856.639
06/12/2014  16:34:00     -786.838     -467.347      -20.749      336.690      267.955      143.234   113360.183    71800.109    20515.926       52.178       10.284      915.166      142.425        0.024      346.521       24.825      856.636
06/12/2014  16:35:00     -768.499     -448.301      -27.788      377.583      318.575      162.396   142569.010   101489.801    26372.370       53.133       13.522      889.700      181.898        0.042      346.462       24.723      856.662
06/12/2014  16:36:00     -792.963     -288.390      -33.148      374.777      296.429      151.206   140457.542    87870.041    22863.139       48.207       12.560      843.777      171.568        0.041      346.391       24.601      856.691
06/12/2014  16:37:00     -416.475     -262.649       34.138      397.270      279.684      162.466   157823.587    78223.024    26395.074       25.297       13.122      492.378      194.791        0.157      346.647       25.042      856.625
06/12/2014  16:38:00     -469.729     -147.634        1.217      348.191      230.956      129.137   121236.821    53340.590    16676.435       21.681        9.563      492.383      155.478        0.100      346.807       25.317      856.719
06/12/2014  16:39:00     -461.060     -248.225       -0.229      290.429      272.781      132.761    84348.748    74409.316    17625.424       22.525        8.819      523.633      148.802        0.081      346.641       25.031      856.759
06/12/2014  16:40:00     -470.202     -194.277      -17.171      284.762      211.046      126.437    81089.512    44540.393    15986.249       20.034        7.081      508.757      140.864        0.077      346.675       25.089      856.720
06/12/2014  16:41:00     -470.607     -215.688        7.279      268.891      212.084      107.897    72302.330    44979.424    11641.708       19.846        6.446      517.680      120.442        0.054      346.781       25.272      856.747
06/12/2014  16:42:00     -566.696     -216.803      -24.818      326.513      243.126      129.805   106610.595    59110.297    16849.430       27.563        9.129      606.752      142.343        0.055      346.624       25.003      856.759
06/12/2014  16:43:00     -432.016      -93.415       10.665      254.954      228.354      121.731    65001.553    52145.766    14818.342       16.370        6.598      442.000      138.060        0.098      346.572       24.914      856.781
06/12/2014  16:44:00     -554.637     -390.766      -25.934      226.562      236.708      113.429    51330.352    56030.569    12866.124       29.059        6.011      678.469      117.138        0.030      346.439       24.684      856.733
06/12/2014  16:45:00     -674.703     -512.267      -36.210      350.272      298.541      166.507   122690.283    89126.912    27724.496       47.920       11.977      847.137      186.031        0.048      346.470       24.738      856.658
06/12/2014  16:46:00     -723.554     -429.683      -17.449      436.856      304.875      151.439   190842.869    92948.535    22933.645       50.753       15.336      841.521      198.355        0.056      346.385       24.591      856.715
06/12/2014  16:47:00     -555.234     -334.864        2.123      297.947      256.628      141.274    88772.647    65857.772    19958.214       29.747        8.729      648.396      154.835        0.057      346.410       24.634      856.722
06/12/2014  16:48:00     -374.692     -240.757        8.089      328.301      246.070      115.047   107781.343    60550.647    13235.793       18.996        9.078      445.374      129.913        0.085      346.611       24.979      856.710
06/12/2014  16:49:00     -764.121     -514.583      -33.546      380.114      282.684      167.615   144487.002    79910.292    28094.729       55.110       12.625      921.236      171.906        0.035      346.503       24.795      856.580
06/12/2014  16:50:00     -452.672     -296.791       -2.044      301.687      292.501      150.748    91015.192    85557.044    22725.004       24.611        9.965      541.291      153.449        0.080      346.594       24.950      856.715
06/12/2014  16:51:00     -530.379     -131.843      -17.769      292.895      244.881      119.616    85787.714    59966.650    14308.086       22.950        8.003      546.520      139.420        0.065      346.533       24.845      856.740
06/12/2014  16:52:00     -683.099     -400.278      -10.669      386.263      288.422      150.306   149199.122    83187.071    22591.901       44.092       12.749      791.737      175.109        0.049      346.399       24.615      856.617
06/12/2014  16:53:00     -623.537     -337.155        6.455      272.933      245.685      117.037    74492.410    60360.985    13697.554       32.550        7.428      708.853      125.964        0.032      346.428       24.664      856.652
06/12/2014  16:54:00     -689.823     -308.177      -34.670      273.980      217.975      114.046    75065.247    47512.917    13006.435       35.378        6.779      755.533      131.937        0.030      346.508       24.801      856.685
06/12/2014  16:55:00     -537.726     -342.842      -23.634      336.097      228.307      117.485   112961.023    52124.275    13802.676       29.303        8.944      637.723      142.511        0.050      346.552       24.879      856.653
06/12/2014  16:56:00     -397.557     -186.612       -7.067      236.083      211.262       97.883    55735.321    44631.829     9581.035       15.141        5.497      439.176       99.137        0.051      346.676       25.093      856.644
06/12/2014  16:57:00     -481.009     -243.754      -18.030      321.260      220.546      110.682   103207.784    48640.616    12250.584       22.757        8.205      539.246      114.777        0.045      346.565       24.901      856.590
06/12/2014  16:58:00     -665.282     -297.787      -22.223      292.897      221.661      112.092    85788.896    49133.803    12564.673       33.960        7.374      728.888      138.160        0.036      346.582       24.929      856.575
06/12/2014  16:59:00     -786.748     -361.232      -29.333      453.427      263.475      130.541   205595.716    69418.904    17040.970       52.113       14.603      865.714      171.057        0.039      346.469       24.736      856.544
06/12/2014  17:00:00     -662.111     -318.521      -20.539      383.894      250.465      148.032   147374.540    62732.759    21913.610       38.610       11.601      734.742      183.272        0.062      346.498       24.785      856.618
06/12/2014  17:01:00     -327.756      -70.220       26.720      392.942      204.490      123.792   154403.632    41816.255    15324.361       16.226       10.577      335.193      161.433        0.232      346.646       25.041      856.604
06/12/2014  17:02:00     -247.086     -194.498       30.387      288.041      210.046      130.587    82967.526    44119.366    17052.918       12.194        7.207      314.453      167.537        0.284      346.657       25.059      856.608
06/12/2014  17:03:00     -431.397     -254.668        2.753      337.810      263.468      138.591   114115.492    69415.385    19207.577       22.681       10.137      500.958      156.423        0.097      346.616       24.988      856.620
06/12/2014  17:04:00     -609.002     -430.677      -14.159      349.032      262.235      133.697   121823.261    68767.262    17874.954       38.247       10.423      745.900      160.239        0.046      346.322       24.483      856.559
06/12/2014  17:05:00     -664.116     -425.231      -24.144      306.661      262.141      150.846    94040.915    68718.153    22754.451       40.395        9.276      788.588      157.952        0.040      346.402       24.620      856.502
06/12/2014  17:06:00     -674.302     -314.833      -27.478      368.798      289.642      132.137   136012.158    83892.201    17460.123       39.591       11.868      744.179      170.082        0.052      346.513       24.811      856.565
06/12/2014  17:07:00     -733.691     -420.634      -23.345      373.367      302.932      134.331   139402.953    91767.916    18044.835       48.245       12.461      845.716      149.936        0.031      346.394       24.608      856.554
06/12/2014  17:08:00     -517.056     -231.620      -14.628      299.868      216.046      103.823    89921.006    46675.954    10779.162       23.426        7.369      566.564      109.559        0.037      346.528       24.836      856.629
06/12/2014  17:09:00     -462.382     -297.740       -1.295      242.159      193.282      110.607    58640.785    37358.056    12233.839       20.532        5.412      549.951      122.604        0.050      346.435       24.677      856.603
06/12/2014  17:10:00     -613.187     -459.866      -18.704      318.374      303.632      146.896   101362.204    92192.517    21578.370       40.144       10.757      766.469      160.653        0.044      346.427       24.663      856.551
06/12/2014  17:11:00     -570.446     -325.050      -24.337      290.288      268.514      132.733    84267.334    72099.608    17618.159       30.279        8.699      656.556      153.375        0.055      346.446       24.697      856.572
06/12/2014  17:12:00     -640.686     -303.599      -23.647      366.254      265.293      134.806   134141.964    70380.154    18172.679       36.291       11.135      708.979      159.767        0.051      346.435       24.677      856.564
06/12/2014  17:13:00     -622.118     -453.154      -11.250      374.177      265.976      150.831   140008.753    70743.158    22750.019       41.296       11.675      769.662      182.466        0.056      346.393       24.605      856.618
06/12/2014  17:14:00     -350.948     -221.801        3.601      257.621      196.519      131.794    66368.334    38619.778    17369.669       14.734        6.118      415.162      144.007        0.120      346.399       24.615      856.637
06/12/2014  17:15:00     -427.086     -214.026       13.595      231.348      218.998      118.181    53521.997    47960.283    13966.671       17.190        5.772      477.713      113.216        0.056      346.469       24.735      856.610
06/12/2014  17:16:00     -532.116     -237.883       -8.318      319.435      209.402      132.437   102038.753    43849.079    17539.617       25.158        8.171      582.868      159.966        0.075      346.457       24.716      856.591
06/12/2014  17:17:00     -629.177     -302.481        6.131      357.474      238.939      138.121   127787.588    57092.072    19077.506       34.564       10.198      698.110      168.935        0.059      346.414       24.640      856.554
06/12/2014  17:18:00     -495.940     -278.181      -19.652      238.904      213.900       96.886    57075.195    45753.201     9386.890       21.795        5.611      568.631      103.582        0.033      346.470       24.738      856.529
06/12/2014  17:19:00     -626.084     -391.308       -4.180      302.650      256.095      127.202    91597.126    65584.624    16180.421       35.921        8.668      738.311      138.878        0.035      346.491       24.773      856.536
06/12/2014  17:20:00     -645.337     -386.858      -27.674      340.853      240.697      124.996   116180.828    57934.970    15623.992       37.827        9.487      752.409      155.541        0.043      346.301       24.446      856.567
06/12/2014  17:21:00     -717.661     -298.264      -36.303      257.536      222.638      121.129    66324.962    49567.540    14672.314       36.792        6.528      777.174      118.872        0.023      346.261       24.378      856.600
06/12/2014  17:22:00     -432.464     -350.121        5.699      295.644      199.817      133.240    87405.487    39926.841    17752.825       22.733        7.254      556.426      154.735        0.077      346.295       24.436      856.609
06/12/2014  17:23:00     -549.243     -345.316      -15.168      275.778      193.645      116.950    76053.409    37498.271    13677.195       27.416        6.361      648.777      139.705        0.046      346.261       24.377      856.594
06/12/2014  17:24:00     -555.556      -29.287      -23.263      294.666      179.974      106.981    86827.878    32390.774    11444.963       22.033        6.533      556.327      128.813        0.054      346.356       24.541      856.521
06/12/2014  17:25:00     -543.167     -238.525      -10.359      316.719      216.909       97.170   100311.082    47049.380     9441.936       25.439        7.840      593.233      119.644        0.041      346.481       24.757      856.481
06/12/2014  17:26:00     -451.364     -310.897       10.464      331.045      242.471      155.419   109591.048    58792.072    24155.220       24.648        9.627      548.076      185.459        0.115      346.446       24.696      856.527
06/12/2014  17:27:00     -879.356     -377.364      -28.382      370.303      291.053      145.521   137124.535    84711.620    21176.257       57.970       12.151      956.906      180.507        0.036      346.177       24.234      856.512
06/12/2014  17:28:00     -571.241     -217.725       -8.074      327.681      272.687      126.491   107374.926    74358.114    15999.884       28.572        9.887      611.327      135.754        0.049      346.297       24.439      856.515
06/12/2014  17:29:00     -557.630     -240.512       -2.403      305.801      239.364      139.283    93514.376    57295.188    19399.880       26.947        8.510      607.287      165.155        0.074      346.302       24.448      856.498
06/12/2014  17:30:00     -671.770     -280.280      -36.486      313.679      256.314      126.658    98394.591    65696.954    16042.308       35.561        9.007      727.896      122.632        0.028      346.219       24.307      856.550
06/12/2014  17:31:00     -457.398     -156.606      -16.519      312.389      211.612      127.614    97586.784    44779.570    16285.368       19.630        7.933      483.465      143.597        0.088      346.336       24.507      856.514
06/12/2014  17:32:00     -396.402     -134.187        1.130      265.066      219.247      120.158    70260.180    48069.089    14437.966       15.393        6.638      418.498      127.788        0.093      346.443       24.691      856.538
06/12/2014  17:33:00     -545.058     -298.265       -9.079      298.800      237.200      128.722    89281.230    56263.682    16569.324       27.409        8.106      621.329      151.528        0.059      346.283       24.413      856.572
06/12/2014  17:34:00     -404.166     -291.873       -9.608      229.581      192.284      108.949    52707.489    36973.026    11869.854       17.507        5.078      498.537      122.289        0.060      346.294       24.434      856.564
06/12/2014  17:35:00     -498.932     -185.067      -20.223      201.905      194.071       92.898    40765.624    37663.597     8630.063       18.531        4.353      532.149       97.111        0.033      346.331       24.499      856.539
06/12/2014  17:36:00     -621.340     -301.820        0.728      388.797      233.937      148.158   151162.886    54726.706    21950.775       35.245       11.392      690.767      199.575        0.083      346.247       24.354      856.555
06/12/2014  17:37:00     -565.015     -184.340      -25.549      254.019      205.224      108.016    64525.859    42116.972    11667.349       23.607        5.916      594.326      139.595        0.055      346.228       24.320      856.568
06/12/2014  17:38:00     -523.788     -218.380        8.147      352.318      263.553      144.829   124127.988    69460.329    20975.347       26.829       10.728      567.489      177.808        0.098      346.325       24.487      856.592
06/12/2014  17:39:00     -602.088     -316.232      -11.539      261.971      204.257      107.365    68628.972    41721.017    11527.251       29.224        6.094      680.083      120.671        0.031      346.241       24.342      856.630
06/12/2014  17:40:00     -562.099     -400.056       -2.378      283.704      224.941      123.050    80488.094    50598.548    15141.323       31.109        7.311      689.927      125.143        0.033      346.058       24.028      856.647
06/12/2014  17:41:00     -392.723     -172.492        2.280      293.784      169.330      101.680    86309.112    28672.637    10338.796       15.463        6.266      428.935      130.925        0.093      346.305       24.453      856.619
06/12/2014  17:42:00     -442.806     -178.201       -2.649      323.563      217.380      130.316   104693.302    47253.936    16982.267       19.835        8.446      477.318      167.444        0.123      346.143       24.176      856.612
06/12/2014  17:43:00     -490.629     -256.271      -16.932      310.046      258.940      132.914    96128.402    67049.892    17666.120       24.373        9.042      553.527      142.685        0.066      346.154       24.193      856.521
06/12/2014  17:44:00     -369.744     -158.517       -3.036      235.467      176.463       99.490    55444.617    31139.178     9898.198       12.915        4.824      402.292      108.890        0.073      346.372       24.568      856.579
06/12/2014  17:45:00     -627.616     -223.570      -23.580      325.206      253.765      119.913   105759.194    64396.479    14379.023       31.445        9.227      666.247      144.447        0.047      346.320       24.480      856.552
06/12/2014  17:46:00     -412.982     -294.501        7.572      309.926      271.560      151.661    96054.023    73744.642    23001.091       22.503        9.640      507.232      174.666        0.119      346.292       24.430      856.535
06/12/2014  17:47:00     -425.648     -282.301       -7.992      291.307      225.633      120.564    84859.930    50910.175    14535.629       20.559        7.515      510.755      143.174        0.079      346.191       24.258      856.607
06/12/2014  17:48:00     -575.104     -141.430      -33.894      264.708      197.359      114.566    70070.070    38950.484    13125.368       23.700        6.107      592.239      118.152        0.040      346.058       24.029      856.602
06/12/2014  17:49:00     -458.847     -284.171      -13.344      286.983      188.498      117.841    82359.108    35531.586    13886.409       21.160        6.589      539.716      133.598        0.061      346.161       24.206      856.590
06/12/2014  17:50:00     -461.334     -262.259      -17.569      256.488      195.824      120.612    65786.136    38347.036    14547.338       20.027        5.934      530.668      118.700        0.050      346.190       24.256      856.514
06/12/2014  17:51:00     -682.050     -305.976      -10.363      303.679      225.378      138.777    92220.800    50795.052    19259.038       36.057        8.114      747.539      146.034        0.038      346.130       24.153      856.443
06/12/2014  17:52:00     -454.105      -40.582       -0.801      291.900      169.825      106.885    85205.784    28840.687    11424.471       16.664        6.274      455.914      133.660        0.086      346.285       24.419      856.547
06/12/2014  17:53:00     -567.427     -375.784      -19.813      325.559      210.820      151.759   105988.755    44445.191    23030.771       31.849        8.673      680.578      182.228        0.072      346.043       24.002      856.555
06/12/2014  17:54:00     -463.687     -225.373       -8.193      297.115      246.410      136.550    88277.330    60717.819    18645.843       21.672        8.382      515.556      158.029        0.094      346.141       24.172      856.553
06/12/2014  17:55:00     -397.603     -272.829        7.491      292.298      238.145      124.506    85438.351    56712.993    15501.814       19.508        7.883      482.207      157.422        0.107      346.107       24.114      856.589
06/12/2014  17:56:00     -353.638     -237.822       -3.343      179.052      177.324       91.648    32059.685    31443.678     8399.438       12.675        3.595      426.168       97.412        0.052      346.177       24.234      856.626
06/12/2014  17:57:00     -440.074     -203.435        3.210      307.066      250.093      125.941    94289.304    62546.673    15861.083       20.384        8.635      484.821      148.453        0.094      346.149       24.186      856.551
06/12/2014  17:58:00     -423.671     -154.842       31.870      328.940      258.940      134.948   108201.463    67049.828    18210.966       19.894        9.673      451.080      136.942        0.092      346.037       23.992      856.531
06/12/2014  17:59:00     -602.035     -281.870      -29.375      274.899      223.765      117.476    75569.410    50070.875    13800.617       29.107        6.972      664.753      136.879        0.042      346.070       24.049      856.557
06/12/2014  18:00:00     -693.267     -241.103      -17.553      341.555      252.421      137.370   116659.962    63716.229    18870.481       36.911        9.962      733.996      165.772        0.051      346.107       24.112      856.564
06/12/2014  18:01:00     -307.657     -254.498        1.855      213.959      193.106      101.384    45778.303    37289.850    10278.795       12.637        4.667      399.277       92.867        0.054      346.064       24.040      856.648
06/12/2014  18:02:00     -467.137     -324.873       -5.117      259.272      174.810      119.958    67222.034    30558.606    14389.986       21.796        5.609      568.998      132.818        0.054      346.028       23.976      856.549
06/12/2014  18:03:00     -672.338     -448.534      -32.997      308.110      258.447      142.864    94931.478    66794.978    20410.007       41.819        9.107      808.221      159.607        0.039      345.920       23.791      856.551
06/12/2014  18:04:00     -450.545     -387.571      -38.742      320.530      254.661      117.709   102739.250    64852.385    13855.331       26.804        9.072      594.308      146.742        0.061      345.944       23.834      856.579
06/12/2014  18:05:00     -505.484     -356.346      -13.865      350.408      273.908      137.097   122786.019    75025.440    18795.603       29.960       10.830      618.463      177.114        0.082      345.946       23.837      856.481
06/12/2014  18:06:00     -613.701     -266.186      -34.888      366.950      285.208      155.686   134652.269    81343.344    24238.065       34.442       12.012      668.942      180.566        0.073      345.943       23.833      856.495
06/12/2014  18:07:00     -470.211     -247.763      -18.399      264.253      179.466      115.498    69829.471    32208.163    13339.707       19.908        5.769      531.493      136.293        0.066      345.997       23.924      856.556
06/12/2014  18:08:00     -340.486     -283.325       19.194      268.732      197.678      113.259    72217.038    39076.625    12827.566       16.032        6.206      442.949      137.075        0.096      346.153       24.193      856.604
06/12/2014  18:09:00     -506.477     -405.636      -14.499      285.270      197.795      118.185    81378.815    39122.889    13967.763       27.784        6.723      648.891      154.759        0.057      345.937       23.821      856.658
06/12/2014  18:10:00     -422.123     -233.401      -17.762      236.126      198.579      102.004    55755.575    39433.645    10404.879       16.927        5.280      482.352      111.363        0.053      345.980       23.897      856.662
06/12/2014  18:11:00     -240.088     -134.280       36.284      239.989      199.838      114.820    57594.863    39935.325    13183.553        9.383        5.536      275.088       98.345        0.128      346.132       24.157      856.647
06/12/2014  18:12:00     -449.304     -237.196      -13.756      261.933      230.280      112.589    68608.650    53028.808    12676.250       19.629        6.716      508.071      128.195        0.064      345.983       23.899      856.668
06/12/2014  18:13:00     -523.008     -264.519        0.058      332.535      264.439      154.323   110579.336    69927.873    23815.500       27.387       10.216      586.095      184.613        0.099      345.871       23.708      856.649
06/12/2014  18:14:00     -487.703     -277.633      -19.834      233.322      232.195      115.516    54439.328    53914.529    13343.890       21.849        6.085      561.190      120.368        0.046      345.935       23.817      856.655
06/12/2014  18:15:00     -387.532     -203.636      -12.336      252.438      178.983      115.149    63725.156    32034.929    13259.195       15.039        5.451      437.776      112.218        0.066      346.045       24.006      856.655
06/12/2014  18:16:00     -594.584     -435.794        3.210      352.811      240.809      153.922   124475.540    57988.974    23691.885       37.476       10.308      737.188      196.244        0.071      345.826       23.630      856.669
06/12/2014  18:17:00     -499.852     -196.575      -14.832      218.402      152.744       87.163    47699.400    23330.866     7597.365       18.365        3.931      537.116       92.140        0.029      345.886       23.734      856.712
06/12/2014  18:18:00     -418.198     -161.830        1.323      161.315      150.459       81.535    26022.440    22637.774     6647.935       12.818        2.765      448.418       83.660        0.035      345.920       23.791      856.683
06/12/2014  18:19:00     -556.783     -352.777      -10.469      315.838      215.969      126.555    99753.954    46642.697    16016.276       29.846        8.121      659.135      149.692        0.052      345.890       23.739      856.634
06/12/2014  18:20:00     -573.659     -196.186       -3.207      326.141      237.252      120.793   106368.234    56288.547    14590.965       27.238        8.862      606.279      151.220        0.062      345.796       23.579      856.662
06/12/2014  18:21:00     -377.084     -217.213        2.901      258.220      207.976      111.229    66677.310    43253.838    12371.834       15.582        6.115      435.171      132.074        0.092      345.892       23.744      856.717
06/12/2014  18:22:00     -503.995     -226.326      -13.913      264.697      249.295      113.823    70064.557    62147.911    12955.568       22.527        7.258      552.480      126.379        0.052      345.815       23.612      856.742
06/12/2014  18:23:00     -452.134     -438.693      -11.986      276.829      184.535      119.727    76634.379    34053.176    14334.594       26.100        6.251      629.981      130.506        0.043      345.682       23.383      856.775
06/12/2014  18:24:00     -350.696     -210.402        3.476      221.103      155.018       84.176    48886.405    24030.660     7085.676       12.362        4.000      408.971       97.939        0.057      345.749       23.498      856.701
06/12/2014  18:25:00     -310.615     -183.686       -2.870      227.209      163.227       82.453    51624.046    26642.941     6798.523       10.763        4.253      360.863       97.730        0.073      345.775       23.544      856.671
06/12/2014  18:26:00     -426.602     -337.902       -3.341      253.045      203.918      121.343    64031.667    41582.474    14724.170       20.823        6.017      544.212      139.179        0.065      345.772       23.538      856.655
06/12/2014  18:27:00     -468.562     -121.635      -16.632      266.392      222.764      111.483    70964.694    49623.760    12428.566       18.379        6.651      484.093      122.291        0.064      345.814       23.612      856.651
06/12/2014  18:28:00     -719.271     -344.732      -50.130      434.615      260.798      118.026   188889.962    68015.421    13930.044       45.472       13.542      797.616      139.480        0.031      345.657       23.342      856.685
06/12/2014  18:29:00     -487.161     -206.919      -23.211      221.049      196.260      105.764    48862.539    38518.083    11186.049       18.960        4.928      529.283      114.875        0.047      345.730       23.465      856.768
06/12/2014  18:30:00     -477.702     -237.049      -22.588      274.977      219.720      110.915    75612.488    48276.898    12302.074       21.052        6.810      533.284      130.803        0.060      345.728       23.463      856.734
06/12/2014  18:31:00     -487.191     -372.790       -6.959      274.537      219.016      134.705    75370.314    47967.989    18145.565       25.890        7.074      613.455      157.743        0.066      345.615       23.268      856.755
06/12/2014  18:32:00     -603.553     -280.015      -34.807      251.580      161.557      116.261    63292.257    26100.584    13516.539       27.338        5.145      665.346      124.327        0.035      345.617       23.273      856.778
06/12/2014  18:33:00     -631.814     -400.147      -15.342      302.539      211.081      131.871    91529.725    44555.107    17390.083       35.648        7.674      747.868      160.462        0.046      345.647       23.323      856.821
06/12/2014  18:34:00     -491.369     -304.654      -23.116      259.710      231.511      111.918    67449.201    53597.384    12525.538       23.416        6.679      578.150      123.682        0.046      345.626       23.287      856.855
06/12/2014  18:35:00     -578.347     -244.113      -23.509      306.179      239.473      127.631    93745.719    57347.529    16289.572       28.097        8.369      627.755      147.438        0.055      345.552       23.160      856.847
06/12/2014  18:36:00     -523.203     -434.755      -27.320      253.751      228.539      125.821    64389.651    52230.301    15830.895       29.795        6.623      680.259      133.705        0.039      345.522       23.109      856.847
06/12/2014  18:37:00     -580.918     -222.679      -47.796      283.235      286.947      114.264    80221.806    82338.617    13056.221       28.244        8.781      622.135      123.394        0.039      345.529       23.120      856.829
06/12/2014  18:38:00     -595.140     -460.862      -47.610      300.548      228.486      128.591    90329.139    52205.643    16535.519       36.393        7.954      752.719      136.844        0.033      345.523       23.109      856.747
06/12/2014  18:39:00     -434.488     -151.929       -6.990      265.668      197.265      117.626    70579.221    38913.337    13835.803       16.759        6.166      460.285      127.065        0.076      345.652       23.331      856.772
06/12/2014  18:40:00     -593.160     -364.863       -8.669      318.869      265.594      153.241   101677.364    70540.173    23482.946       34.033        9.785      696.393      170.239        0.060      345.520       23.105      856.831
06/12/2014  18:41:00     -595.266     -279.648      -36.634      208.226      201.626      107.113    43358.228    40652.943    11473.287       26.467        4.774      657.681      106.242        0.026      345.525       23.113      856.905
06/12/2014  18:42:00     -456.380     -217.260       -9.617      272.296      227.852      125.606    74145.319    51916.343    15776.942       19.868        7.092      505.455      141.423        0.078      345.527       23.117      856.906
06/12/2014  18:43:00     -440.276     -185.631        3.892      260.552      223.104      124.148    67887.508    49775.582    15412.775       18.067        6.654      477.810      130.264        0.074      345.522       23.109      856.902
06/12/2014  18:44:00     -428.308     -173.080       -9.831      254.458      286.139      112.227    64748.866    81875.802    12594.787       18.633        7.961      461.957      123.694        0.072      345.523       23.110      856.932
06/12/2014  18:45:00     -488.800     -182.060       -5.561      303.982      234.918      113.805    92405.021    55186.332    12951.653       21.629        8.027      521.605      122.227        0.055      345.385       22.875      856.881
06/12/2014  18:46:00     -603.750     -325.883      -19.395      338.304      243.136      141.022   114449.869    59115.316    19887.237       33.223        9.673      686.086      157.024        0.052      345.390       22.881      856.841
06/12/2014  18:47:00     -564.996     -214.406      -11.778      395.848      298.356      143.558   156695.285    89016.137    20608.893       31.577       13.316      604.310      183.683        0.092      345.401       22.901      856.867
06/12/2014  18:48:00     -679.852     -451.063      -26.390      291.042      258.047      146.337    84705.573    66588.467    21414.622       41.950        8.635      815.878      160.444        0.039      345.305       22.736      856.821
06/12/2014  18:49:00     -518.213     -311.732      -18.496      238.630      197.218      115.471    56944.079    38895.085    13333.579       23.760        5.459      604.749      112.549        0.035      345.349       22.811      856.864
06/12/2014  18:50:00     -723.311     -273.723      -58.070      299.383      242.906      124.735    89630.077    59003.327    15558.743       38.280        8.210      773.371      129.956        0.028      345.384       22.872      856.886
06/12/2014  18:51:00     -417.310     -259.584       -9.797      235.339      206.756      102.022    55384.548    42747.920    10408.542       17.506        5.427      491.459      120.353        0.060      345.420       22.932      856.949
06/12/2014  18:52:00     -376.104     -224.570        5.876      223.895      211.993       94.721    50129.119    44941.193     8972.130       14.796        5.202      438.047       98.701        0.051      345.463       23.008      856.968
06/12/2014  18:53:00     -472.621     -335.151      -23.137      332.768      188.129      122.063   110734.438    35392.457    14899.461       24.860        8.051      579.394      126.027        0.047      345.356       22.824      856.932
06/12/2014  18:54:00     -609.616     -283.188      -11.895      286.398      246.049      128.309    82023.585    60540.020    16463.148       30.547        7.951      672.181      134.853        0.040      345.334       22.787      856.961
06/12/2014  18:55:00     -567.225     -194.906       -6.102      300.182      200.863      119.985    90109.135    40345.786    14396.304       25.228        7.243      599.777      125.239        0.044      345.346       22.806      857.043
06/12/2014  18:56:00     -497.526     -267.876       -6.961      249.585      210.445      110.889    62292.457    44286.922    12296.377       21.908        5.944      565.057      102.902        0.033      345.354       22.820      857.048
06/12/2014  18:57:00     -489.746     -177.567        5.458      264.612      242.359      107.123    70019.500    58738.119    11475.353       20.579        7.012      520.943      128.664        0.061      345.347       22.808      856.996
06/12/2014  18:58:00     -653.801     -344.403      -26.196      252.495      210.171      125.383    63753.504    44171.822    15721.013       33.518        6.182      738.965      144.196        0.038      345.239       22.623      856.974
06/12/2014  18:59:00     -552.052     -235.578      -19.358      262.573      201.274      105.459    68944.395    40511.240    11121.582       24.058        6.029      600.215      126.206        0.044      345.295       22.719      856.982
06/12/2014  19:00:00     -399.811     -196.555       11.288      250.435      203.677      116.721    62717.459    41484.404    13623.795       15.819        5.891      445.513      125.025        0.079      345.269       22.674      856.911
06/12/2014  19:01:00     -417.268     -227.801      -12.647      244.385      227.162      113.976    59724.237    51602.760    12990.555       17.522        6.216      475.401      125.744        0.070      345.276       22.689      856.892
06/12/2014  19:02:00     -462.494     -247.068        7.791      293.829      246.911      127.301    86335.632    60965.072    16205.435       21.922        8.175      524.350      134.292        0.066      345.248       22.640      856.880
06/12/2014  19:03:00     -598.227     -241.745       -5.130      327.015      275.855      133.933   106938.726    76096.027    17938.059       30.862       10.049      645.226      162.329        0.063      345.167       22.501      856.914
06/12/2014  19:04:00     -502.180     -190.397      -12.445      233.184      173.260      112.685    54374.768    30018.924    12697.986       19.282        4.855      537.062      116.875        0.047      345.188       22.536      857.001
06/12/2014  19:05:00     -533.667     -114.885      -19.591      369.221      277.423      128.977   136324.338    76963.430    16635.115       26.411       11.496      545.893      178.045        0.106      345.157       22.483      856.905
06/12/2014  19:06:00     -824.626     -322.194      -41.072      332.140      270.129      126.998   110316.910    72969.532    16128.515       49.242        9.971      885.334      139.982        0.025      345.102       22.391      856.882
06/12/2014  19:07:00     -479.691     -363.482      -10.248      291.079      244.361      144.320    84726.755    59712.391    20828.304       26.376        8.263      601.849      159.893        0.071      345.112       22.406      856.952
06/12/2014  19:08:00     -353.973     -198.832       15.265      284.561      292.759      156.363    80975.080    85708.092    24449.345       17.806        9.557      405.994      168.708        0.173      345.140       22.454      856.940
06/12/2014  19:09:00     -428.014     -254.459      -10.899      305.216      230.414      120.082    93156.981    53090.734    14419.768       20.433        8.033      497.941      152.641        0.094      345.161       22.490      856.971
06/12/2014  19:10:00     -577.056     -292.009      -28.250      293.598      259.891      108.759    86199.569    67543.169    11828.457       29.228        8.279      646.733      119.471        0.034      345.130       22.436      857.000
06/12/2014  19:11:00     -506.756     -290.923       -3.921      362.692      276.255      155.188   131545.772    76316.666    24083.239       28.665       11.597      584.327      185.169        0.100      345.084       22.357      856.955
06/12/2014  19:12:00     -516.224     -192.492       -9.832      276.644      208.707      111.645    76532.005    43558.626    12464.674       21.807        6.628      550.945      132.841        0.058      345.065       22.327      857.031
06/12/2014  19:13:00     -472.272     -282.876      -23.524      353.649      250.589      150.261   125067.766    62795.045    22578.254       25.698       10.522      550.509      167.609        0.093      345.042       22.288      856.980
06/12/2014  19:14:00     -428.683     -231.429      -13.449      215.283      194.741       88.826    46346.647    37924.106     7889.977       16.482        4.608      487.164       79.829        0.027      345.076       22.346      857.020
06/12/2014  19:15:00     -573.779     -247.696      -19.954      249.863      224.597      102.804    62431.510    50443.879    10568.696       25.718        6.172      624.960      115.784        0.034      345.022       22.253      857.034
06/12/2014  19:16:00     -437.827     -203.973       -1.536      358.280      266.183      120.142   128364.278    70853.333    14434.208       22.343       10.683      483.009      145.825        0.091      345.039       22.283      857.057
06/12/2014  19:17:00     -425.561     -164.839      -18.069      235.434      219.449      124.309    55429.250    48157.650    15452.733       16.380        5.952      456.370      123.393        0.073      344.997       22.210      857.027
06/12/2014  19:18:00     -702.542     -378.775      -19.117      292.798      259.539      118.959    85730.709    67360.727    14151.306       40.229        8.362      798.145      139.930        0.031      344.919       22.076      857.007
06/12/2014  19:19:00     -495.575     -230.389        2.635      388.903      255.007      127.759   151245.320    65028.577    16322.388       26.559       11.630      546.511      175.717        0.103      345.000       22.213      856.998
06/12/2014  19:20:00     -480.333     -315.438      -20.065      314.051      233.293      120.786    98627.750    54425.535    14589.252       24.910        8.382      574.649      143.967        0.063      344.957       22.141      857.024
06/12/2014  19:21:00     -383.049     -173.236       18.376      271.420      269.999      118.245    73669.047    72899.400    13981.988       16.878        8.028      420.402      124.686        0.088      344.980       22.182      857.001
06/12/2014  19:22:00     -371.127     -155.300       -4.172      244.822      203.702      110.637    59937.878    41494.631    12240.583       13.775        5.684      402.310      127.699        0.101      344.996       22.207      857.073
06/12/2014  19:23:00     -637.729     -260.247       -7.265      281.163      285.391      126.505    79052.357    81447.855    16003.426       32.546        8.825      688.787      143.585        0.043      344.875       22.000      857.102
06/12/2014  19:24:00     -375.578     -166.872      -18.314      225.424      241.655      104.878    50816.044    58397.243    10999.415       14.470        6.011      410.981       96.045        0.055      344.896       22.038      857.012
06/12/2014  19:25:00     -491.322      -62.126       -9.307      236.798      173.823      112.751    56073.253    30214.373    12712.685       17.215        4.950      495.234      121.414        0.060      344.880       22.010      857.030
06/12/2014  19:26:00     -647.806     -201.768      -12.339      248.531      244.848      132.409    61767.858    59950.435    17532.272       29.986        6.963      678.500      118.589        0.031      344.850       21.959      857.028
06/12/2014  19:27:00     -510.847     -278.034      -17.880      271.457      193.415      113.030    73688.908    37409.376    12775.875       23.121        6.194      581.608      115.998        0.040      344.865       21.983      857.073
06/12/2014  19:28:00     -579.906     -203.158      -18.966      266.367      176.273      110.233    70951.253    31072.197    12151.313       24.603        5.709      614.462      132.768        0.047      344.833       21.929      857.102
06/12/2014  19:29:00     -495.099     -298.844      -31.444      200.185      226.661      105.999    40073.957    51375.088    11235.716       21.903        5.134      578.300      112.324        0.038      344.850       21.958      857.110
06/12/2014  19:30:00     -465.913      -82.218       -7.257      278.208      166.653      107.998    77399.752    27773.155    11663.668       17.034        5.842      473.112      133.570        0.080      344.822       21.910      857.058
06/12/2014  19:31:00     -295.518     -113.603       18.873      229.286      209.575      105.296    52572.105    43921.856    11087.243       10.407        5.379      316.601      123.536        0.152      344.903       22.048      857.041
06/12/2014  19:32:00     -600.969     -173.756        3.936      269.039      243.882      121.221    72382.051    59478.210    14694.455       26.893        7.328      625.583      129.882        0.043      344.768       21.818      857.049
06/12/2014  19:33:00     -446.129     -269.976        9.477      255.038      258.142      114.268    65044.422    66637.508    13057.103       20.834        7.237      521.458      117.854        0.051      344.777       21.832      857.001
06/12/2014  19:34:00     -411.037     -110.149        7.917      211.655      169.620       98.660    44797.700    28770.933     9733.821       13.221        4.165      425.540       92.428        0.047      344.779       21.836      857.056
06/12/2014  19:35:00     -527.118     -226.151      -37.678      319.429      251.239      139.743   102034.671    63120.946    19528.152       25.751        9.234      573.583      160.544        0.078      344.748       21.783      857.084
06/12/2014  19:36:00     -416.968     -140.895      -14.574      216.125      189.211       90.940    46709.853    35800.804     8269.994       14.233        4.539      440.129       99.631        0.051      344.782       21.841      857.160
06/12/2014  19:37:00     -519.441     -226.799      -34.311      290.565      192.802      111.744    84427.910    37172.728    12486.831       22.823        6.704      566.795      136.015        0.058      344.739       21.767      857.160
06/12/2014  19:38:00     -580.674     -317.559      -34.820      243.032      206.033      112.349    59064.318    42449.802    12622.232       27.667        5.707      661.836      131.278        0.039      344.695       21.691      857.141
06/12/2014  19:39:00     -425.773     -185.558        5.207      209.943      163.537       95.141    44076.079    26744.194     9051.807       14.779        3.994      464.451      108.317        0.054      344.718       21.733      857.210
06/12/2014  19:40:00     -375.240     -285.782        2.745      225.651      194.396       98.142    50918.351    37789.962     9631.930       16.039        4.917      471.674      121.198        0.066      344.661       21.634      857.187
06/12/2014  19:41:00     -346.749     -176.222      -11.142      186.562      161.750       90.802    34805.258    26162.954     8245.040       11.030        3.461      388.959      108.560        0.078      344.695       21.691      857.177
06/12/2014  19:42:00     -329.581     -158.543      -19.073      201.218      192.122       90.639    40488.628    36910.714     8215.427       10.985        4.281      365.731       99.375        0.074      344.665       21.642      857.156
06/12/2014  19:43:00     -381.549     -110.469       10.049      207.386      159.436      113.344    43008.876    25419.722    12846.866       11.956        4.064      397.219       95.509        0.058      344.660       21.631      857.104
06/12/2014  19:44:00     -575.812     -233.197      -24.702      277.566      255.717      121.113    77042.965    65391.075    14668.426       27.179        7.855      621.241      144.845        0.054      344.599       21.527      857.122
06/12/2014  19:45:00     -450.109     -253.351      -21.527      241.205      195.301      108.237    58179.808    38142.572    11715.199       18.762        5.402      516.512      121.179        0.055      344.583       21.502      857.136
06/12/2014  19:46:00     -448.066     -122.167       -1.829      274.048      184.182       97.373    75102.504    33923.026     9481.474       16.708        5.925      464.423      114.089        0.060      344.574       21.486      857.095
06/12/2014  19:47:00     -534.116     -228.869      -11.870      277.524      253.012      107.355    77019.600    64015.055    11525.146       24.515        7.628      581.086      114.229        0.039      344.585       21.505      857.108
06/12/2014  19:48:00     -368.775     -277.325      -10.399      204.853      166.514      104.098    41964.770    27726.969    10836.325       14.675        4.026      461.415      112.040        0.059      344.556       21.454      857.150
06/12/2014  19:49:00     -261.898     -131.085       15.420      281.454      184.283       95.748    79216.427    33960.353     9167.762       10.415        6.117      292.872      117.594        0.161      344.583       21.502      857.136
06/12/2014  19:50:00     -411.203     -188.362        5.960      271.226      231.267      106.131    73563.750    53484.421    11263.740       17.143        6.916      452.292      126.733        0.079      344.544       21.435      857.102
06/12/2014  19:51:00     -510.749     -267.668        1.935      242.863      199.404      115.337    58982.289    39762.019    13302.604       22.226        5.602      576.638      125.783        0.048      344.489       21.339      857.134
06/12/2014  19:52:00     -398.270     -122.123        6.271      216.884      227.518      100.385    47038.745    51764.625    10077.129       14.120        5.444      416.573       99.518        0.057      344.471       21.309      857.099
06/12/2014  19:53:00     -508.593     -192.360      -32.884      294.084      178.784      117.306    86485.324    31963.646    13760.622       21.445        6.610      543.755      134.297        0.061      344.469       21.306      857.082
06/12/2014  19:54:00     -623.956     -136.725      -27.288      275.310      187.441      123.022    75795.630    35133.973    15134.535       26.739        6.303      638.761      125.029        0.038      344.438       21.254      857.111
06/12/2014  19:55:00     -483.376     -158.355       -9.468      271.143      191.248      107.057    73518.791    36575.827    11461.163       19.016        6.078      508.654      130.109        0.065      344.416       21.214      857.160
06/12/2014  19:56:00     -426.860      -65.576      -29.084      198.216      163.806       98.371    39289.730    26832.530     9676.768       13.156        3.790      431.868      113.342        0.069      344.382       21.159      857.176
06/12/2014  19:57:00     -186.592     -131.227        7.746      161.634      145.586       83.010    26125.607    21195.248     6890.677        5.314        2.711      228.116       84.867        0.138      344.413       21.211      857.199
06/12/2014  19:58:00     -244.101     -144.321        5.864      174.771      140.960       77.367    30544.854    19869.743     5985.700        6.841        2.820      283.573       79.992        0.080      344.373       21.143      857.223
06/12/2014  19:59:00     -393.799     -199.641        9.163      259.243      178.582      105.325    67207.045    31891.360    11093.441       15.258        5.510      441.513      122.480        0.077      344.345       21.094      857.198
06/12/2014  20:00:00     -340.267     -210.937       -4.716      284.838      185.595      122.835    81132.620    34445.570    15088.354       14.546        6.533      400.345      141.986        0.126      344.339       21.084      857.189
06/12/2014  20:01:00     -649.129     -138.930      -43.568      258.820      221.458      112.160    66987.687    49043.694    12579.783       28.556        6.431      663.830      130.960        0.039      344.296       21.012      857.196
06/12/2014  20:02:00     -477.962     -178.060      -11.273      269.489      176.372       95.719    72624.461    31106.954     9162.071       18.656        5.645      510.052      115.430        0.051      344.284       20.990      857.205
06/12/2014  20:03:00     -519.331     -279.215      -19.163      244.809      173.124       99.100    59931.488    29971.976     9820.809       22.386        4.986      589.631      108.809        0.034      344.278       20.980      857.177
06/12/2014  20:04:00     -370.779     -115.561       -0.395      267.187      157.159      100.672    71389.085    24699.048    10134.892       12.851        5.311      388.370      119.844        0.095      344.250       20.932      857.153
06/12/2014  20:05:00     -565.650     -100.583      -43.125      220.143      178.080      100.628    48462.743    31712.599    10126.005       21.110        4.515      574.523      107.705        0.035      344.219       20.878      857.099
06/12/2014  20:06:00     -679.012     -223.887       -3.964      337.102      221.594      120.189   113637.602    49103.803    14445.285       34.416        8.859      714.970      148.821        0.043      344.216       20.873      857.099
06/12/2014  20:07:00     -450.911     -215.698      -18.078      275.537      223.456      116.651    75920.630    49932.602    13607.432       19.479        6.973      499.846      124.071        0.062      344.242       20.919      857.195
06/12/2014  20:08:00     -451.718     -191.421      -10.818      250.310      202.458       96.896    62654.939    40989.177     9388.913       17.690        5.652      490.602      110.517        0.051      344.209       20.861      857.178
06/12/2014  20:09:00     -414.487     -103.498      -17.306      179.550      114.132       72.974    32238.380    13026.192     5325.244       11.669        2.529      427.213       72.736        0.029      344.208       20.859      857.174
06/12/2014  20:10:00     -338.095     -281.867        2.449      202.274      178.903       92.605    40914.602    32006.283     8575.682       13.761        4.075      440.178      109.558        0.062      344.177       20.809      857.169
06/12/2014  20:11:00     -381.538     -223.846       -0.777      216.731      159.376       96.757    46972.469    25400.630     9361.994       13.869        4.087      442.355      101.143        0.052      344.183       20.818      857.194
06/12/2014  20:12:00     -478.792     -130.234       -5.651      259.184      186.571       96.641    67176.169    34808.661     9339.560       17.876        5.566      496.188      107.571        0.047      344.125       20.718      857.200
06/12/2014  20:13:00     -316.909     -103.912        2.782      217.877      150.908       91.246    47470.536    22773.132     8325.763        9.489        3.928      333.511      112.477        0.114      344.135       20.737      857.226
06/12/2014  20:14:00     -558.034     -268.175      -20.850      234.652      206.448      110.536    55061.522    42620.581    12218.186       24.681        5.495      619.128      113.600        0.034      344.095       20.668      857.207
06/12/2014  20:15:00     -436.338     -124.351      -15.189      264.508      230.874      126.546    69964.602    53302.828    16014.012       17.265        6.964      453.711      131.990        0.085      344.069       20.624      857.188
06/12/2014  20:16:00     -391.830     -122.828        4.614      270.237      174.847      108.145    73027.954    30571.542    11695.409       14.194        5.765      410.631      122.737        0.089      344.065       20.617      857.213
06/12/2014  20:17:00     -434.755     -258.117       13.396      304.695      224.540      138.573    92839.239    50418.267    19202.461       20.911        8.123      505.605      174.710        0.119      344.031       20.559      857.219
06/12/2014  20:18:00     -454.794     -249.190      -23.328      269.483      187.404       98.798    72621.248    35120.368     9761.095       19.347        5.875      518.588      106.599        0.042      344.020       20.539      857.204
06/12/2014  20:19:00     -441.707      -62.395      -12.140      202.454      172.447      104.952    40987.622    29737.961    11014.860       14.043        4.087      446.092      103.443        0.054      343.993       20.492      857.189
06/12/2014  20:20:00     -512.721     -179.283       -6.161      229.129      243.252      111.244    52500.180    59171.564    12375.293       20.953        6.202      543.162       98.221        0.033      343.974       20.462      857.204
06/12/2014  20:21:00     -349.688     -165.863       -4.985      228.035      212.352      100.506    52000.113    45093.497    10101.428       12.848        5.360      387.030      118.731        0.094      343.989       20.487      857.245
06/12/2014  20:22:00     -393.347     -225.327       -3.451      224.174      183.440      112.996    50253.976    33650.181    12768.030       15.107        4.834      453.315      128.548        0.080      343.961       20.437      857.210
06/12/2014  20:23:00     -343.727      -44.823       -2.828      247.633      152.005      121.625    61322.166    23105.649    14792.615       10.967        4.961      346.637      131.190        0.143      343.953       20.423      857.221
06/12/2014  20:24:00     -563.373     -114.764      -27.392      279.204      222.877      120.051    77955.015    49674.195    14412.210       23.665        7.102      574.943      136.708        0.057      343.917       20.364      857.213
06/12/2014  20:25:00     -466.629     -130.459      -15.338      267.212      171.373       98.568    71402.441    29368.743     9715.648       17.272        5.524      484.523       88.222        0.033      343.928       20.382      857.226
06/12/2014  20:26:00     -314.533     -185.652       15.974      283.599      200.778      111.877    80428.462    40311.992    12516.544       13.343        6.663      365.236      143.590        0.155      343.903       20.341      857.230
06/12/2014  20:27:00     -471.965     -298.471       -0.360      273.089      210.908      118.140    74577.734    44482.229    13956.977       22.240        6.651      558.423      142.447        0.065      343.885       20.307      857.249
06/12/2014  20:28:00     -415.310     -220.293       -1.310      208.629      177.044       90.126    43526.079    31344.537     8122.713       15.199        4.150      470.119      103.355        0.048      343.898       20.332      857.289
06/12/2014  20:29:00     -348.470     -202.877       -4.628      201.438      208.227      102.878    40577.138    43358.399    10583.835       12.855        4.726      403.225      105.660        0.069      343.894       20.325      857.289
06/12/2014  20:30:00     -465.892     -198.824       -4.744      219.691      175.891       85.069    48263.944    30937.639     7236.767       17.151        4.322      506.544       96.865        0.037      343.858       20.263      857.306
06/12/2014  20:31:00     -543.821      -75.347      -34.813      259.108      197.028       99.786    67136.896    38820.106     9957.286       20.925        5.796      549.015      133.508        0.059      343.825       20.207      857.291
06/12/2014  20:32:00     -285.963     -135.032       11.021      201.541      192.939       90.755    40618.927    37225.465     8236.464        9.309        4.304      316.241      104.077        0.108      343.789       20.145      857.302
06/12/2014  20:33:00     -419.581     -187.436       -3.034      225.231      204.520       98.159    50728.858    41828.588     9635.096       15.667        5.110      459.544      101.437        0.049      343.797       20.159      857.290
06/12/2014  20:34:00     -442.621     -185.320       12.882      249.464      194.290      104.973    62232.162    37748.703    11019.235       17.069        5.550      479.851      117.316        0.060      343.789       20.146      857.303
06/12/2014  20:35:00     -402.987      -79.441       -3.036      210.038      128.953       79.368    44115.911    16628.830     6299.281       11.787        3.352      410.742       93.876        0.052      343.757       20.091      857.298
06/12/2014  20:36:00     -392.219     -152.289      -11.717      204.677      137.045       82.340    41892.625    18781.228     6779.882       12.230        3.373      420.747       84.869        0.041      343.759       20.092      857.289
06/12/2014  20:37:00     -354.774     -137.668       -3.754      206.423      183.708      108.106    42610.653    33748.572    11686.939       11.642        4.402      380.549      109.335        0.083      343.752       20.080      857.302
06/12/2014  20:38:00     -261.050     -164.568      -15.450      153.953      177.799       81.965    23701.525    31612.637     6718.339        7.874        3.102      308.593       81.208        0.069      343.726       20.038      857.330
06/12/2014  20:39:00     -349.427       -5.053        0.250      189.401      154.291       90.835    35872.672    23805.829     8251.065        9.501        3.396      349.463      102.005        0.085      343.720       20.026      857.317
06/12/2014  20:40:00     -485.911      -71.470      -24.167      180.256      152.104       90.065    32492.147    23135.520     8111.637       15.276        3.187      491.138       85.601        0.030      343.675       19.950      857.328
06/12/2014  20:41:00     -304.399     -166.934        7.771      220.955      158.203       96.831    48821.070    25028.192     9376.178       10.189        4.161      347.168      112.728        0.105      343.681       19.962      857.313
06/12/2014  20:42:00     -292.406      -62.986      -10.604      145.774      119.423       75.276    21250.056    14261.843     5666.512        6.537        2.059      299.113       75.019        0.063      343.648       19.903      857.343
06/12/2014  20:43:00     -347.064     -145.112       -6.943      201.610      181.265      105.403    40646.450    32856.879    11109.832       11.307        4.231      376.179      102.980        0.075      343.645       19.899      857.336
06/12/2014  20:44:00     -352.280     -130.094      -10.100      209.661      184.064       98.705    43957.585    33879.723     9742.677       11.434        4.379      375.534      103.881        0.077      343.631       19.876      857.367
06/12/2014  20:45:00     -342.757     -167.025      -16.644      179.240      144.390       78.725    32126.921    20848.419     6197.654       10.240        2.959      381.287       76.553        0.040      343.614       19.846      857.385
06/12/2014  20:46:00     -308.961     -185.258      -24.620      205.811      139.738       87.362    42358.030    19526.673     7632.192        9.994        3.476      360.246      100.609        0.078      343.598       19.817      857.371
06/12/2014  20:47:00     -316.229     -257.091       14.711      281.632      189.526      111.450    79316.620    35919.981    12421.055       14.696        6.383      407.550      142.646        0.123      343.568       19.767      857.358
06/12/2014  20:48:00     -366.232     -185.405        3.967      211.471      187.995       98.555    44720.041    35341.963     9713.126       12.913        4.489      410.489       98.269        0.057      343.592       19.808      857.344
06/12/2014  20:49:00     -335.991     -234.354       -4.780      248.918      199.196       97.311    61960.353    39679.202     9469.439       13.945        5.555      409.648       94.832        0.054      343.567       19.766      857.348
06/12/2014  20:50:00     -348.242     -176.985       -4.279      225.320      188.868      104.195    50768.998    35671.092    10856.676       12.494        4.865      390.635      124.012        0.101      343.556       19.748      857.340
06/12/2014  20:51:00     -400.620     -133.667      -12.896      195.593      142.654       80.877    38256.476    20350.141     6541.047       12.183        3.257      422.331       87.094        0.043      343.536       19.713      857.348
06/12/2014  20:52:00     -474.964     -143.304      -18.182      237.152      174.095      109.148    56241.130    30309.013    11913.250       17.244        4.923      496.112      119.590        0.058      343.502       19.655      857.357
06/12/2014  20:53:00     -426.845     -246.443      -30.534      223.115      134.133       86.461    49780.395    17991.630     7475.566       15.954        3.762      492.880       91.799        0.035      343.525       19.695      857.360
06/12/2014  20:54:00     -354.560     -222.433       -7.310      213.677      158.741      101.992    45657.923    25198.780    10402.294       12.823        4.063      418.556      112.825        0.073      343.497       19.647      857.369
06/12/2014  20:55:00     -383.752     -348.368      -18.587      183.273      173.172       96.084    33589.034    29988.488     9232.125       17.088        3.640      518.291       95.018        0.034      343.492       19.639      857.377
06/12/2014  20:56:00     -336.709     -223.265      -12.384      202.809      136.185       94.511    41131.615    18546.255     8932.353       11.598        3.431      404.005       92.072        0.052      343.490       19.633      857.341
06/12/2014  20:57:00     -303.322     -151.627        5.334      213.017      147.068       88.001    45376.259    21629.091     7744.095        9.487        3.737      339.109      104.742        0.095      343.467       19.596      857.372
06/12/2014  20:58:00     -268.533     -176.132       -4.734      162.806      167.403       81.389    26505.953    28023.604     6624.101        8.214        3.058      321.143       86.879        0.073      343.443       19.555      857.379
06/12/2014  20:59:00     -280.174     -200.558       -1.454      208.124      243.511      112.781    43315.801    59297.811    12719.529       11.701        5.767      344.560      101.492        0.087      343.458       19.580      857.353
06/12/2014  21:00:00     -379.039     -252.351       -2.567      230.792      171.190      103.376    53265.013    29305.920    10686.574       15.029        4.663      455.359      126.527        0.077      343.436       19.542      857.368
06/12/2014  21:01:00     -413.548     -185.357      -24.680      212.694      173.554       91.165    45238.668    30121.034     8311.104       14.481        4.184      453.187      103.151        0.052      343.435       19.543      857.347
06/12/2014  21:02:00     -373.676     -133.810       -8.221      216.353      129.171       81.430    46808.818    16685.035     6630.808       11.385        3.506      396.911       81.193        0.042      343.398       19.480      857.341
06/12/2014  21:03:00     -404.156     -127.333      -17.712      184.067      150.902       86.246    33880.587    22771.513     7438.308       12.197        3.205      423.741       74.156        0.031      343.402       19.485      857.321
06/12/2014  21:04:00     -360.472     -131.534        4.531      199.359      145.474       92.618    39743.884    21162.796     8578.175       10.836        3.474      383.720      102.697        0.072      343.401       19.484      857.341
06/12/2014  21:05:00     -350.582     -149.067       -9.498      239.395      158.911       96.384    57310.104    25252.831     9289.909       11.852        4.593      380.958      106.956        0.079      343.388       19.461      857.335
06/12/2014  21:06:00     -269.914     -136.050       -0.615      208.441      124.956       78.302    43447.849    15613.891     6131.187        7.827        3.260      302.263       96.871        0.103      343.361       19.418      857.375
06/12/2014  21:07:00     -431.537     -205.394      -17.101      183.599      138.479       84.359    33708.489    19176.384     7116.484       14.434        3.000      477.924       81.720        0.029      343.354       19.403      857.372
06/12/2014  21:08:00     -325.797     -152.576      -21.097      189.230      128.521       70.320    35808.172    16517.531     4944.840        9.356        2.864      359.754       79.593        0.049      343.354       19.403      857.363
06/12/2014  21:09:00     -220.962      -60.857        3.201      131.925      107.710       55.983    17404.076    11601.533     3134.066        4.233        1.607      229.190       62.652        0.075      343.287       19.290      857.358
06/12/2014  21:10:00     -297.912     -101.427      -13.636      163.391      180.774       80.164    26696.502    32679.060     6426.259        8.250        3.290      314.704       86.352        0.075      343.249       19.224      857.353
06/12/2014  21:11:00     -417.825     -180.769      -15.176      180.894      148.173       84.609    32722.501    21955.115     7158.656       13.465        3.092      455.253       90.098        0.039      343.263       19.247      857.368
06/12/2014  21:12:00     -358.130     -218.120      -12.106      181.988      157.431       84.490    33119.562    24784.561     7138.592       12.050        3.252      419.325       87.173        0.043      343.230       19.189      857.372
06/12/2014  21:13:00     -243.635      -62.447        6.108      231.717      178.699       99.987    53692.678    31933.285     9997.342        7.944        4.781      251.511      117.895        0.220      343.235       19.200      857.367
06/12/2014  21:14:00     -320.303     -230.487      -34.166      167.867      154.898       73.800    28179.469    23993.432     5446.444       10.724        2.881      394.612       81.789        0.043      343.230       19.192      857.350
06/12/2014  21:15:00     -376.153     -206.648      -13.078      206.765      161.711       91.931    42751.967    26150.402     8451.395       13.084        3.868      429.179       98.876        0.053      343.211       19.159      857.384
06/12/2014  21:16:00     -451.669     -195.156      -13.160      233.389      170.853       88.552    54470.408    29190.820     7841.446       16.687        4.575      492.027       96.354        0.038      343.204       19.147      857.411
06/12/2014  21:17:00     -347.118     -224.959      -26.640      154.697      128.172       82.728    23931.263    16428.141     6843.840       10.950        2.360      413.640       78.725        0.036      343.190       19.123      857.415
06/12/2014  21:18:00     -357.663     -118.454       -6.631      190.925      123.867       88.096    36452.230    15343.033     7760.979       10.077        2.978      376.768      100.332        0.071      343.178       19.102      857.439
06/12/2014  21:19:00     -246.273      -34.917        4.150      236.816      162.540       93.765    56081.613    26419.296     8791.886        7.657        4.565      248.736      117.214        0.222      343.159       19.071      857.454
06/12/2014  21:20:00     -179.582     -118.474      -15.110      136.656      131.482       67.755    18674.771    17287.426     4590.708        4.353        2.028      215.141       56.510        0.069      343.170       19.089      857.431
06/12/2014  21:21:00     -400.655     -107.298      -20.756      208.087      145.329       88.085    43300.035    21120.512     7758.976       12.231        3.609      414.773       96.635        0.054      343.128       19.018      857.458
06/12/2014  21:22:00     -433.722     -219.599      -24.242      176.346      159.753       84.229    31097.821    25520.931     7094.608       15.031        3.186      486.147       84.951        0.031      343.127       19.016      857.486
06/12/2014  21:23:00     -310.440     -166.554      -27.178      148.331      137.788       66.855    22002.041    18985.626     4469.565        8.515        2.273      352.297       55.551        0.025      343.108       18.984      857.480
06/12/2014  21:24:00     -163.991      -85.367        3.603      123.122       98.257       57.765    15159.116     9654.515     3336.809        3.117        1.408      184.880       46.307        0.063      343.051       18.887      857.505
06/12/2014  21:25:00     -225.926     -173.843      -12.099      156.624      113.725       74.819    24531.051    12933.277     5597.918        6.223        2.153      285.068       83.533        0.086      343.099       18.969      857.527
06/12/2014  21:26:00     -282.220     -215.632        0.610      163.871      149.441       91.875    26853.653    22332.687     8441.044        9.187        2.881      355.169       96.298        0.074      343.056       18.896      857.538
06/12/2014  21:27:00     -139.267      -77.714       12.664      120.471       97.466       64.479    14513.334     9499.547     4157.568        2.688        1.409      159.482       64.997        0.166      343.020       18.837      857.546
06/12/2014  21:28:00     -348.096     -120.533       -9.770      203.711      135.680       62.503    41498.147    18409.128     3906.616        9.979        3.191      368.373       74.581        0.041      343.050       18.884      857.533
06/12/2014  21:29:00     -430.048     -128.645      -25.886      178.418      156.440       89.839    31833.099    24473.490     8071.025       13.326        3.219      448.877       94.459        0.044      343.058       18.898      857.505
06/12/2014  21:30:00     -322.624      -57.334        7.448      208.019      130.293       80.848    43271.873    16976.209     6536.394        8.709        3.339      327.678      103.171        0.099      343.012       18.821      857.527
06/12/2014  21:31:00     -316.386     -137.697      -10.617      144.646      135.693       81.348    20922.600    18412.575     6617.513        8.255        2.298      345.052       83.836        0.059      343.048       18.882      857.552
06/12/2014  21:32:00     -212.190      -83.443       -9.259      150.459      123.400       80.176    22637.826    15227.618     6428.237        4.817        2.215      228.008       82.526        0.131      342.986       18.777      857.548
06/12/2014  21:33:00     -142.314      -30.155        7.327      104.358      113.300       70.499    10890.491    12836.979     4970.161        2.495        1.435      145.474       63.546        0.191      342.992       18.789      857.540
06/12/2014  21:34:00     -237.985      -48.078        6.393      174.045      104.024       63.356    30291.641    10820.899     4014.026        5.205        2.256      242.793       75.358        0.096      342.996       18.794      857.526
06/12/2014  21:35:00     -349.115      -98.031      -12.062      203.106      120.525       78.631    41252.194    14526.225     6182.763        9.679        3.098      362.618       86.931        0.057      343.003       18.805      857.563
06/12/2014  21:36:00     -444.978      -91.529      -15.294      231.028      165.240       84.037    53373.992    27304.349     7062.250       14.716        4.387      454.294      102.892        0.051      342.998       18.798      857.596
06/12/2014  21:37:00     -432.271      -59.238        2.962      198.287      161.621       89.999    39317.596    26121.429     8099.815       13.194        3.677      436.311      107.387        0.061      342.943       18.704      857.564
06/12/2014  21:38:00     -444.538     -120.551        5.176      197.429      159.794       93.843    38978.176    25534.249     8806.498       14.273        3.666      460.594      104.194        0.051      342.948       18.712      857.614
06/12/2014  21:39:00     -332.217      -24.044       13.018      190.904      121.418       88.790    36444.239    14742.323     7883.636        8.508        2.954      333.086       98.785        0.088      342.929       18.679      857.641
06/12/2014  21:40:00     -329.476     -117.863        4.044      181.077      124.291       89.774    32788.853    15448.279     8059.336        8.937        2.815      349.923       63.302        0.033      342.950       18.713      857.681
06/12/2014  21:41:00     -246.629       18.639       12.947      144.825      114.410       66.639    20974.314    13089.599     4440.822        4.992        1.925      247.333       75.404        0.093      342.925       18.673      857.691
06/12/2014  21:42:00     -350.348      -95.770        2.416      237.764      163.553       92.081    56531.792    26749.480     8478.854       11.182        4.588      363.202      121.727        0.112      342.887       18.608      857.701
06/12/2014  21:43:00     -324.366     -118.146        5.093      211.921      133.071       81.125    44910.544    17707.892     6581.264        9.418        3.460      345.212       87.576        0.064      342.893       18.618      857.732
06/12/2014  21:44:00     -358.787      -43.694      -25.141      123.850      109.119       70.844    15338.894    11907.036     5018.908        8.176        1.613      361.438       75.088        0.043      342.900       18.630      857.717
06/12/2014  21:45:00     -459.316      -39.351      -42.866      151.502      116.222       70.835    22952.787    13507.514     5017.601       12.791        2.074      460.999       76.673        0.028      342.885       18.605      857.689
06/12/2014  21:46:00     -293.177     -116.134      -11.273      197.688      113.892       75.556    39080.446    12971.365     5708.674        7.865        2.888      315.341       82.744        0.069      342.854       18.552      857.714
06/12/2014  21:47:00     -425.977     -112.509      -25.628      238.209      133.874       97.466    56743.504    17922.262     9499.628       13.945        4.208      440.584       88.858        0.041      342.877       18.590      857.732
06/12/2014  21:48:00     -227.302     -119.101       -0.634      151.208      110.645       76.805    22863.890    12242.268     5898.948        5.342        2.050      256.615       77.834        0.092      342.865       18.574      857.735
06/12/2014  21:49:00     -193.951     -139.070       17.506      154.439      141.996       73.619    23851.374    20162.838     5419.706        5.334        2.472      238.658       79.034        0.110      342.848       18.542      857.721
06/12/2014  21:50:00     -289.311     -107.873        4.445      162.200       98.433       65.251    26308.689     9689.062     4257.658        6.780        2.013      308.768       77.625        0.063      342.833       18.515      857.714
06/12/2014  21:51:00     -312.595     -142.950      -18.403      129.901      133.761       61.581    16874.216    17892.105     3792.280        7.852        1.928      343.731       59.069        0.030      342.819       18.493      857.702
06/12/2014  21:52:00     -272.397     -117.226       -1.593      181.047      125.597       60.655    32778.146    15774.706     3679.018        7.008        2.612      296.550       76.240        0.066      342.797       18.455      857.675
06/12/2014  21:53:00     -315.868      -61.221      -14.358      170.700      124.387       78.156    29138.378    15472.208     6108.406        7.721        2.536      321.747       88.560        0.076      342.798       18.457      857.664
06/12/2014  21:54:00     -250.590     -141.756       -0.073      133.006      110.569       65.940    17690.707    12225.455     4348.133        5.857        1.713      287.906       67.312        0.055      342.755       18.383      857.668
06/12/2014  21:55:00     -161.461     -120.922       10.970      192.379      147.409       90.322    37009.795    21729.541     8158.076        5.384        3.345      201.721      106.458        0.279      342.764       18.401      857.638
06/12/2014  21:56:00     -286.767     -163.468        0.326      170.227      133.272       84.131    28977.335    17761.402     7077.945        8.138        2.691      330.086       85.892        0.068      342.777       18.421      857.603
06/12/2014  21:57:00     -243.606     -102.093       -7.199      139.085      129.575       61.367    19344.505    16789.787     3765.900        5.485        1.995      264.134       71.836        0.074      342.731       18.343      857.607
06/12/2014  21:58:00     -350.203      -56.844       -7.171      217.347      147.334       77.967    47239.815    21707.435     6078.895       10.046        3.751      354.786       78.491        0.049      342.736       18.350      857.599
06/12/2014  21:59:00     -311.043      -21.182      -10.944      139.315      126.528       67.334    19408.577    16009.341     4533.898        6.863        1.998      311.763       67.476        0.047      342.713       18.311      857.596
06/12/2014  22:00:00     -278.145     -109.873       -3.706      144.625      145.846       63.817    20916.344    21271.036     4072.611        6.785        2.313      299.060       57.489        0.037      342.726       18.334      857.608
06/12/2014  22:01:00     -219.354      -43.344        6.734      122.102       93.931       66.147    14908.884     8823.055     4375.487        3.907        1.405      223.595       59.809        0.072      342.697       18.286      857.611
06/12/2014  22:02:00     -347.229     -114.333       -8.123      206.607      113.692       72.712    42686.629    12925.917     5286.980        9.729        3.045      365.568       86.802        0.056      342.729       18.340      857.604
06/12/2014  22:03:00     -339.457      -55.403       -9.589      205.734      118.822       73.956    42326.384    14118.720     5469.437        9.014        3.096      343.948       94.195        0.075      342.695       18.280      857.589
06/12/2014  22:04:00     -321.046     -155.381       -2.395      132.591      154.560       70.165    17580.260    23888.862     4923.076        8.680        2.320      356.670       79.445        0.050      342.686       18.266      857.580
06/12/2014  22:05:00     -321.201     -133.411       -8.273      113.808      108.881       65.760    12952.367    11855.076     4324.348        7.508        1.457      347.806       60.008        0.030      342.678       18.252      857.574
06/12/2014  22:06:00     -324.870      -94.844       -7.363      167.053      129.529       65.487    27906.564    16777.750     4288.485        8.177        2.449      338.432       79.271        0.055      342.646       18.198      857.576
06/12/2014  22:07:00     -287.886      -45.659      -15.258      134.611      145.245       65.451    18120.149    21096.143     4283.887        6.434        2.175      291.484       50.234        0.030      342.643       18.191      857.572
06/12/2014  22:08:00     -217.334     -111.539        8.002      149.641      149.334       71.971    22392.358    22300.565     5179.803        5.480        2.494      244.285       79.473        0.106      342.603       18.127      857.565
06/12/2014  22:09:00     -259.959     -160.935       -2.875      173.796      139.417       76.242    30205.110    19437.019     5812.870        7.446        2.773      305.743       77.308        0.064      342.606       18.129      857.582
06/12/2014  22:10:00     -233.840      -71.111       -7.216      124.332      111.021       55.726    15458.372    12325.713     3105.348        4.533        1.544      244.413       45.029        0.034      342.629       18.170      857.584
06/12/2014  22:11:00     -485.835     -199.790      -31.071      263.445      135.866       96.078    69403.347    18459.464     9230.952       18.699        4.855      525.311      119.847        0.052      342.669       18.237      857.571
06/12/2014  22:12:00     -337.302      -82.547      -15.141      173.725      128.392       73.246    30180.239    16484.588     5364.949        8.641        2.601      347.256       78.374        0.051      342.633       18.177      857.581
06/12/2014  22:13:00     -261.623      -76.448       -9.172      147.617      132.546       67.361    21790.814    17568.390     4537.487        5.913        2.195      272.564       76.078        0.078      342.589       18.102      857.593
06/12/2014  22:14:00     -288.984      -54.856       10.796      165.942      123.697       90.727    27536.718    15300.837     8231.382        6.884        2.553      294.144       96.738        0.108      342.608       18.134      857.595
06/12/2014  22:15:00     -474.973      -46.865      -22.347      196.199      180.612       75.272    38493.917    32620.601     5665.826       15.252        3.839      477.279       87.169        0.033      342.646       18.197      857.583
06/12/2014  22:16:00     -385.083      -92.461       -2.173      213.408      168.877       91.571    45542.874    28519.425     8385.308       11.963        4.122      396.028      104.025        0.069      342.622       18.158      857.579
06/12/2014  22:17:00     -392.023     -148.456      -13.600      189.595      193.593       94.621    35946.149    37478.182     8953.087       12.913        4.119      419.191       84.770        0.041      342.639       18.185      857.560
06/12/2014  22:18:00     -332.168     -103.973        4.587      213.487      171.718      104.018    45576.813    29487.156    10819.720       10.351        4.294      348.061      111.684        0.103      342.629       18.170      857.569
06/12/2014  22:19:00     -287.031      -98.872        8.280      146.072      166.558       80.355    21336.986    27741.428     6456.927        7.387        2.777      303.583       82.798        0.074      342.619       18.153      857.562
06/12/2014  22:20:00     -241.357     -101.090       -0.647      145.786       95.986       62.825    21253.566     9213.306     3946.994        5.144        1.721      261.672       67.524        0.067      342.665       18.232      857.548
06/12/2014  22:21:00     -366.248      -98.742      -17.872      199.937      123.552       80.527    39974.650    15264.999     6484.607       10.295        3.086      379.325       95.364        0.063      342.675       18.247      857.567
06/12/2014  22:22:00     -311.214      -77.133       -7.441      176.989      135.638       93.258    31325.059    18397.693     8697.135        8.063        2.921      320.630       65.742        0.042      342.679       18.254      857.567
06/12/2014  22:23:00     -426.932     -139.449      -17.123      191.767      180.584       84.140    36774.643    32610.471     7079.591       13.922        3.823      449.129       97.520        0.047      342.641       18.191      857.533
06/12/2014  22:24:00     -297.240     -125.081        7.269      153.754      136.187       75.691    23640.162    18547.030     5729.128        7.597        2.396      322.486       78.487        0.059      342.613       18.142      857.572
06/12/2014  22:25:00     -372.456     -189.913      -14.641      190.874      168.260       79.578    36433.063    28311.496     6332.666       12.303        3.554      418.079       88.371        0.045      342.643       18.194      857.570
06/12/2014  22:26:00     -378.122     -186.731       -6.424      219.857      193.791       98.561    48337.254    37554.925     9714.203       13.673        4.780      421.717      105.712        0.063      342.616       18.147      857.548
06/12/2014  22:27:00     -432.162      -52.938       -9.874      193.618      136.631       82.399    37488.041    18668.050     6789.581       12.629        3.147      435.392       85.054        0.038      342.598       18.117      857.543
06/12/2014  22:28:00     -430.365      -93.799      -16.666      173.629      164.257       75.395    30147.144    26980.376     5684.332       12.854        3.141      440.468       72.790        0.027      342.591       18.104      857.510
06/12/2014  22:29:00     -529.420     -137.054      -15.132      249.433      210.392       95.158    62216.657    44264.950     9055.053       20.739        5.777      546.872      111.565        0.042      342.675       18.247      857.531
06/12/2014  22:30:00     -418.377     -226.473      -31.249      166.740      115.441       75.801    27802.296    13326.606     5745.843       13.708        2.344      475.741       66.593        0.020      342.666       18.230      857.523
06/12/2014  22:31:00     -436.253     -131.919      -34.619      178.628      121.787       65.447    31907.845    14832.137     4283.326       12.996        2.551      455.762       76.524        0.028      342.622       18.158      857.522
06/12/2014  22:32:00     -283.888      -53.324        0.380      177.970      157.141       83.664    31673.203    24693.380     6999.668        7.339        3.168      288.853       86.251        0.089      342.590       18.103      857.519
06/12/2014  22:33:00     -264.366      -71.995       -6.487      180.720      145.897       85.798    32659.856    21285.814     7361.214        6.820        3.065      273.994       92.181        0.113      342.646       18.199      857.548
06/12/2014  22:34:00     -382.587     -160.561       -8.560      210.489      141.672       64.820    44305.619    20071.043     4201.643       12.039        3.429      414.912       74.563        0.032      342.627       18.164      857.556
06/12/2014  22:35:00     -353.010      -49.312      -11.350      165.625      148.117       64.419    27431.593    21938.507     4149.782        9.034        2.676      356.438       65.778        0.034      342.599       18.117      857.560
06/12/2014  22:36:00     -422.423     -133.853      -14.156      154.594      141.281       75.990    23899.339    19960.367     5774.517       12.309        2.482      443.122       64.616        0.021      342.595       18.111      857.567
06/12/2014  22:37:00     -388.956     -160.198      -11.936      188.130      111.897       80.585    35392.892    12521.004     6493.944       11.574        2.720      420.655       92.591        0.048      342.571       18.069      857.538
06/12/2014  22:38:00     -279.094      -60.897       -8.385      137.472      105.916       57.447    18898.597    11218.131     3300.120        5.754        1.671      285.660       59.896        0.044      342.537       18.013      857.551
06/12/2014  22:39:00     -311.167      -63.655       -1.816      167.744      112.737       76.707    28138.137    12709.668     5883.938        7.380        2.337      317.611       87.376        0.076      342.521       17.987      857.552
06/12/2014  22:40:00     -345.938      -10.192      -18.480      144.754       94.413       70.898    20953.704     8913.835     5026.523        7.750        1.745      346.088       76.408        0.049      342.468       17.896      857.565
06/12/2014  22:41:00     -471.062      -89.359      -37.591      169.104      189.464       79.755    28596.147    35896.646     6360.815       15.106        3.543      479.463       83.395        0.030      342.523       17.991      857.553
06/12/2014  22:42:00     -545.913      -58.010      -28.870      183.364      128.103       83.954    33622.502    16410.348     7048.259       17.964        2.854      548.986       87.497        0.025      342.571       18.070      857.568
06/12/2014  22:43:00     -323.717      -25.180      -10.024      157.803      135.943       68.940    24901.873    18480.416     4752.788        7.682        2.407      324.695       71.808        0.049      342.541       18.020      857.586
06/12/2014  22:44:00     -251.067      -30.054      -23.572      156.244      109.244       66.817    24412.183    11934.164     4464.572        5.264        2.041      252.859       69.147        0.075      342.495       17.941      857.596
06/12/2014  22:45:00     -431.352     -115.870      -19.358      187.004      148.892       83.894    34970.462    22168.758     7038.123       13.201        3.209      446.643       80.465        0.032      342.481       17.916      857.606
06/12/2014  22:46:00     -390.950     -122.783      -17.028      175.259      135.287       81.711    30715.660    18302.496     6676.613       11.194        2.785      409.777       93.518        0.052      342.487       17.928      857.589
06/12/2014  22:47:00     -333.351      -77.362        0.576      114.250       97.977       59.373    13053.031     9599.492     3525.122        7.164        1.309      342.210       61.148        0.032      342.418       17.810      857.614
06/12/2014  22:48:00     -477.925     -112.491      -20.609      178.684      117.905       75.562    31927.800    13901.557     5709.629       14.650        2.577      490.985       80.853        0.027      342.449       17.862      857.616
06/12/2014  22:49:00     -386.777      -27.138      -20.024      172.253      117.815       66.643    29671.207    13880.366     4441.248        9.935        2.400      387.728       69.556        0.032      342.395       17.772      857.641
06/12/2014  22:50:00     -361.064        4.816      -34.799      165.832      147.450       65.207    27500.119    21741.421     4251.996        9.254        2.675      361.096       67.761        0.035      342.423       17.819      857.640
06/12/2014  22:51:00     -442.517      -83.779      -26.208      156.303      127.786       73.222    24430.484    16329.373     5361.518       12.482        2.306      450.378       80.576        0.032      342.425       17.823      857.648
06/12/2014  22:52:00     -411.576      -33.167      -17.781      166.830      132.014       83.327    27832.278    17427.821     6943.458       11.150        2.610      412.911       90.659        0.048      342.439       17.847      857.641
06/12/2014  22:53:00     -373.101       -5.315      -13.690      163.970      139.348       73.774    26886.103    19417.812     5442.539        9.557        2.587      373.138       78.324        0.044      342.413       17.801      857.637
06/12/2014  22:54:00     -502.295     -120.631      -21.057      198.924      146.373       76.688    39570.672    21425.179     5881.059       16.707        3.344      516.577       82.547        0.026      342.427       17.826      857.639
06/12/2014  22:55:00     -416.416       -8.932      -21.167      168.613      121.558       76.593    28430.288    14776.257     5866.451       11.149        2.454      416.512       79.404        0.036      342.394       17.768      857.651
06/12/2014  22:56:00     -369.333      -77.337       -3.885      264.522      134.896       85.818    69972.138    18197.019     7364.752       11.895        4.777      377.343      116.426        0.095      342.379       17.745      857.642
06/12/2014  22:57:00     -376.347      -96.990        3.036      151.312      162.213       80.362    22895.293    26313.160     6458.052       10.335        2.783      388.643       83.292        0.046      342.365       17.721      857.638
06/12/2014  22:58:00     -472.318     -136.417      -12.549      197.478      152.408       84.383    38997.675    23228.320     7120.571       15.559        3.467      491.624      101.909        0.043      342.407       17.792      857.665
06/12/2014  22:59:00     -399.382      -90.271      -22.840      201.847      211.747       80.059    40742.225    44836.919     6409.409       13.006        4.599      409.457       70.821        0.030      342.435       17.839      857.655
06/12/2014  23:00:00     -476.950      -28.758      -35.993      107.296      130.846       66.757    11512.430    17120.736     4456.548       13.134        1.654      477.816       58.993        0.015      342.425       17.822      857.639
06/12/2014  23:01:00     -435.527      -23.028      -14.117      178.659      182.248       89.003    31919.156    33214.383     7921.508       13.172        3.653      436.136       97.219        0.050      342.435       17.840      857.634
06/12/2014  23:02:00     -467.606     -127.650      -15.192      225.071      175.722       88.735    50656.813    30878.327     7873.901       16.228        4.470      484.717       96.354        0.040      342.469       17.897      857.628
06/12/2014  23:03:00     -356.342      -54.542       -8.049      195.388      181.048       81.988    38176.278    32778.332     6722.051       10.383        3.884      360.492       93.084        0.067      342.435       17.840      857.644
06/12/2014  23:04:00     -290.401     -138.742       -2.601      119.516      108.965       66.276    14284.042    11873.445     4392.548        6.706        1.528      321.842       62.821        0.038      342.394       17.772      857.654
06/12/2014  23:05:00     -381.766      -61.806        0.802      221.542      137.741       89.764    49080.862    18972.466     8057.643       11.282        3.806      386.737      103.350        0.071      342.441       17.850      857.669
06/12/2014  23:06:00     -383.656      -72.553      -15.853      185.099      146.189       77.371    34261.545    21371.081     5986.319       10.715        3.081      390.456       96.402        0.061      342.444       17.855      857.669
06/12/2014  23:07:00     -383.287     -165.264      -17.413      149.592      103.222       63.135    22377.721    10654.703     3986.036       10.576        1.851      417.399       55.195        0.017      342.431       17.832      857.675
06/12/2014  23:08:00     -493.654     -144.282       -4.475      198.564      170.874       96.227    39427.519    29197.820     9259.701       17.119        3.894      514.307      101.621        0.039      342.450       17.865      857.677
06/12/2014  23:09:00     -295.815      -61.913        7.253      195.412      159.240       82.267    38185.712    25357.370     6767.814        8.084        3.516      302.224       96.028        0.101      342.448       17.862      857.726
06/12/2014  23:10:00     -405.634      -34.666      -12.310      179.362      181.821       86.364    32170.716    33058.823     7458.697       11.928        3.634      407.113       91.179        0.050      342.429       17.828      857.728
06/12/2014  23:11:00     -394.798      -32.277      -21.372      206.209      126.958       90.932    42522.190    16118.213     8268.566       11.212        3.345      396.115      105.608        0.071      342.431       17.831      857.740
06/12/2014  23:12:00     -390.020      -76.557       -0.258      165.350      130.056       76.418    27340.551    16914.600     5839.779       10.403        2.505      397.463       80.546        0.041      342.425       17.824      857.738
06/12/2014  23:13:00     -463.790     -130.994      -23.496      214.441      167.120      106.177    45984.900    27929.134    11273.643       15.898        4.259      481.934       96.908        0.040      342.453       17.869      857.735
06/12/2014  23:14:00     -495.715     -119.820      -12.181      262.763      152.590       99.458    69044.404    23283.720     9891.954       18.121        5.111      509.990      106.472        0.044      342.508       17.965      857.777
06/12/2014  23:15:00     -334.390     -100.630       11.289      190.994      145.172       83.862    36478.648    21074.948     7032.841        9.332        3.229      349.203       79.664        0.052      342.490       17.933      857.817
06/12/2014  23:16:00     -307.278     -100.385      -13.780      131.312      112.946       66.206    17242.814    12756.781     4383.195        6.953        1.719      323.260       48.867        0.023      342.450       17.865      857.815
06/12/2014  23:17:00     -544.483       22.902      -27.984      180.821      120.677       82.343    32696.118    14562.894     6780.433       17.589        2.702      544.965       90.890        0.028      342.503       17.955      857.814
06/12/2014  23:18:00     -359.957      -72.600      -22.186      166.218      103.177       67.769    27628.279    10645.400     4592.683        8.909        2.143      367.205       84.156        0.053      342.488       17.930      857.807
06/12/2014  23:19:00     -373.934      -64.624      -14.263      176.364       98.943       70.981    31104.200     9789.735     5038.366        9.506        2.297      379.477       75.733        0.040      342.428       17.827      857.835
06/12/2014  23:20:00     -458.387       42.548      -29.312      142.630      152.992       72.546    20343.287    23406.551     5262.933       13.089        2.451      460.357       59.924        0.017      342.473       17.905      857.831
06/12/2014  23:21:00     -326.571     -131.306       -9.154      142.920      110.370       57.463    20426.200    12181.462     3301.952        7.993        1.795      351.980       62.004        0.031      342.490       17.933      857.794
06/12/2014  23:22:00     -464.621     -106.540      -22.156      139.334      106.949       73.362    19413.924    11438.159     5381.987       13.197        1.812      476.679       45.411        0.009      342.508       17.963      857.799
06/12/2014  23:23:00     -414.339      -65.195       -7.939      162.778      126.595       68.173    26496.535    16026.271     4647.570       11.157        2.359      419.436       77.143        0.034      342.472       17.902      857.841
06/12/2014  23:24:00     -373.241      -39.387      -11.900      196.657      103.835       83.984    38673.905    10781.668     7053.264        9.874        2.825      375.314      101.759        0.074      342.458       17.877      857.850
06/12/2014  23:25:00     -289.968      -14.039      -17.470      162.729      117.027       71.314    26480.792    13695.390     5085.618        6.491        2.263      290.307       73.700        0.064      342.477       17.911      857.848
06/12/2014  23:26:00     -185.660       -9.120       -3.414      158.547       86.995       68.797    25137.033     7568.045     4732.977        3.599        1.872      185.884       91.759        0.244      342.436       17.843      857.830
06/12/2014  23:27:00     -363.046       -5.261      -15.726      163.070      142.845       77.767    26591.783    20404.556     6047.697        9.255        2.652      363.084       81.593        0.051      342.447       17.859      857.823
06/12/2014  23:28:00     -584.696      -61.367      -26.803      207.441      137.574       77.361    43031.747    18926.602     5984.746       20.713        3.397      587.908       95.013        0.026      342.511       17.968      857.830
06/12/2014  23:29:00     -278.477       -4.521      -25.244      142.018      106.229       58.542    20168.980    11284.663     3427.121        5.654        1.744      278.513       62.821        0.051      342.454       17.872      857.840
06/12/2014  23:30:00     -350.279     -102.951       -6.201      181.009      125.663       71.938    32764.102    15791.235     5175.113        9.352        2.687      365.095       84.594        0.054      342.392       17.768      857.825
06/12/2014  23:31:00     -245.041      -91.359        5.038      112.806      109.824       51.049    12725.292    12061.355     2606.046        4.790        1.370      261.518       53.048        0.041      342.370       17.730      857.814
06/12/2014  23:32:00     -317.820      -73.101      -15.345      134.747       96.656       51.273    18156.888     9342.313     2628.899        6.835        1.506      326.119       49.512        0.023      342.364       17.717      857.815
06/12/2014  23:33:00     -325.899      -97.208      -18.582      166.717      135.439       74.409    27794.475    18343.715     5536.758        8.383        2.584      340.087       68.280        0.040      342.357       17.708      857.823
06/12/2014  23:34:00     -242.835      -29.689        0.176      171.990      112.211       75.602    29580.701    12591.293     5715.589        5.386        2.394      244.643       81.704        0.112      342.316       17.636      857.843
06/12/2014  23:35:00     -415.199      -53.105      -24.608      168.597      110.142       65.780    28424.817    12131.331     4327.028       11.034        2.244      418.581       83.577        0.040      342.338       17.674      857.904
06/12/2014  23:36:00     -288.889      -28.620      -12.728      176.315      120.614       72.453    31087.082    14547.696     5249.405        6.765        2.544      290.303       67.621        0.054      342.310       17.626      857.917
06/12/2014  23:37:00     -435.587      -68.892      -34.878      204.021      114.502       76.239    41624.426    13110.674     5812.332       12.811        3.027      441.001       89.337        0.041      342.380       17.747      857.897
06/12/2014  23:38:00     -434.809      -99.163      -24.898      127.217      136.372       74.184    16184.249    18597.204     5503.330       11.989        2.014      445.974       64.832        0.021      342.374       17.735      857.885
06/12/2014  23:39:00     -325.366      -59.651      -21.713      180.163       92.942       74.979    32458.715     8638.238     5621.842        7.830        2.336      330.789       81.792        0.061      342.301       17.612      857.905
06/12/2014  23:40:00     -267.626      -57.752       -6.568      104.656       97.069       53.920    10952.891     9422.330     2907.317        4.914        1.164      273.786       46.633        0.029      342.280       17.575      857.894
06/12/2014  23:41:00     -425.998     -144.888      -25.156      160.327      153.794       78.281    25704.705    23652.690     6127.987       12.928        2.774      449.964       78.493        0.030      342.306       17.620      857.914
06/12/2014  23:42:00     -513.228     -107.388      -35.229      131.751      129.517       67.193    17358.457    16774.677     4514.876       15.740        1.932      524.343       51.707        0.010      342.283       17.580      857.939
06/12/2014  23:43:00     -331.230       15.855        0.245      185.414      136.233       78.591    34378.325    18559.300     6176.490        8.453        2.956      331.609       91.320        0.076      342.268       17.555      857.957
06/12/2014  23:44:00     -457.652       -3.369      -34.789      156.898      137.372       81.831    24616.961    18871.025     6696.378       13.042        2.509      457.664       66.751        0.021      342.311       17.628      857.934
06/12/2014  23:45:00     -461.617      -58.166      -25.062      158.149      151.316       74.681    25011.004    22896.545     5577.237       13.528        2.674      465.267       63.403        0.019      342.281       17.576      857.914
06/12/2014  23:46:00     -468.972     -124.501      -19.748      176.847      169.678       74.273    31274.771    28790.582     5516.542       15.069        3.279      485.217       68.814        0.020      342.399       17.778      857.935
06/12/2014  23:47:00     -452.640     -123.426      -14.739      189.742      161.870       72.758    36002.180    26201.971     5293.753       14.390        3.375      469.166       78.335        0.028      342.482       17.920      857.989
06/12/2014  23:48:00     -371.888      -47.823      -23.100      158.241      122.502       66.266    25040.134    15006.770     4391.187        9.277        2.222      374.950       72.335        0.037      342.392       17.766      858.007
06/12/2014  23:49:00     -223.463     -112.759      -19.800       79.340      105.505       45.996     6294.896    11131.205     2115.646        4.129        0.977      250.301       34.956        0.020      342.351       17.694      857.987
06/12/2014  23:50:00     -267.972     -112.748       -3.237      186.537      138.578       86.816    34795.945    19203.968     7536.937        7.302        3.077      290.725       93.064        0.102      342.300       17.609      858.018
06/12/2014  23:51:00     -313.239      -41.512      -22.396      150.364      109.182       60.363    22609.482    11920.713     3643.650        6.925        1.909      315.978       65.515        0.043      342.308       17.622      858.032
06/12/2014  23:52:00     -326.477      -76.208      -17.138      160.428      102.488       62.588    25737.038    10503.891     3917.208        7.642        2.008      335.254       74.659        0.050      342.294       17.600      858.052
06/12/2014  23:53:00     -335.971      -60.466      -23.937      156.492       92.785       62.334    24489.744     8609.072     3885.519        7.704        1.849      341.369       78.832        0.053      342.258       17.538      858.033
06/12/2014  23:54:00     -242.746     -107.743      -11.397      124.070       90.526       55.555    15393.267     8195.030     3086.381        4.866        1.334      265.582       46.218        0.030      342.256       17.536      858.024
06/12/2014  23:55:00     -235.966      -54.895       -0.880      161.011       83.389       65.453    25924.620     6953.767     4284.045        4.792        1.858      242.267       75.002        0.096      342.225       17.484      858.008
06/12/2014  23:56:00     -179.200      -86.502        4.416      115.383       95.925       53.440    13313.308     9201.690     2855.792        3.249        1.269      198.986       53.955        0.074      342.284       17.584      857.993
06/12/2014  23:57:00     -164.219      -21.042       -8.661      126.968       69.296       47.152    16120.766     4801.952     2223.329        2.531        1.157      165.562       40.559        0.060      342.298       17.609      857.988
06/12/2014  23:58:00     -254.469      -74.510        4.327      120.692       99.808       58.402    14566.473     9961.562     3410.740        4.913        1.397      265.153       61.339        0.054      342.335       17.670      858.014
06/12/2014  23:59:00     -175.682      -67.314        7.032      148.595       91.817       63.796    22080.494     8430.426     4069.986        3.501        1.729      188.137       75.329        0.160      342.233       17.496      858.026
